[[{"header":{"parameterUnit":"m.s-1","parameterCategory":1,"la1":31.0,"la2":29.5877,"lo1":-88.7671,"lo2":-86.6584,"dx":0.0162,"dy":0.0185,"nx":115,"ny":88,"refTime":"2023-01-07T06:00:00:Z","depth":0,"parameterNumber":2,"parameterNumberName":"U-component_of_WINDS"},"data":[0.0,0.0,0.0,0.0,0.0,0.0,0.0,0.0,0.0,0.0,0.0,0.0,0.0,0.0,0.0,0.0,0.0,0.0,0.0,0.0,0.0,0.0,0.0,0.0,0.0,0.0,0.0,0.0,0.0,0.0,0.0,0.0,0.0,0.0,0.0,0.0,0.0,0.0,0.0,0.0,0.0,0.0,0.0,0.0,0.0,0.0,0.0,0.0,0.0,0.0,0.0,0.0,0.0,0.0,0.0,0.0,0.0,0.0,0.0,0.0,0.0,0.0,0.0,0.0,0.0,0.0,0.0,0.0,0.0,0.0,0.0,0.0,0.0,0.0,0.0,0.0,0.0,0.0,0.0,0.0,0.0,0.0,0.0,0.0,0.0,0.0,0.0,0.0,0.0,0.0,0.0,0.0,0.0,0.0,0.0,0.0,0.0,0.0,0.0,0.0,0.0,0.0,0.0,0.0,0.0,0.0,0.0,0.0,0.0,0.0,0.0,0.0,0.0,0.0,0.0,0.0,0.0,0.0,0.0,0.0,0.0,0.0,0.0,0.0,0.0,0.0,0.0,0.0,0.0,0.0,0.0,0.0,0.0,0.0,0.0,0.0,0.0,0.0,0.0,0.0,0.0,0.0,0.0,0.0,0.0,0.0,0.0,0.0,0.0,0.0,0.0,0.0,0.0,0.0,0.0,0.0,0.0,0.0,0.0,0.0,0.0,0.0,0.0,0.0,0.0,0.0,0.0,0.0,0.0,0.0,0.0,0.0,0.0,0.0,0.0,0.0,0.0,0.0,0.0,0.0,0.0,0.0,0.0,0.0,0.0,0.0,0.0,0.0,0.0,0.0,0.0,0.0,0.0,0.0,0.0,0.0,0.0,0.0,0.0,0.0,0.0,0.0,0.0,0.0,0.0,0.0,0.0,0.0,0.0,0.0,0.0,0.0,0.0,0.0,0.0,0.0,0.0,0.0,0.0,0.0,0.0,0.0,0.0,0.0,0.0,0.0,0.0,0.0,0.0,0.0,0.0,0.0,0.0,0.0,0.0,0.0,0.0,0.0,0.0,0.0,0.0,0.0,0.0,0.0,0.0,0.0,0.0,0.0,0.0,0.0,0.0,0.0,0.0,0.0,0.0,0.0,0.0,0.0,0.0,0.0,0.0,0.0,0.0,0.0,0.0,0.0,0.0,0.0,0.0,0.0,0.0,0.0,0.0,0.0,0.0,0.0,0.0,0.0,0.0,0.0,0.0,0.0,0.0,0.0,0.0,0.0,0.0,0.0,0.0,0.0,0.0,0.0,0.0,0.0,0.0,0.0,0.0,0.0,0.0,0.0,0.0,0.0,0.0,0.0,0.0,0.0,0.0,0.0,0.0,0.0,0.0,0.0,0.0,0.0,0.0,0.0,0.0,0.0,0.0,0.0,0.0,0.0,0.0,0.0,0.0,0.0,0.0,0.0,0.0,0.0,0.0,0.0,0.0,0.0,0.0,0.0,0.0,0.0,0.0,0.0,0.0,0.0,0.0,0.0,0.0,0.0,0.0,0.0,0.0,0.0,0.0,0.0,0.0,0.0,0.0,0.0,0.0,0.0,0.0,0.0,0.0,0.0,0.0,0.0,0.0,0.0,0.0,0.0,0.0,0.0,0.0,0.0,0.0,0.0,0.0,0.0,0.0,0.0,0.0,0.0,0.0,0.0,0.0,0.0,0.0,0.0,0.0,0.0,0.0,0.0,0.0,0.0,0.0,0.0,0.0,0.0,0.0,0.0,0.0,0.0,0.0,0.0,0.0,0.0,0.0,0.0,0.0,0.0,0.0,0.0,0.0,0.0,0.0,0.0,0.0,0.0,0.0,0.0,0.0,0.0,0.0,0.0,0.0,0.0,0.0,0.0,0.0,0.0,0.0,0.0,0.0,0.0,0.0,0.0,0.0,0.0,0.0,0.0,0.0,0.0,0.0,0.0,0.0,0.0,0.0,0.0,0.0,0.0,0.0,0.0,0.0,0.0,0.0,0.0,0.0,0.0,0.0,0.0,0.0,0.0,0.0,0.0,0.0,0.0,0.0,0.0,0.0,0.0,0.0,0.0,0.0,0.0,0.0,0.0,0.0,0.0,0.0,0.0,0.0,0.0,0.0,0.0,0.0,0.0,0.0,0.0,0.0,0.0,0.0,0.0,0.0,0.0,0.0,0.0,0.0,0.0,0.0,0.0,0.0,0.0,0.0,0.0,0.0,0.0,0.0,0.0,0.0,0.0,0.0,0.0,0.0,0.0,0.0,0.0,0.0,0.0,0.0,0.0,0.0,0.0,0.0,0.0,0.0,0.0,0.0,0.0,0.0,0.0,0.0,0.0,0.0,0.0,0.0,0.0,0.0,0.0,0.0,0.0,0.0,0.0,0.0,0.0,0.0,0.0,0.0,0.0,0.0,0.0,0.0,0.0,0.0,0.0,0.0,0.0,0.0,0.0,0.0,0.0,0.0,0.0,0.0,0.0,0.0,0.0,0.0,0.0,0.0,0.0,0.0,0.0,0.0,0.0,0.0,0.0,0.0,0.0,0.0,0.0,0.0,0.0,0.0,0.0,0.0,0.0,0.0,0.0,0.0,0.0,0.0,0.0,0.0,0.0,0.0,0.0,0.0,0.0,0.0,0.0,0.0,0.0,0.0,0.0,0.0,0.0,0.0,0.0,0.0,0.0,0.0,0.0,0.0,0.0,0.0,0.0,0.0,0.0,0.0,0.0,0.0,0.0,0.0,0.0,0.0,0.0,0.0,0.0,0.0,0.0,0.0,0.0,0.0,0.0,0.0,0.0,0.0,0.0,0.0,0.0,0.0,0.0,0.0,0.0,0.0,0.0,0.0,0.0,0.0,0.0,0.0,0.0,0.0,0.0,0.0,0.0,0.0,0.0,0.0,0.0,0.0,0.0,0.0,0.0,0.0,0.0,0.0,0.0,0.0,0.0,0.0,0.0,0.0,0.0,0.0,0.0,0.0,0.0,0.0,0.0,0.0,0.0,0.0,0.0,0.0,0.0,0.0,0.0,0.0,0.0,0.0,0.0,0.0,0.0,0.0,0.0,0.0,0.0,0.0,0.0,0.0,0.0,0.0,0.0,0.0,0.0,0.0,0.0,0.0,0.0,0.0,0.0,0.0,0.0,0.0,0.0,0.0,0.0,0.0,0.0,0.0,0.0,0.0,0.0,0.0,0.0,0.0,0.0,0.0,0.0,0.0,0.0,0.0,0.0,0.0,0.0,0.0,0.0,0.0,0.0,0.0,0.0,0.0,0.0,0.0,0.0,0.0,0.0,0.0,0.0,0.0,0.0,0.0,0.0,0.0,0.0,0.0,0.0,0.0,0.0,0.0,0.0,0.0,0.0,0.0,0.0,0.0,0.0,0.0,0.0,0.0,0.0,0.0,0.0,0.0,0.0,0.0,0.0,0.0,0.0,0.0,0.0,0.0,0.0,0.0,0.0,0.0,0.0,0.0,0.0,0.0,0.0,0.0,0.0,0.0,0.0,0.0,0.0,0.0,0.0,0.0,0.0,0.0,0.0,0.0,0.0,0.0,0.0,0.0,0.0,0.0,0.0,0.0,0.0,0.0,0.0,0.0,0.0,0.0,0.0,0.0,0.0,0.0,0.0,0.0,0.0,0.0,0.0,0.0,0.0,0.0,0.0,0.0,0.0,0.0,0.0,0.0,0.0,0.0,0.0,0.0,0.0,0.0,0.0,0.0,0.0,0.0,0.0,0.0,0.0,0.0,0.0,0.0,0.0,0.0,0.0,0.0,0.0,0.0,0.0,0.0,0.0,0.0,0.0,0.0,0.0,0.0,0.0,0.0,0.0,0.0,0.0,0.0,0.0,0.0,0.0,0.0,0.0,0.0,0.0,0.0,0.0,0.0,0.0,0.0,0.0,0.0,0.0,0.0,0.0,0.0,0.0,0.0,0.0,0.0,0.0,0.0,0.0,0.0,0.0,0.0,0.0,0.0,0.0,0.0,0.0,0.0,0.0,0.0,0.0,0.0,0.0,0.0,0.0,0.0,0.0,0.0,0.0,0.0,0.0,0.0,0.0,0.0,0.0,0.0,0.0,0.0,0.0,0.0,0.0,0.0,0.0,0.0,0.0,0.0,0.0,0.0,0.0,0.0,0.0,0.0,0.0,0.0,0.0,0.0,0.0,0.0,0.0,0.0,0.0,0.0,0.0,0.0,0.0,0.0,0.0,0.0,0.0,0.0,0.0,0.0,0.0,0.0,0.0,-1.7322,0.0,0.0,0.0,-1.7079,0.0,0.0,0.0,0.0,0.0,0.0,0.0,0.0,0.0,0.0,0.0,0.0,0.0,0.0,0.0,0.0,0.0,0.0,0.0,0.0,0.0,0.0,0.0,0.0,0.0,0.0,0.0,0.0,0.0,0.0,0.0,0.0,0.0,0.0,0.0,0.0,0.0,0.0,0.0,0.0,0.0,0.0,0.0,0.0,0.0,0.0,0.0,0.0,0.0,0.0,0.0,0.0,0.0,0.0,0.0,0.0,0.0,0.0,0.0,0.0,0.0,0.0,0.0,0.0,0.0,0.0,0.0,0.0,0.0,0.0,0.0,0.0,0.0,0.0,0.0,0.0,0.0,0.0,0.0,0.0,0.0,0.0,0.0,0.0,0.0,0.0,0.0,0.0,0.0,0.0,0.0,0.0,0.0,0.0,0.0,0.0,0.0,0.0,0.0,0.0,0.0,0.0,0.0,0.0,0.0,0.0,0.0,0.0,0.0,0.0,-1.7322,-1.7199,-1.7219,-1.7174,-1.7111,0.0,0.0,0.0,0.0,0.0,0.0,0.0,0.0,0.0,0.0,0.0,0.0,0.0,0.0,0.0,0.0,0.0,0.0,0.0,0.0,0.0,0.0,0.0,0.0,0.0,0.0,0.0,0.0,0.0,0.0,0.0,0.0,0.0,0.0,0.0,0.0,0.0,0.0,0.0,0.0,0.0,0.0,0.0,0.0,0.0,0.0,0.0,0.0,0.0,0.0,0.0,0.0,0.0,0.0,0.0,0.0,0.0,0.0,0.0,0.0,0.0,0.0,0.0,0.0,0.0,0.0,0.0,0.0,0.0,0.0,0.0,0.0,0.0,0.0,0.0,0.0,0.0,0.0,0.0,0.0,0.0,0.0,0.0,0.0,0.0,0.0,0.0,0.0,0.0,0.0,0.0,0.0,0.0,0.0,0.0,0.0,0.0,0.0,0.0,0.0,0.0,0.0,0.0,0.0,0.0,0.0,0.0,0.0,0.0,0.0,0.0,0.0,-1.7362,-1.7389,-1.7338,0.0,0.0,0.0,0.0,0.0,0.0,0.0,0.0,0.0,0.0,0.0,0.0,0.0,0.0,0.0,0.0,0.0,0.0,0.0,0.0,0.0,0.0,0.0,0.0,0.0,0.0,0.0,0.0,0.0,0.0,0.0,0.0,0.0,0.0,0.0,0.0,0.0,0.0,0.0,0.0,0.0,0.0,0.0,0.0,0.0,0.0,0.0,0.0,0.0,0.0,0.0,0.0,0.0,0.0,0.0,0.0,0.0,0.0,0.0,0.0,0.0,0.0,0.0,0.0,0.0,0.0,0.0,0.0,0.0,0.0,0.0,0.0,0.0,0.0,0.0,0.0,0.0,0.0,0.0,0.0,0.0,0.0,0.0,0.0,0.0,0.0,0.0,0.0,0.0,0.0,0.0,0.0,0.0,0.0,0.0,0.0,0.0,0.0,0.0,0.0,0.0,0.0,0.0,0.0,0.0,0.0,0.0,0.0,0.0,0.0,-1.7359,-1.731,-1.7843,0.0,-1.7986,0.0,0.0,0.0,0.0,0.0,0.0,0.0,0.0,0.0,0.0,0.0,0.0,0.0,0.0,0.0,0.0,0.0,0.0,0.0,0.0,0.0,0.0,0.0,0.0,0.0,0.0,0.0,0.0,0.0,0.0,0.0,0.0,0.0,0.0,0.0,0.0,0.0,0.0,0.0,0.0,0.0,0.0,0.0,0.0,0.0,0.0,0.0,0.0,0.0,0.0,0.0,0.0,0.0,0.0,0.0,0.0,0.0,0.0,0.0,0.0,0.0,0.0,0.0,0.0,0.0,0.0,0.0,0.0,0.0,0.0,0.0,0.0,0.0,0.0,0.0,0.0,0.0,0.0,0.0,0.0,0.0,0.0,0.0,0.0,0.0,0.0,0.0,0.0,0.0,0.0,0.0,0.0,0.0,0.0,0.0,0.0,0.0,0.0,0.0,0.0,0.0,0.0,0.0,0.0,0.0,0.0,0.0,0.0,0.0,0.0,-1.8155,-1.8476,-1.873,-1.8624,0.0,0.0,0.0,0.0,0.0,0.0,0.0,0.0,0.0,0.0,0.0,0.0,0.0,0.0,0.0,0.0,0.0,0.0,0.0,0.0,0.0,0.0,0.0,0.0,0.0,0.0,0.0,0.0,0.0,0.0,0.0,0.0,0.0,0.0,0.0,0.0,0.0,0.0,0.0,0.0,0.0,0.0,0.0,0.0,0.0,0.0,0.0,0.0,0.0,0.0,0.0,0.0,0.0,0.0,0.0,0.0,0.0,0.0,0.0,0.0,0.0,0.0,0.0,0.0,0.0,0.0,0.0,0.0,0.0,0.0,0.0,0.0,0.0,0.0,0.0,0.0,0.0,0.0,0.0,0.0,0.0,0.0,0.0,0.0,0.0,0.0,0.0,0.0,0.0,0.0,0.0,0.0,0.0,0.0,0.0,0.0,0.0,0.0,0.0,0.0,0.0,0.0,0.0,0.0,0.0,0.0,0.0,0.0,0.0,0.0,-1.8759,-1.9282,-1.9794,-1.9483,-1.9112,-1.8718,0.0,0.0,0.0,0.0,0.0,0.0,0.0,0.0,0.0,0.0,0.0,0.0,0.0,0.0,0.0,0.0,0.0,0.0,0.0,0.0,0.0,0.0,0.0,0.0,0.0,0.0,0.0,0.0,0.0,0.0,0.0,0.0,0.0,0.0,0.0,0.0,0.0,0.0,0.0,0.0,0.0,0.0,0.0,0.0,0.0,0.0,0.0,0.0,0.0,0.0,0.0,0.0,0.0,0.0,0.0,0.0,0.0,0.0,0.0,0.0,0.0,0.0,0.0,0.0,0.0,0.0,0.0,0.0,0.0,0.0,0.0,0.0,0.0,0.0,0.0,0.0,0.0,0.0,0.0,0.0,0.0,0.0,0.0,0.0,0.0,0.0,0.0,0.0,0.0,0.0,0.0,0.0,0.0,0.0,0.0,0.0,0.0,0.0,0.0,0.0,0.0,0.0,0.0,0.0,0.0,0.0,0.0,0.0,-1.8489,-1.975,-2.0664,-2.1179,-1.9989,-1.9585,0.0,0.0,0.0,0.0,0.0,0.0,0.0,0.0,0.0,0.0,0.0,0.0,0.0,0.0,0.0,0.0,0.0,0.0,0.0,0.0,0.0,0.0,0.0,0.0,0.0,0.0,0.0,0.0,0.0,0.0,0.0,0.0,0.0,0.0,0.0,0.0,0.0,0.0,0.0,0.0,0.0,0.0,0.0,0.0,0.0,0.0,0.0,0.0,0.0,0.0,0.0,0.0,0.0,0.0,0.0,0.0,0.0,0.0,0.0,0.0,0.0,0.0,0.0,0.0,0.0,0.0,0.0,0.0,0.0,0.0,0.0,0.0,0.0,0.0,0.0,0.0,0.0,0.0,0.0,0.0,0.0,0.0,0.0,0.0,0.0,0.0,0.0,0.0,0.0,0.0,0.0,0.0,0.0,0.0,0.0,0.0,0.0,0.0,0.0,0.0,0.0,0.0,0.0,0.0,0.0,0.0,0.0,0.0,0.0,-2.0492,-2.1803,-2.2573,-2.2686,-2.2264,-2.1728,0.0,0.0,0.0,0.0,0.0,0.0,0.0,0.0,0.0,0.0,0.0,0.0,0.0,0.0,0.0,0.0,0.0,0.0,0.0,0.0,0.0,0.0,0.0,0.0,0.0,0.0,0.0,0.0,0.0,0.0,0.0,0.0,0.0,0.0,0.0,0.0,0.0,0.0,0.0,0.0,0.0,0.0,0.0,0.0,0.0,0.0,0.0,0.0,0.0,0.0,0.0,0.0,0.0,0.0,0.0,0.0,0.0,0.0,0.0,0.0,0.0,0.0,0.0,0.0,0.0,0.0,0.0,0.0,0.0,0.0,0.0,0.0,0.0,0.0,0.0,0.0,0.0,0.0,0.0,0.0,0.0,0.0,0.0,0.0,0.0,0.0,0.0,0.0,0.0,0.0,0.0,0.0,0.0,0.0,0.0,0.0,0.0,0.0,0.0,0.0,0.0,0.0,0.0,0.0,0.0,0.0,0.0,0.0,0.0,-2.2666,-2.3292,-2.3696,-2.3805,-2.3645,-2.306,0.0,0.0,0.0,0.0,0.0,0.0,0.0,0.0,0.0,0.0,0.0,0.0,0.0,0.0,0.0,0.0,0.0,0.0,0.0,0.0,0.0,0.0,0.0,0.0,0.0,0.0,0.0,0.0,0.0,0.0,0.0,0.0,0.0,0.0,0.0,0.0,0.0,0.0,0.0,0.0,0.0,0.0,0.0,0.0,0.0,0.0,0.0,0.0,0.0,0.0,0.0,0.0,0.0,0.0,0.0,0.0,0.0,0.0,0.0,0.0,0.0,0.0,0.0,0.0,0.0,0.0,0.0,0.0,0.0,0.0,0.0,0.0,0.0,0.0,0.0,0.0,0.0,0.0,0.0,0.0,0.0,0.0,0.0,0.0,0.0,0.0,0.0,0.0,0.0,0.0,0.0,0.0,0.0,0.0,0.0,0.0,0.0,0.0,0.0,0.0,0.0,0.0,0.0,0.0,0.0,0.0,0.0,0.0,-2.3094,-2.4775,-2.411,-2.407,-2.45,-2.395,-2.3561,0.0,0.0,0.0,0.0,0.0,0.0,0.0,0.0,0.0,0.0,0.0,0.0,0.0,0.0,0.0,0.0,0.0,0.0,0.0,0.0,0.0,0.0,0.0,0.0,0.0,0.0,0.0,0.0,0.0,0.0,0.0,0.0,0.0,0.0,0.0,0.0,0.0,0.0,0.0,0.0,0.0,0.0,0.0,0.0,0.0,0.0,0.0,0.0,0.0,0.0,0.0,0.0,0.0,0.0,0.0,0.0,0.0,0.0,0.0,0.0,0.0,0.0,0.0,0.0,0.0,0.0,0.0,0.0,0.0,0.0,0.0,0.0,0.0,0.0,0.0,0.0,0.0,0.0,0.0,0.0,0.0,0.0,0.0,0.0,0.0,0.0,0.0,0.0,0.0,0.0,0.0,0.0,0.0,0.0,0.0,0.0,0.0,0.0,0.0,0.0,0.0,0.0,0.0,0.0,0.0,0.0,0.0,0.0,0.0,-2.5664,-2.6293,-2.6664,-2.6685,-2.6037,-2.5491,0.0,0.0,0.0,0.0,0.0,0.0,0.0,0.0,0.0,0.0,0.0,0.0,0.0,0.0,0.0,0.0,0.0,0.0,0.0,0.0,0.0,0.0,0.0,0.0,0.0,0.0,0.0,0.0,0.0,0.0,0.0,0.0,0.0,0.0,0.0,0.0,0.0,0.0,0.0,0.0,0.0,0.0,0.0,0.0,0.0,0.0,0.0,0.0,0.0,0.0,0.0,0.0,0.0,0.0,0.0,0.0,0.0,0.0,0.0,0.0,0.0,0.0,0.0,0.0,0.0,0.0,0.0,0.0,0.0,0.0,0.0,0.0,0.0,0.0,0.0,0.0,0.0,0.0,0.0,0.0,0.0,0.0,0.0,0.0,0.0,0.0,0.0,0.0,0.0,0.0,0.0,0.0,0.0,0.0,0.0,0.0,0.0,0.0,0.0,0.0,0.0,0.0,0.0,0.0,0.0,0.0,0.0,0.0,0.0,-2.8127,-2.8622,-2.894,-2.8971,-2.8322,-2.7517,-2.6515,0.0,0.0,0.0,0.0,0.0,0.0,0.0,0.0,0.0,0.0,0.0,0.0,0.0,0.0,0.0,0.0,0.0,0.0,0.0,0.0,0.0,0.0,0.0,0.0,0.0,0.0,0.0,0.0,0.0,0.0,0.0,0.0,0.0,0.0,0.0,0.0,0.0,0.0,0.0,0.0,0.0,0.0,0.0,0.0,0.0,0.0,0.0,0.0,0.0,0.0,0.0,0.0,0.0,0.0,0.0,0.0,0.0,0.0,0.0,0.0,0.0,0.0,0.0,0.0,0.0,0.0,0.0,0.0,0.0,0.0,0.0,0.0,0.0,0.0,0.0,0.0,0.0,0.0,0.0,0.0,0.0,0.0,0.0,0.0,0.0,0.0,0.0,0.0,0.0,0.0,0.0,0.0,0.0,0.0,0.0,0.0,0.0,0.0,0.0,0.0,0.0,0.0,0.0,0.0,0.0,0.0,0.0,0.0,-3.1802,-3.1087,-3.0915,-3.125,-3.0533,-2.9489,0.0,0.0,0.0,0.0,0.0,0.0,0.0,0.0,0.0,0.0,0.0,0.0,0.0,0.0,0.0,0.0,0.0,0.0,0.0,0.0,0.0,0.0,0.0,0.0,0.0,0.0,0.0,0.0,0.0,0.0,0.0,0.0,0.0,0.0,0.0,0.0,0.0,0.0,0.0,0.0,0.0,0.0,0.0,0.0,0.0,0.0,0.0,0.0,0.0,0.0,0.0,0.0,0.0,0.0,0.0,0.0,0.0,0.0,0.0,0.0,0.0,0.0,0.0,0.0,0.0,0.0,0.0,0.0,0.0,0.0,0.0,0.0,0.0,0.0,0.0,0.0,0.0,0.0,0.0,0.0,0.0,0.0,0.0,0.0,0.0,0.0,0.0,0.0,0.0,0.0,0.0,0.0,0.0,0.0,0.0,0.0,0.0,0.0,0.0,0.0,0.0,0.0,0.0,0.0,0.0,0.0,0.0,0.0,0.0,-3.406,-3.4409,-3.4173,-3.3445,-3.1873,-3.0522,0.0,0.0,0.0,0.0,0.0,0.0,0.0,0.0,0.0,0.0,0.0,0.0,0.0,0.0,0.0,0.0,0.0,0.0,0.0,0.0,0.0,0.0,0.0,0.0,0.0,0.0,0.0,0.0,0.0,0.0,0.0,0.0,0.0,0.0,0.0,0.0,0.0,0.0,0.0,0.0,0.0,0.0,0.0,0.0,0.0,0.0,0.0,0.0,0.0,0.0,0.0,0.0,0.0,0.0,0.0,0.0,0.0,0.0,0.0,0.0,0.0,0.0,0.0,0.0,0.0,0.0,0.0,0.0,0.0,0.0,0.0,0.0,0.0,0.0,0.0,0.0,0.0,0.0,0.0,0.0,0.0,0.0,0.0,0.0,0.0,0.0,0.0,0.0,0.0,0.0,0.0,0.0,0.0,0.0,0.0,0.0,0.0,0.0,0.0,0.0,0.0,0.0,0.0,0.0,0.0,0.0,0.0,0.0,-3.2729,-3.4968,-3.5991,-3.6092,-3.5389,-3.3365,-3.1779,0.0,0.0,0.0,0.0,0.0,0.0,0.0,0.0,0.0,0.0,0.0,0.0,0.0,0.0,0.0,0.0,0.0,0.0,0.0,0.0,0.0,0.0,0.0,0.0,0.0,0.0,0.0,0.0,0.0,0.0,0.0,0.0,0.0,0.0,0.0,0.0,0.0,0.0,0.0,0.0,0.0,0.0,0.0,0.0,0.0,0.0,0.0,0.0,0.0,0.0,0.0,0.0,0.0,0.0,0.0,0.0,0.0,0.0,0.0,0.0,0.0,0.0,0.0,0.0,0.0,0.0,0.0,0.0,0.0,0.0,0.0,0.0,0.0,0.0,0.0,0.0,0.0,0.0,0.0,0.0,0.0,0.0,0.0,0.0,0.0,0.0,0.0,0.0,0.0,0.0,0.0,0.0,0.0,0.0,0.0,0.0,0.0,0.0,0.0,0.0,0.0,0.0,0.0,0.0,0.0,0.0,0.0,0.0,-3.3582,-3.4982,-3.6307,-3.6985,-3.6858,-3.4847,-3.3044,0.0,0.0,0.0,0.0,0.0,0.0,0.0,0.0,0.0,0.0,0.0,0.0,0.0,0.0,0.0,0.0,0.0,0.0,0.0,0.0,0.0,0.0,0.0,0.0,0.0,0.0,0.0,0.0,0.0,0.0,0.0,0.0,0.0,0.0,0.0,0.0,0.0,0.0,0.0,0.0,0.0,0.0,0.0,0.0,0.0,0.0,0.0,0.0,0.0,0.0,0.0,0.0,0.0,0.0,0.0,0.0,0.0,0.0,0.0,0.0,0.0,0.0,0.0,0.0,0.0,0.0,0.0,0.0,0.0,0.0,0.0,0.0,0.0,0.0,0.0,0.0,0.0,0.0,0.0,0.0,0.0,0.0,0.0,0.0,0.0,0.0,0.0,0.0,0.0,0.0,0.0,0.0,0.0,0.0,0.0,0.0,0.0,0.0,0.0,0.0,0.0,0.0,0.0,0.0,0.0,0.0,0.0,0.0,-3.3736,-3.5711,-3.6075,-3.6481,-3.7018,-3.5463,-3.3895,0.0,0.0,0.0,0.0,0.0,0.0,0.0,0.0,0.0,0.0,0.0,0.0,0.0,0.0,0.0,0.0,0.0,0.0,0.0,0.0,0.0,0.0,0.0,0.0,0.0,0.0,0.0,0.0,0.0,0.0,0.0,0.0,0.0,0.0,0.0,0.0,0.0,0.0,0.0,0.0,0.0,0.0,0.0,0.0,0.0,0.0,0.0,0.0,-2.2267,0.0,0.0,0.0,0.0,0.0,0.0,0.0,0.0,0.0,0.0,0.0,0.0,0.0,0.0,0.0,0.0,0.0,0.0,0.0,0.0,0.0,0.0,0.0,0.0,0.0,0.0,0.0,0.0,0.0,0.0,0.0,0.0,0.0,0.0,0.0,0.0,0.0,0.0,0.0,0.0,0.0,0.0,0.0,0.0,0.0,0.0,0.0,0.0,0.0,0.0,0.0,0.0,0.0,0.0,0.0,0.0,0.0,0.0,0.0,-3.4356,-3.6406,-3.6174,-3.634,-3.7036,-3.6009,-3.4528,0.0,0.0,0.0,0.0,0.0,0.0,0.0,0.0,0.0,0.0,0.0,0.0,0.0,0.0,0.0,0.0,0.0,0.0,0.0,0.0,0.0,0.0,0.0,0.0,0.0,0.0,0.0,0.0,0.0,0.0,0.0,0.0,0.0,0.0,0.0,0.0,0.0,0.0,0.0,0.0,0.0,0.0,0.0,0.0,0.0,0.0,0.0,0.0,0.0,0.0,0.0,0.0,0.0,0.0,0.0,0.0,0.0,0.0,0.0,0.0,0.0,0.0,0.0,0.0,0.0,0.0,0.0,0.0,0.0,0.0,0.0,0.0,0.0,0.0,0.0,0.0,0.0,0.0,0.0,0.0,0.0,0.0,0.0,0.0,0.0,0.0,0.0,0.0,0.0,0.0,0.0,0.0,0.0,0.0,0.0,0.0,0.0,0.0,0.0,0.0,0.0,0.0,0.0,0.0,0.0,0.0,0.0,-3.3684,-3.5357,-3.7301,-3.6837,-3.6738,-3.7235,-3.6439,-3.5015,-3.2928,0.0,0.0,0.0,0.0,0.0,0.0,0.0,0.0,0.0,0.0,0.0,0.0,0.0,0.0,0.0,0.0,0.0,0.0,0.0,0.0,0.0,0.0,0.0,0.0,0.0,0.0,0.0,0.0,0.0,0.0,0.0,0.0,0.0,0.0,0.0,0.0,0.0,0.0,-2.3463,-2.4163,0.0,0.0,0.0,0.0,0.0,0.0,0.0,0.0,-2.5031,0.0,0.0,0.0,0.0,0.0,0.0,0.0,0.0,0.0,0.0,0.0,0.0,0.0,0.0,0.0,0.0,0.0,0.0,0.0,0.0,0.0,0.0,0.0,0.0,0.0,0.0,0.0,0.0,0.0,0.0,0.0,0.0,0.0,0.0,0.0,0.0,0.0,0.0,0.0,0.0,0.0,0.0,0.0,0.0,0.0,0.0,0.0,0.0,0.0,0.0,0.0,0.0,0.0,0.0,0.0,0.0,-3.3928,-3.5198,-3.6829,-3.8884,-3.8851,-3.8493,-3.803,-3.6704,-3.5247,-3.3657,0.0,0.0,0.0,0.0,0.0,0.0,0.0,0.0,0.0,0.0,0.0,0.0,0.0,0.0,0.0,0.0,0.0,0.0,0.0,0.0,0.0,0.0,0.0,0.0,0.0,0.0,0.0,0.0,0.0,0.0,0.0,0.0,0.0,0.0,0.0,0.0,0.0,0.0,0.0,-2.6301,-2.6807,0.0,0.0,0.0,0.0,0.0,0.0,0.0,0.0,-2.5708,0.0,0.0,0.0,0.0,0.0,0.0,0.0,0.0,0.0,0.0,0.0,0.0,0.0,0.0,0.0,0.0,0.0,0.0,0.0,0.0,0.0,0.0,0.0,0.0,0.0,0.0,0.0,0.0,0.0,0.0,0.0,0.0,0.0,0.0,0.0,0.0,0.0,0.0,0.0,0.0,0.0,0.0,0.0,0.0,0.0,0.0,0.0,0.0,0.0,0.0,0.0,0.0,0.0,0.0,0.0,-3.4891,-3.6525,-3.8184,-3.9779,-3.9481,-3.9116,-3.8758,-3.7334,-3.5711,0.0,0.0,0.0,0.0,0.0,0.0,0.0,0.0,0.0,0.0,0.0,0.0,0.0,0.0,0.0,0.0,0.0,0.0,0.0,0.0,0.0,0.0,0.0,0.0,0.0,0.0,0.0,0.0,0.0,0.0,0.0,0.0,0.0,0.0,0.0,0.0,0.0,0.0,0.0,0.0,-2.7427,-2.7962,-2.9448,0.0,0.0,0.0,0.0,0.0,0.0,-2.8556,-2.7642,0.0,0.0,0.0,0.0,0.0,0.0,0.0,0.0,0.0,0.0,0.0,0.0,0.0,0.0,0.0,0.0,0.0,0.0,0.0,0.0,0.0,0.0,0.0,0.0,0.0,0.0,0.0,0.0,0.0,0.0,0.0,0.0,0.0,0.0,0.0,0.0,0.0,0.0,0.0,0.0,0.0,0.0,0.0,0.0,0.0,0.0,0.0,0.0,0.0,0.0,0.0,0.0,0.0,0.0,0.0,-3.5982,-3.7844,-3.9388,-4.0509,-4.0044,-3.968,-3.9514,-3.7963,-3.6141,0.0,0.0,0.0,0.0,0.0,0.0,0.0,0.0,0.0,0.0,0.0,0.0,0.0,0.0,0.0,0.0,0.0,0.0,0.0,0.0,0.0,0.0,0.0,0.0,0.0,0.0,0.0,0.0,0.0,0.0,0.0,0.0,0.0,0.0,0.0,0.0,0.0,0.0,0.0,0.0,0.0,-2.8872,-3.0697,-2.9985,0.0,0.0,0.0,0.0,-3.1299,-3.0516,0.0,0.0,0.0,0.0,0.0,0.0,0.0,0.0,0.0,0.0,0.0,0.0,0.0,0.0,0.0,0.0,0.0,0.0,0.0,0.0,0.0,0.0,0.0,0.0,0.0,0.0,0.0,0.0,0.0,0.0,0.0,0.0,0.0,0.0,0.0,0.0,0.0,0.0,0.0,0.0,0.0,0.0,0.0,0.0,0.0,0.0,0.0,0.0,0.0,0.0,0.0,0.0,0.0,0.0,0.0,0.0,-3.7587,-3.9376,-4.0618,-4.1243,-4.121,-4.0878,-4.0249,-3.8228,-3.6373,0.0,0.0,0.0,0.0,0.0,0.0,0.0,0.0,0.0,0.0,0.0,0.0,0.0,0.0,0.0,0.0,0.0,0.0,0.0,0.0,0.0,0.0,0.0,0.0,0.0,0.0,0.0,0.0,0.0,0.0,0.0,0.0,0.0,0.0,0.0,0.0,0.0,0.0,0.0,0.0,0.0,-2.9879,-3.2302,-3.1782,-3.1453,0.0,0.0,-3.2701,-3.2308,-3.2554,0.0,0.0,0.0,0.0,0.0,0.0,0.0,0.0,0.0,0.0,0.0,0.0,0.0,0.0,0.0,0.0,0.0,0.0,0.0,0.0,0.0,0.0,0.0,0.0,0.0,0.0,0.0,0.0,0.0,0.0,0.0,0.0,0.0,0.0,0.0,0.0,0.0,0.0,0.0,0.0,0.0,0.0,0.0,0.0,0.0,0.0,0.0,0.0,0.0,0.0,0.0,0.0,0.0,0.0,0.0,-3.5587,-3.7926,-4.0802,-4.1967,-4.1446,-4.2208,-4.2137,-4.0978,-3.9255,-3.7632,0.0,0.0,0.0,0.0,0.0,0.0,0.0,0.0,0.0,0.0,0.0,0.0,0.0,0.0,0.0,0.0,0.0,0.0,0.0,0.0,0.0,0.0,0.0,0.0,0.0,0.0,0.0,0.0,0.0,0.0,0.0,0.0,0.0,0.0,0.0,0.0,0.0,0.0,0.0,0.0,0.0,0.0,-3.323,-3.3022,0.0,0.0,0.0,-3.3319,-3.3403,0.0,0.0,0.0,0.0,0.0,0.0,0.0,0.0,0.0,0.0,0.0,0.0,0.0,0.0,0.0,0.0,0.0,0.0,0.0,0.0,0.0,0.0,0.0,0.0,0.0,0.0,0.0,0.0,0.0,0.0,0.0,0.0,0.0,0.0,0.0,0.0,0.0,0.0,0.0,0.0,0.0,0.0,0.0,0.0,0.0,0.0,0.0,0.0,0.0,0.0,0.0,0.0,0.0,0.0,0.0,0.0,0.0,-3.8516,-4.1683,-4.2771,-4.1744,-4.2539,-4.2506,-4.1413,-4.0216,0.0,0.0,0.0,0.0,0.0,0.0,0.0,0.0,0.0,0.0,0.0,0.0,0.0,0.0,0.0,0.0,0.0,0.0,0.0,0.0,0.0,0.0,0.0,0.0,0.0,0.0,0.0,-2.1894,0.0,0.0,0.0,0.0,0.0,0.0,0.0,0.0,0.0,0.0,0.0,0.0,0.0,0.0,-3.3144,-3.4185,-3.4339,-3.4534,0.0,0.0,-3.4312,-3.4764,-3.5102,-3.482,0.0,0.0,0.0,0.0,0.0,0.0,0.0,0.0,0.0,0.0,0.0,0.0,0.0,0.0,0.0,0.0,0.0,0.0,0.0,0.0,0.0,0.0,0.0,0.0,0.0,0.0,0.0,0.0,0.0,0.0,0.0,0.0,0.0,0.0,0.0,0.0,0.0,0.0,0.0,0.0,0.0,0.0,0.0,0.0,0.0,0.0,0.0,0.0,0.0,0.0,0.0,0.0,0.0,0.0,-3.806,-4.0109,-4.1738,-4.2539,-4.2406,-4.1844,-4.1508,-4.1409,-4.068,-3.9322,0.0,0.0,0.0,0.0,0.0,0.0,0.0,0.0,0.0,0.0,0.0,0.0,0.0,0.0,0.0,0.0,0.0,0.0,0.0,0.0,0.0,0.0,0.0,0.0,0.0,0.0,0.0,0.0,0.0,0.0,0.0,0.0,0.0,0.0,0.0,0.0,0.0,0.0,0.0,0.0,0.0,-3.4017,-3.5302,-3.6065,-3.6585,0.0,0.0,-3.6473,-3.6502,-3.7539,-3.7605,-3.5634,0.0,0.0,0.0,0.0,0.0,0.0,0.0,0.0,0.0,0.0,0.0,0.0,0.0,0.0,0.0,0.0,0.0,0.0,0.0,0.0,0.0,0.0,0.0,0.0,0.0,0.0,0.0,0.0,0.0,0.0,0.0,0.0,0.0,0.0,0.0,0.0,0.0,0.0,0.0,0.0,0.0,0.0,0.0,0.0,0.0,0.0,0.0,0.0,0.0,0.0,0.0,0.0,0.0,-3.8629,-4.0353,-4.3136,-4.3893,-4.2601,-4.3098,-4.323,-4.2738,-4.2042,-4.0878,0.0,0.0,0.0,0.0,0.0,0.0,0.0,0.0,0.0,0.0,0.0,0.0,0.0,0.0,0.0,0.0,0.0,0.0,0.0,0.0,0.0,0.0,0.0,0.0,0.0,0.0,0.0,0.0,-3.2514,-3.3548,-3.3176,0.0,0.0,0.0,0.0,0.0,0.0,0.0,0.0,0.0,0.0,-3.5771,-3.7565,-3.7647,0.0,0.0,-3.7978,-3.7892,-3.7892,-3.8263,-3.8167,-3.6978,-3.6151,0.0,0.0,0.0,0.0,0.0,0.0,0.0,0.0,0.0,0.0,0.0,0.0,0.0,0.0,0.0,0.0,0.0,0.0,0.0,0.0,0.0,0.0,0.0,0.0,0.0,0.0,0.0,0.0,0.0,0.0,0.0,0.0,0.0,0.0,0.0,0.0,0.0,0.0,0.0,0.0,0.0,0.0,0.0,0.0,0.0,0.0,0.0,0.0,0.0,0.0,0.0,0.0,-3.9518,-4.0719,-4.4073,-4.4953,-4.3168,-4.439,-4.4754,-4.4257,-4.3562,-4.2502,0.0,0.0,0.0,0.0,0.0,0.0,0.0,0.0,0.0,0.0,0.0,0.0,0.0,0.0,0.0,0.0,0.0,0.0,0.0,0.0,0.0,0.0,0.0,0.0,0.0,0.0,0.0,0.0,-3.4873,-3.5792,-3.4673,0.0,0.0,0.0,0.0,0.0,0.0,0.0,0.0,0.0,0.0,-3.8307,-3.9616,-3.956,-3.9428,-3.9537,-3.9373,-3.9246,-3.9207,-3.9312,-3.9157,-3.837,0.0,0.0,0.0,0.0,0.0,0.0,0.0,0.0,0.0,0.0,0.0,0.0,0.0,0.0,0.0,0.0,0.0,0.0,0.0,0.0,0.0,0.0,0.0,0.0,0.0,0.0,0.0,0.0,0.0,0.0,-2.4809,0.0,0.0,0.0,0.0,0.0,0.0,0.0,0.0,0.0,0.0,0.0,0.0,0.0,0.0,0.0,0.0,0.0,0.0,0.0,0.0,0.0,0.0,-4.0808,-4.1512,-4.434,-4.5417,-4.4688,-4.5384,-4.5748,-4.5682,-4.5019,-4.3959,-4.2473,0.0,0.0,0.0,0.0,0.0,0.0,0.0,0.0,0.0,0.0,0.0,0.0,0.0,0.0,0.0,0.0,0.0,0.0,0.0,0.0,0.0,0.0,0.0,0.0,0.0,0.0,-3.155,-3.3964,-3.5618,0.0,0.0,0.0,0.0,0.0,0.0,0.0,0.0,0.0,0.0,-4.0712,-4.1643,-4.1342,-4.194,-4.2068,-4.1216,-4.0897,-4.0694,-4.0559,-4.0958,-4.0975,0.0,0.0,0.0,0.0,0.0,0.0,0.0,0.0,0.0,0.0,0.0,0.0,0.0,0.0,0.0,0.0,0.0,0.0,0.0,0.0,0.0,0.0,0.0,0.0,0.0,0.0,0.0,-2.9952,-3.0097,0.0,0.0,0.0,0.0,0.0,0.0,0.0,0.0,0.0,0.0,0.0,-3.7739,-3.7232,0.0,0.0,0.0,0.0,0.0,0.0,0.0,0.0,0.0,0.0,0.0,0.0,-4.2149,-4.362,-4.5165,-4.5742,-4.5417,-4.5649,-4.5781,-4.5781,-4.5549,-4.4754,-4.3267,0.0,0.0,0.0,0.0,0.0,0.0,0.0,0.0,0.0,0.0,0.0,0.0,0.0,0.0,0.0,0.0,0.0,0.0,0.0,0.0,0.0,0.0,0.0,0.0,0.0,-3.3829,0.0,0.0,0.0,0.0,0.0,0.0,0.0,0.0,0.0,0.0,0.0,-4.0259,-4.1934,-4.2069,-4.2341,-4.3087,-4.3084,-4.3183,0.0,0.0,0.0,0.0,0.0,0.0,0.0,0.0,0.0,0.0,0.0,0.0,0.0,0.0,-3.8418,-3.6,-3.5722,-3.5695,-3.5246,0.0,0.0,0.0,0.0,0.0,0.0,0.0,0.0,0.0,0.0,0.0,0.0,0.0,0.0,-3.4443,0.0,-3.4154,0.0,0.0,0.0,0.0,0.0,0.0,0.0,0.0,-3.8826,-3.9767,-4.1017,-4.0492,-4.0238,0.0,-3.9966,-3.8753,0.0,0.0,0.0,0.0,0.0,0.0,0.0,0.0,-4.3606,-4.4803,-4.6424,-4.7093,-4.6766,-4.7168,-4.7402,-4.7368,-4.684,-4.5881,-4.4423,-4.2767,-4.0978,0.0,0.0,0.0,0.0,0.0,0.0,0.0,0.0,0.0,0.0,0.0,0.0,0.0,0.0,0.0,0.0,0.0,0.0,0.0,0.0,0.0,0.0,0.0,-3.6348,0.0,0.0,0.0,0.0,0.0,0.0,0.0,0.0,0.0,-4.0123,-4.1484,-4.3073,-4.4599,-4.4424,-4.4358,-4.4843,0.0,0.0,0.0,0.0,0.0,0.0,0.0,-4.2573,-4.2555,-4.2597,-4.2548,-4.2453,-4.2586,-4.276,-4.276,0.0,0.0,-3.9178,-3.8638,-3.8596,-3.841,-3.8025,-3.7575,-3.6857,-3.6674,-3.6271,0.0,0.0,0.0,0.0,0.0,0.0,0.0,0.0,-3.8389,-3.8807,0.0,-3.9405,0.0,0.0,0.0,0.0,0.0,-3.8355,0.0,0.0,-4.3751,-4.491,-4.4222,-4.415,-4.4186,-4.415,-4.3389,-4.3082,-4.2973,-4.0818,0.0,0.0,0.0,0.0,0.0,0.0,-4.5123,-4.5152,-4.7992,-4.922,-4.8617,-4.9725,-5.0359,-5.0326,-4.8829,-4.7371,-4.5947,-4.5216,-4.4092,-4.2572,-3.9885,0.0,0.0,0.0,0.0,0.0,0.0,0.0,0.0,0.0,0.0,0.0,0.0,0.0,0.0,0.0,0.0,0.0,0.0,0.0,0.0,-3.5943,0.0,0.0,0.0,0.0,0.0,0.0,0.0,0.0,0.0,0.0,-4.3186,-4.4267,-4.5635,-4.6864,0.0,0.0,0.0,0.0,-4.6729,-4.5577,-4.5123,-4.5001,-4.5157,-4.478,-4.4485,-4.4684,0.0,0.0,-4.4908,-4.4443,-4.4037,-4.4066,-4.4501,-4.4327,-4.2528,-4.155,-4.0982,-4.0748,-4.0417,-3.9901,-3.9521,-3.9546,-3.9301,-4.2014,0.0,0.0,0.0,0.0,-3.9459,-4.0401,-4.1615,-4.2176,-4.2539,-4.2737,-4.2158,0.0,0.0,0.0,0.0,0.0,0.0,-4.2067,-4.3932,-4.4874,-4.578,-4.6649,-4.6685,-4.6685,-4.6649,-4.6432,-4.6939,-4.7938,-4.6794,-4.5172,-4.3224,0.0,0.0,0.0,0.0,-4.6206,-4.7751,-4.8627,-4.9349,-5.0056,-5.0426,-5.0527,-5.0426,-4.9493,-4.8729,-4.8166,-4.7566,-4.6269,-4.4158,-4.2916,0.0,0.0,0.0,0.0,0.0,0.0,0.0,0.0,0.0,0.0,0.0,0.0,0.0,0.0,0.0,0.0,0.0,0.0,0.0,-3.7525,-3.9189,-4.0017,0.0,0.0,0.0,0.0,0.0,0.0,0.0,0.0,0.0,-4.7177,-4.7012,-4.7141,0.0,0.0,-4.8129,-4.8095,-4.8325,-4.8582,-4.8689,-4.7978,0.0,-4.8168,-4.7355,-4.6562,-4.6321,-4.6033,-4.5782,-4.5651,-4.5459,-4.5343,-4.5343,-4.5488,-4.543,-4.4937,-4.4603,-4.4385,-4.437,-4.4238,-4.3856,-4.3065,-4.2904,-4.2482,-4.6323,-4.4838,-4.281,-4.2303,-4.2899,-4.3406,-4.4239,-4.5309,-4.578,-4.5997,-4.5997,-4.5836,-4.5128,-4.4022,-4.3225,0.0,0.0,0.0,-4.5035,-4.6757,-4.7047,-4.7699,-4.8605,-4.833,-4.8511,-4.9112,-4.8786,-4.9474,-5.1054,-5.0516,-4.9211,-4.7104,0.0,0.0,-4.6534,-4.7133,-4.8133,-4.9511,-5.0218,-5.0839,-5.1328,-5.1564,-5.1464,-5.0994,-5.056,-5.0159,-4.9759,-4.9125,-4.8157,-4.6695,-4.522,-4.3108,0.0,0.0,0.0,0.0,0.0,0.0,0.0,0.0,0.0,0.0,0.0,-3.1016,-3.0597,0.0,0.0,0.0,-3.7566,-3.9355,-4.1271,-4.1939,0.0,0.0,0.0,0.0,0.0,0.0,0.0,-4.4856,-4.6609,-4.81,-4.8995,-4.9058,-4.9217,-4.9838,-4.9499,-4.9287,-4.9527,0.0,-4.9867,-5.018,-4.9673,-4.9554,-5.0338,-4.9687,-4.8961,-4.8698,-4.8087,-4.7619,-4.7377,-4.7046,-4.6758,-4.6695,-4.665,-4.665,-4.6621,-4.665,-4.6446,-4.5982,-4.5663,-4.5367,-4.4978,-4.5143,-4.4921,-5.0148,-4.9894,-4.6235,-4.5454,-4.6685,-4.6613,-4.7446,-4.8764,-4.8764,-4.8837,-4.8945,-4.9691,-4.922,-4.7844,-4.7192,0.0,-4.6902,-4.7663,-4.833,-4.909,-4.9836,-5.022,-5.0184,-4.951,-5.0017,-5.143,-5.0669,-5.1126,-5.2625,-5.2495,-5.2354,-5.221,-5.0289,-4.8828,-4.8024,-4.959,-5.0535,-5.0642,-5.2317,-5.2946,-5.2401,-5.2944,-5.2774,-5.1933,-5.1899,-5.1564,-5.0793,-5.0224,-4.9788,-4.952,-4.7074,-4.5295,-4.4452,0.0,0.0,0.0,0.0,0.0,0.0,0.0,0.0,0.0,0.0,0.0,0.0,0.0,0.0,0.0,-4.1574,0.0,-4.4821,-4.4357,0.0,0.0,0.0,-4.5251,-4.598,-4.6709,-4.7173,-4.7173,0.0,0.0,-4.9293,-5.0485,-5.1609,-5.2191,-5.1484,-5.0913,-5.0844,-5.1008,-5.0972,-5.099,-5.0892,-5.1169,-5.2139,-5.1816,-5.1367,-5.1193,-5.0684,-4.9988,-4.9593,-4.8879,-4.8311,-4.7992,-4.7893,-4.7846,-4.78,-4.7742,-4.7451,-4.6301,-4.5634,-4.5372,-4.5937,-4.6442,-4.6483,-5.0474,-5.0945,-4.9981,-4.9112,-4.8315,-4.7663,-4.7606,-4.7968,-4.7989,-4.833,-4.8909,-4.909,-4.9329,-4.9546,-4.9945,-5.0162,-5.0162,-5.0343,-5.0524,-5.0741,-5.0923,-5.1031,-5.1031,-5.143,-5.2154,-5.3023,-5.2299,-5.277,-5.4255,-5.3688,-5.3435,-5.3504,-5.3028,-5.2271,-5.1281,-5.1249,-5.1917,-5.327,-5.2801,-5.2735,-5.3213,-5.3382,-5.3247,-5.2909,-5.2875,-5.2438,-5.1598,-5.2034,-5.1497,-4.9721,-4.9616,-4.8772,-4.6858,-4.4505,0.0,0.0,0.0,0.0,0.0,0.0,0.0,0.0,0.0,-3.6649,-3.6616,0.0,-4.1544,0.0,-4.4318,-4.6212,-4.7139,-4.7073,0.0,0.0,-4.7206,-4.7504,-4.8233,-4.8961,-4.9392,-4.9425,-5.022,-5.075,-5.075,-5.158,-5.2572,-5.3724,-5.3115,-5.2503,-5.2458,-5.3452,-5.4185,-5.4114,-5.4194,-5.4392,-5.4427,-5.3803,-5.3117,-5.2388,-5.2136,-5.1736,-5.0994,-5.0123,-4.9478,-4.9389,-4.8832,-4.8387,-4.8197,-4.8138,-4.7987,-4.7451,-4.7201,-4.7143,-4.7317,-4.7462,-4.7503,-5.143,-5.1792,-5.1466,-5.0778,-4.9945,-4.9872,-4.9836,-4.9836,-4.9836,-5.009,-5.0488,-5.0524,-5.0741,-5.1176,-5.1647,-5.1828,-5.1828,-5.1828,-5.1828,-5.1828,-5.1828,-5.1828,-5.1828,-5.19,-5.2552,-5.3675,-5.2878,-5.3313,-5.4834,-5.4798,-5.476,-5.4907,-5.5266,-5.5117,-5.4532,-5.3618,-5.3683,-5.47,-5.377,-5.3437,-5.3847,-5.3651,-5.3448,-5.3304,-5.3075,-5.2538,-5.1696,-5.1862,-5.1458,-5.0385,-5.018,-4.9673,-4.8728,-4.6941,-4.5616,0.0,0.0,0.0,0.0,0.0,0.0,0.0,0.0,0.0,0.0,0.0,-4.4616,-4.5284,-4.7024,-4.8261,-4.866,-4.8727,-4.8827,-4.9061,-4.936,-4.9825,-5.0485,-5.0916,-5.1183,-5.1181,-5.181,-5.2208,-5.2241,-5.3169,-5.3964,-5.4456,-5.4915,-5.5033,-5.4759,-5.5391,-5.6029,-5.636,-5.6503,-5.6674,-5.6822,-5.6513,-5.5982,-5.548,-5.5077,-5.4562,-5.3988,-5.3133,-5.2373,-5.1789,-5.1271,-5.0773,-5.0217,-5.0074,-4.9948,-4.9756,-4.9688,-4.9203,-4.809,-4.8265,-4.8653,-5.248,-5.2444,-5.1756,-5.1466,-5.1502,-5.219,-5.2371,-5.219,-5.219,-5.2263,-5.2335,-5.2444,-5.248,-5.2516,-5.2625,-5.2661,-5.2661,-5.2661,-5.2625,-5.2661,-5.2552,-5.248,-5.248,-5.1756,-5.2226,-5.3639,-5.2878,-5.3349,-5.5051,-5.5595,-5.5957,-5.6174,-5.6862,-5.7188,-5.7127,-5.6031,-5.547,-5.5396,-5.4887,-5.4579,-5.4485,-5.3946,-5.3673,-5.3614,-5.3046,-5.2386,-5.1739,-5.0992,-5.0762,-5.1046,-4.9862,-4.9523,-5.0135,-4.8849,-4.7868,0.0,-4.5872,0.0,0.0,0.0,0.0,0.0,0.0,0.0,0.0,-4.6032,-4.7477,-4.8817,-4.942,-4.9788,-4.9989,-4.9956,-5.0125,-5.0793,-5.1391,-5.2021,-5.2575,-5.2638,-5.2638,-5.2638,-5.3202,-5.3529,-5.3566,-5.4759,-5.5317,-5.5123,-5.6581,-5.7541,-5.7243,-5.7177,-5.7442,-5.8005,-5.8071,-5.8237,-5.8601,-5.8866,-5.8859,-5.8845,-5.8355,-5.791,-5.7611,-5.6837,-5.5938,-5.49,-5.4402,-5.3892,-5.304,-5.2763,-5.2594,-5.2264,-5.2097,-5.1236,-4.9213,-4.9233,-4.9901,-5.248,-5.248,-5.2335,-5.2263,-5.2263,-5.2444,-5.1756,-5.0546,-5.0524,-5.0923,-5.1574,-5.219,-5.248,-5.2552,-5.3204,-5.3458,-5.3494,-5.3494,-5.3458,-5.3458,-5.2806,-5.248,-5.248,-5.2335,-5.277,-5.3603,-5.2878,-5.3639,-5.5776,-5.5341,-5.574,-5.6935,-5.7116,-5.7188,-5.7188,0.0,0.0,0.0,-5.5665,-5.5513,-5.5009,-5.4734,-5.4575,-5.4468,-5.3756,0.0,-5.2803,-5.2021,-5.1281,-5.0592,-5.0286,0.0,0.0,0.0,0.0,0.0,0.0,0.0,0.0,0.0,0.0,0.0,-4.6895,-4.7031,-4.798,-4.9306,-5.0388,-5.1095,-5.0793,-5.0995,-5.2133,-5.1731,-5.1831,-5.2926,-5.319,-5.3518,-5.3997,-5.4096,-5.4129,-5.4129,-5.4192,-5.4328,-5.4357,-5.5052,-5.5819,-5.6316,-5.7674,-5.88,-5.9297,-5.9297,-5.9396,-5.9562,-5.9595,-5.9396,-5.8966,-5.9496,-5.9926,-5.9819,-6.0242,-6.0331,-6.0238,-5.9577,-5.898,-5.846,-5.7323,-5.6173,-5.564,-5.496,-5.4336,-5.3979,-5.3516,-5.2658,-5.1191,-5.1091,-5.1265,-5.2842,0.0,-5.248,-5.248,0.0,-5.248,-5.2009,-5.1285,-5.1285,-5.1502,-5.19,-5.2299,-5.248,-5.2516,-5.2915,-5.3096,-5.3096,-5.3096,-5.3096,-5.3096,-5.2697,-5.248,-5.248,-5.248,-5.2915,-5.3675,-5.3277,-5.3929,-5.5377,-5.545,-5.5848,-5.6609,-5.7406,-5.7804,-5.7804,-5.8166,-5.7531,-5.5865,-5.6481,-5.6631,-5.6345,-5.628,-5.6255,-5.62,-5.4834,0.0,0.0,0.0,0.0,0.0,0.0,0.0,0.0,0.0,0.0,-5.1117,-5.0137,-4.9695,-5.0033,-5.0036,-5.0321,-5.1042,-5.1452,-5.135,-5.0663,-5.1867,-5.2794,-5.3037,-5.2774,-5.2909,-5.3616,-5.3717,-5.4056,-5.487,-5.4725,-5.4749,-5.5228,-5.5269,-5.5073,-5.4771,-5.5194,-5.5587,-5.5587,-5.6216,-5.6945,-5.7707,-5.8734,-5.9728,-6.039,-6.0556,-6.0655,-6.102,-6.1417,-6.1516,-6.1185,-6.1318,-6.1616,-6.1682,-6.1947,-6.2146,-6.2179,-6.1805,-6.1339,-6.0822,-5.9887,-5.8971,-5.7752,-5.7059,-5.6485,-5.5716,-5.5301,-5.482,-5.4023,-5.3187,-5.2552,-5.353,-5.2915,-5.2915,-5.2915,-5.2915,-5.2915,-5.2915,-5.2915,0.0,0.0,0.0,-5.248,-5.248,-5.248,-5.248,-5.248,-5.248,-5.248,-5.248,-5.2516,-5.2661,-5.2697,-5.2733,-5.2987,-5.3458,-5.411,-5.4255,-5.4725,-5.5522,-5.6138,-5.65,-5.6754,-5.7949,-5.8637,-5.8673,-5.9289,-5.869,-5.7011,-5.752,-5.7807,-5.7842,-5.7936,-5.7965,-5.8016,-5.6229,-5.5173,-5.5073,-5.3311,-5.2471,-5.28,-5.2149,-5.187,-5.1941,-5.1807,-5.1807,-5.1909,-5.1943,-5.2181,-5.2793,-5.3335,-5.3991,-5.4717,-5.5574,-5.5126,-5.2965,-5.3917,-5.4608,-5.4598,-5.48,-5.5009,-5.5111,-5.569,-5.6304,-5.6911,-5.6474,-5.6404,-5.6884,-5.6972,-5.6808,-5.6081,-5.6955,-5.7506,-5.7387,-5.7814,-5.8462,-5.9172,-5.9827,-6.0556,-6.1251,-6.155,-6.1715,-6.2288,-6.2719,-6.3183,-6.3282,-6.3348,-6.3481,-6.3415,-6.3504,-6.3637,-6.367,-6.3637,-6.3331,-6.2644,-6.2295,-6.1434,-6.0,-5.9309,-5.8736,-5.7633,-5.7153,-5.6912,-5.664,-5.5345,-5.4178,-5.4653,-5.4544,-5.4581,-5.4581,-5.4581,-5.4581,-5.4581,-5.4436,-5.3096,-5.248,-5.248,-5.248,-5.248,-5.248,-5.248,-5.248,-5.248,-5.248,-5.248,-5.2516,-5.3204,-5.353,-5.3603,-5.487,-5.5558,-5.5703,-5.6355,-5.7116,-5.784,-5.7985,-5.8383,-5.9035,-5.9325,-5.9434,-5.9434,-5.9542,-5.9417,-5.9121,-5.9123,-5.9141,-5.9141,-5.9059,-5.892,-5.8813,-5.7886,-5.7255,-5.7007,-5.6057,-5.5426,-5.5184,-5.4506,-5.4355,-5.4734,-5.4156,-5.4115,-5.4745,-5.4815,-5.482,-5.489,-5.5014,-5.5424,-5.619,-5.7471,-5.7323,-5.528,-5.5314,-5.5485,-5.5462,-5.6048,-5.6625,-5.7199,-5.7405,-5.8002,-5.9085,-5.9162,-5.9318,-5.9834,-6.0392,-6.0391,-5.9534,-6.0313,-6.0414,-5.9817,-5.9802,-6.0102,-6.0669,-6.1227,-6.1525,-6.2671,-6.2974,-6.3007,-6.315,-6.3249,-6.3315,-6.3514,-6.3912,-6.4167,-6.4233,-6.4697,-6.4929,-6.4929,-6.4929,-6.484,-6.485,-6.4041,-6.3426,-6.2907,-6.1608,-6.0526,-5.9878,-5.8896,-5.8141,-5.8423,-5.7355,-5.6184,-5.5269,-5.4907,-5.4907,-5.4907,-5.4907,-5.4907,-5.4907,-5.4834,-5.4146,-5.382,-5.382,-5.382,-5.3784,-5.382,-5.382,-5.382,-5.382,-5.3784,-5.382,-5.3856,-5.4581,-5.4943,-5.5051,-5.6102,-5.6862,-5.7297,-5.7659,-5.8275,-5.8999,-5.9072,-5.9253,-5.9615,-6.005,-6.0484,-6.0856,-6.0892,-6.0919,-6.0892,-6.0404,-6.016,-6.016,-6.0503,-6.0702,-6.0619,-5.9542,-5.9064,-5.923,-5.779,-5.7098,-5.7335,-5.6663,-5.6394,-5.6621,-5.6275,-5.6239,-5.6626,-5.6661,-5.6626,-5.6591,-5.6988,-5.7448,-5.8116,-5.8473,-5.8316,-5.7339,-5.732,-5.7293,-5.7319,-5.7989,-5.8628,-5.8979,-5.9714,-6.0614,-6.1604,-6.1354,-6.1375,-6.1975,-6.2297,-6.2126,-6.1467,-6.1814,-6.2195,-6.2217,-6.2213,-6.2501,-6.3119,-6.3518,-6.4035,-6.4481,-6.4874,-6.4796,-6.4098,-6.4167,-6.4399,-6.4432,-6.4697,-6.4929,-6.4962,-6.5194,-6.5392,-6.5425,-6.5425,-6.5425,-6.5381,-6.4988,-6.4499,-6.4081,-6.3196,-6.209,-6.0774,-6.0206,-5.9599,-5.9158,-5.8321,-5.7325,-5.5957,-5.5414,-5.5414,-5.5414,-5.5414,-5.5414,-5.5414,-5.5414,-5.545,-5.5414,-5.5377,-5.5088,-5.4907,-5.4943,-5.5051,-5.5051,-5.4943,-5.5269,-5.5341,-5.5269,-5.6102,-5.6536,-5.6645,-5.755,-5.8347,-5.8927,-5.9108,-5.9542,-6.0086,-6.0158,-6.0158,-6.0231,-6.0774,-6.139,-6.2005,-6.2041,-6.2041,-6.1942,-6.1399,-6.11,-6.11,-6.1688,-6.2005,-6.1914,-6.0976,-6.0588,-6.0946,-5.9516,-5.8934,-5.9366,-5.8786,-5.8414,-5.8379,-5.8237,-5.8131,-5.8131,-5.8131,-5.8131,-5.8196,-5.8781,-5.9446,-6.0069,-5.9888,-5.9816,-5.996,-5.9995,-5.9759,-5.9445,-6.0175,-6.0807,-6.1136,-6.2017,-6.3061,-6.3745,-6.34,-6.3282,-6.3819,-6.4073,-6.389,-6.3262,-6.3687,-6.4424,-6.4638,-6.4813,-6.4981,-6.5482,-6.6126,-6.637,-6.6357,-6.6629,-6.6154,-6.544,-6.5205,-6.5293,-6.5425,-6.5392,-6.5359,-6.5425,-6.5392,-6.5425,-6.5425,-6.5425,-6.5425,-6.5425,-6.5425,-6.5078,-6.4407,-6.3988,-6.3196,-6.1891,-6.1071,-6.0255,-5.9255,-5.874,-5.8035,-5.7043,-5.6971,-5.6935,-5.6971,-5.6935,-5.6935,-5.6935,-5.6935,-5.6971,-5.6971,-5.6826,-5.5522,-5.4979,-5.5015,-5.5667,-5.5667,-5.5196,-5.6355,-5.6609,-5.6174,-5.7478,-5.8166,-5.8311,-5.9724,-6.052,-6.0629,-6.1181,-6.1507,-6.1643,-6.1716,-6.1761,-6.1761,-6.186,-6.1906,-6.2005,-6.2041,-6.2041,-6.2041,-6.1942,-6.1869,-6.1869,-6.1942,-6.2041,-6.2005,-6.1878,-6.1814,-6.1833,-6.1715,-6.1615,-6.1606,-6.0865,-6.0476,-6.0404,-5.9826,-5.942,-5.9429,-5.9429,-5.942,-5.9528,-6.016,-6.0983,-6.1725,-6.2349,-6.2944,-6.3623,-6.3768,-6.299,-6.1686,-6.2265,-6.3203,-6.3877,-6.413,-6.4498,-6.517,-6.5285,-6.5346,-6.5596,-6.6736,-6.7199,-6.6292,-6.7111,-6.8056,-6.7257,-6.7124,-6.7165,-6.7361,-6.7683,-6.7981,-6.7981,-6.7525,-6.7052,-6.6617,-6.6072,-6.5481,-6.5425,-6.5425,-6.5425,-6.5425,-6.5425,-6.5425,-6.5425,-6.5425,-6.5425,-6.5425,-6.5425,-6.5258,-6.5078,-6.4591,-6.3894,-6.3148,-6.1891,-6.039,-5.9446,-5.9009,-5.8573,-5.7188,-5.7188,-5.7188,-5.7188,-5.7188,-5.7188,-5.7188,-5.7188,-5.7188,-5.7478,-5.7804,-5.7224,-5.6971,-5.7043,-5.7768,-5.7949,-5.7732,-5.8347,-5.8456,-5.8239,-5.9325,-5.9832,-5.9941,-6.0955,-6.1507,-6.1507,-6.1833,-6.2041,-6.2041,-6.2041,-6.2041,-6.2041,-6.2041,-6.2041,-6.2041,-6.2041,-6.2041,-6.2041,-6.2041,-6.2041,-6.2041,-6.2041,-6.2041,-6.2041,-6.2041,-6.2041,-6.2041,-6.2041,-6.2041,-6.1978,-6.1688,-6.1471,-6.1507,-6.1181,-6.1027,-6.1064,-6.1462,-6.1933,-6.2404,-6.273,-6.3092,-6.3418,-6.3708,-6.407,-6.4396,-6.483,-6.4679,-6.4036,-6.4338,-6.4852,-6.5127,-6.5518,-6.5953,-6.6315,-6.6714,-6.7029,-6.707,-6.8047,-6.8517,-6.8238,-6.8677,-6.9173,-6.9189,-6.9189,-6.9344,-6.9527,-6.9566,-6.9313,-6.9275,-6.8527,-6.7787,-6.7182,-6.6287,-6.5647,-6.547,-6.5425,-6.5425,-6.5425,-6.5425,-6.5425,-6.5425,-6.5425,-6.5425,-6.5425,-6.5425,-6.5425,-6.5381,-6.5123,-6.4636,-6.3862,-6.2288,-6.0546,-6.0106,-5.9553,-5.8973,-5.7188,-5.7188,-5.7188,-5.7188,-5.7224,-5.7442,-5.7514,-5.7587,-5.7768,-5.8202,-5.8709,-5.8963,-5.9072,-5.9144,-5.9687,-5.9832,-5.9687,-6.005,-6.0158,-6.005,-6.0774,-6.1109,-6.1208,-6.1688,-6.2041,-6.2041,-6.2005,-6.2041,-6.2041,-6.2041,-6.2041,-6.2041,-6.2041,-6.2041,-6.2041,-6.2041,-6.2087,-6.2331,-6.2331,-6.244,-6.2657,-6.2657,-6.2476,-6.205,-6.2041,-6.2114,-6.2331,-6.2331,-6.244,-6.2657,-6.2693,-6.2657,-6.2657,-6.2657,-6.2657,-6.2693,-6.32,-6.378,-6.4359,-6.4396,-6.4504,-6.4685,-6.4722,-6.483,-6.512,-6.5591,-6.6025,-6.6214,-6.6243,-6.625,-6.6315,-6.6786,-6.7184,-6.7438,-6.8017,-6.8343,-6.8313,-6.9032,-6.9502,-6.9533,-6.9725,-7.0009,-7.0527,-7.0646,-7.0737,-7.1074,-7.0778,-7.0406,-7.0164,-6.9565,-6.8793,-6.8146,-6.7264,-6.6372,-6.5702,-6.5425,-6.5425,-6.5425,-6.5425,-6.5425,-6.5425,-6.5425,-6.5425,-6.5425,-6.5425,-6.5425,-6.5425,-6.5303,-6.5078,-6.3988,-6.2663,-6.1286,-6.0619,-6.0,-5.9499,-5.7188,-5.7224,-5.7224,-5.7369,-5.7297,-5.8094,-5.842,-5.8565,-5.918,-5.9542,-5.9687,-6.0303,-6.0701,-6.0638,-6.0701,-6.0339,-5.9878,-6.1136,-6.1362,-6.0856,-6.1543,-6.1942,-6.1942,-6.1978,-6.2041,-6.2041,-6.2041,-6.2041,-6.2041,-6.2041,-6.2041,-6.2014,-6.2078,-6.2078,-6.2123,-6.2186,-6.244,-6.3056,-6.3156,-6.3454,-6.4106,-6.4215,-6.349,-6.2268,-6.2078,-6.2476,-6.3056,-6.3128,-6.3454,-6.4215,-6.4178,-6.4215,-6.4251,-6.4215,-6.4215,-6.4251,-6.4323,-6.4359,-6.4468,-6.4541,-6.4794,-6.541,-6.5555,-6.5844,-6.6388,-6.6641,-6.7003,-6.7764,-6.7764,-6.78,-6.7909,-6.7909,-6.8235,-6.8845,-6.9062,-6.914,-6.9171,-6.9859,-7.0263,-7.0408,-7.0806,-7.1168,-7.1386,-7.1427,-7.1399,-7.1431,-7.134,-7.1211,-7.1107,-7.0541,-6.9919,-6.9601,-6.891,-6.7955,-6.6278,-6.5878,-6.5658,-6.5514,-6.5559,-6.5425,-6.5425,-6.5425,-6.5425,-6.5425,-6.5425,-6.5425,-6.5425,-6.5213,-6.4943,-6.4314,-6.3894,-6.2826,-6.174,-6.0979,-6.0337,-5.9035,-5.9506,-5.9506,-5.9796,-6.0303,-6.0593,-6.0701,-6.0675,-6.0448,-6.0665,-6.1,-6.0919,-6.11,-6.158,-6.1543,-6.1399,-6.1245,-6.1788,-6.1833,-6.1616,-6.1869,-6.2041,-6.2041,-6.2041,-6.2041,-6.2041,-6.2041,-6.2041,-6.2041,-6.2041,-6.2295,-6.2693,-6.2766,-6.3019,-6.3454,-6.3526,-6.3708,-6.3925,-6.3961,-6.4106,-6.4396,-6.4396,-6.407,-6.3599,-6.3526,-6.3671,-6.3961,-6.3961,-6.4106,-6.4396,-6.4396,-6.4396,-6.4396,-6.4396,-6.4649,-6.5084,-6.5156,-6.5374,-6.5844,-6.5917,-6.6062,-6.6315,-6.6351,-6.6496,-6.6822,-6.7257,-6.7692,-6.8054,-6.8525,-6.8923,-6.9321,-6.9068,-6.8887,-6.9207,-6.9678,-6.9968,-7.0082,-7.0625,-7.1096,-7.1132,-7.135,-7.1494,-7.1494,-7.1494,-7.1494,-7.1531,-7.1467,-7.1467,-7.1368,-7.0811,-7.0303,-7.0129,-6.9421,-6.8572,-6.8029,-6.7059,-6.6508,-6.6019,-6.5824,-6.5692,-6.5647,-6.5514,-6.547,-6.5425,-6.5425,-6.5425,-6.5425,-6.5381,-6.5033,-6.4943,-6.4499,-6.3847,-6.2955,-6.2139,-6.1286,-6.0675,-6.1172,-6.1208,-6.1471,-6.2014,-6.2295,-6.2404,-6.2367,-6.2114,-6.2295,-6.2621,-6.2186,-6.2295,-6.273,-6.2766,-6.2802,-6.2693,-6.2295,-6.2041,-6.2041,-6.2041,-6.2041,-6.205,-6.2259,-6.2367,-6.2476,-6.2693,-6.2802,-6.2802,-6.2802,-6.3056,-6.3563,-6.3599,-6.3852,-6.4323,-6.4396,-6.4468,-6.4722,-6.4794,-6.4903,-6.512,-6.5156,-6.5192,-6.5192,-6.5156,-6.5048,-6.4794,-6.4794,-6.4939,-6.512,-6.5192,-6.5156,-6.5156,-6.5156,-6.541,-6.5917,-6.5989,-6.6207,-6.6714,-6.6822,-6.6786,-6.6822,-6.704,-6.7184,-6.7257,-6.7909,-6.8452,-6.8814,-6.9213,-6.9901,-7.0444,-7.0263,-6.9937,-6.9973,-7.0408,-7.0734,-7.077,-7.1168,-7.1458,-7.1458,-7.1494,-7.1494,-7.1494,-7.1494,-7.1494,-7.1494,-7.1494,-7.1494,-7.1399,-7.1107,-7.0778,-7.0676,-7.0232,-6.9743,-6.9166,-6.8416,-6.7432,-6.6844,-6.6042,-6.5911,-6.578,-6.5603,-6.547,-6.5425,-6.5425,-6.5425,-6.5425,-6.5425,-6.5381,-6.5381,-6.5033,-6.4407,-6.3768,-6.3292,-6.2238,-6.205,-6.2123,-6.2014,-6.2268,-6.2521,-6.3164,-6.3273,-6.349,-6.3997,-6.4215,-6.4251,-6.4215,-6.4033,-6.4251,-6.4106,-6.4251,-6.3925,-6.2838,-6.2295,-6.2259,-6.2195,-6.2195,-6.2295,-6.2911,-6.32,-6.3237,-6.3961,-6.4287,-6.4178,-6.4142,-6.4215,-6.4359,-6.4396,-6.4504,-6.4468,-6.4649,-6.4903,-6.5446,-6.5627,-6.5953,-6.6677,-6.6605,-6.6569,-6.6641,-6.6641,-6.6279,-6.5627,-6.5627,-6.5917,-6.6569,-6.6641,-6.6786,-6.6605,-6.6605,-6.6714,-6.6677,-6.675,-6.6786,-6.6786,-6.6822,-6.6822,-6.7003,-6.7547,-6.7909,-6.809,-6.8742,-6.9497,-6.9973,-7.0299,-7.0698,-7.1277,-7.1313,-7.1277,-7.1458,-7.135,-7.1386,-7.1422,-7.1494,-7.1494,-7.1494,-7.1494,-7.1494,-7.1494,-7.1494,-7.1494,-7.1494,-7.1494,-7.1494,-7.1494,-7.1368,-7.1431,-7.1431,-7.1139,-7.0709,-7.0233,-6.9672,-6.8607,-6.7587,-6.666,-6.6086,-6.5911,-6.5736,-6.5559,-6.5514,-6.5425,-6.5425,-6.5425,-6.5425,-6.5425,-6.5336,-6.5123,-6.4988,-6.4499,-6.3862,-6.2972,-6.3961,-6.4468,-6.4468,-6.483,-6.5301,-6.5591,-6.5663,-6.5627,-6.541,-6.5229,-6.512,-6.4649,-6.4396,-6.4396,-6.4396,-6.4396,-6.4323,-6.3852,-6.3671,-6.3635,-6.3635,-6.3599,-6.3671,-6.3889,-6.4033,-6.4033,-6.4251,-6.4396,-6.4432,-6.4432,-6.4649,-6.512,-6.5229,-6.5518,-6.5953,-6.6062,-6.6207,-6.6388,-6.6424,-6.6569,-6.6786,-6.6822,-6.6822,-6.6822,-6.6822,-6.6677,-6.646,-6.6424,-6.6533,-6.6822,-6.6822,-6.6822,-6.6822,-6.6822,-6.6822,-6.6822,-6.6822,-6.6822,-6.6822,-6.6858,-6.7076,-6.751,-6.7873,-6.8271,-6.8814,-6.9533,-7.0113,-7.0444,-7.0842,-7.1313,-7.1458,-7.1494,-7.1494,-7.1494,-7.1494,-7.1494,-7.1494,-7.1494,-7.1494,-7.1494,-7.1494,-7.1494,-7.1494,-7.1494,-7.1494,-7.1494,-7.1494,-7.1494,-7.1494,-7.1494,-7.1494,-7.1494,-7.1463,-7.1431,-7.0911,-7.0164,-6.9165,-6.8102,-6.7168,-6.6345,-6.6086,-6.5955,-6.5736,-6.5559,-6.547,-6.5425,-6.5425,-6.5425,-6.5425,-6.5425,-6.5291,-6.5123,-6.4988,-6.4453,-6.3673,-6.5591,-6.6025,-6.6025,-6.6315,-6.6786,-6.6822,-6.6822,-6.675,-6.6279,-6.6025,-6.5917,-6.5518,-6.5301,-6.5301,-6.5301,-6.5301,-6.5301,-6.5301,-6.5301,-6.5156,-6.4577,-6.4396,-6.4468,-6.4722,-6.5048,-6.5265,-6.5301,-6.5301,-6.5301,-6.5301,-6.5555,-6.5953,-6.6025,-6.6279,-6.6786,-6.6822,-6.6822,-6.6822,-6.6786,-6.6822,-6.6822,-6.6822,-6.6822,-6.6822,-6.6822,-6.6822,-6.6822,-6.6822,-6.6822,-6.6822,-6.6822,-6.6822,-6.6822,-6.6822,-6.6822,-6.6822,-6.6822,-6.6822,-6.6822,-6.7112,-6.7438,-6.7945,-6.8271,-6.8633,-6.9243,-6.9968,-7.0372,-7.048,-7.1024,-7.1494,-7.1494,-7.1494,-7.1494,-7.1494,-7.1494,-7.1494,-7.1494,-7.1494,-7.1494,-7.1494,-7.1494,-7.1494,-7.1494,-7.1494,-7.1494,-7.1494,-7.1494,-7.1494,-7.1494,-7.1494,-7.1494,-7.1494,-7.1494,-7.1431,-7.1399,-7.0642,-6.9636,-6.8642,-6.7656,-6.6862,-6.6302,-6.6249,-6.6076,-6.5692,-6.5559,-6.5425,-6.5425,-6.5425,-6.5425,-6.5425,-6.5425,-6.5303,-6.5168,-6.5213,-6.4591,-6.6786,-6.6822,-6.6786,-6.675,-6.6822,-6.6822,-6.6822,-6.6786,-6.675,-6.6714,-6.6714,-6.6605,-6.6641,-6.6714,-6.6533,-6.6533,-6.675,-6.6605,-6.6533,-6.6207,-6.541,-6.4758,-6.4867,-6.541,-6.5953,-6.6496,-6.6605,-6.6677,-6.6533,-6.6533,-6.6822,-6.6714,-6.6677,-6.6786,-6.6822,-6.6822,-6.6822,-6.6822,-6.6822,-6.6822,-6.6822,-6.6822,-6.6822,-6.6822,-6.6822,-6.6822,-6.6822,-6.6822,-6.6822,-6.6822,-6.6822,-6.6822,-6.6822,-6.6822,-6.6822,-6.6822,-6.6822,-6.6822,-6.6967,-6.7293,-6.78,-6.8017,-6.8525,-6.9207,-6.9279,-6.9756,-7.0154,-7.0191,-7.077,-7.1277,-7.1313,-7.135,-7.1386,-7.1494,-7.1494,-7.1494,-7.1494,-7.1494,-7.1494,-7.1494,-7.1494,-7.1494,-7.1494,-7.1494,-7.1494,-7.1494,-7.1494,-7.1494,-7.1494,-7.1494,-7.1494,-7.1494,-7.1494,-7.1463,-7.1431,-7.0845,-6.9849,-6.898,-6.8014,-6.7236,-6.6516,-6.6378,-6.6206,-6.5867,-6.5603,-6.5514,-6.5425,-6.5425,-6.5425,-6.5425,-6.5425,-6.5425,-6.5425,-6.5425,-6.5258,-6.6822,-6.6822,-6.6822,-6.6822,-6.6822,-6.6822,-6.6786,-6.6822,-6.6786,-6.6822,-6.6822,-6.6822,-6.6822,-6.6822,-6.6822,-6.6822,-6.6822,-6.6822,-6.6822,-6.675,-6.646,-6.617,-6.617,-6.6351,-6.6569,-6.6786,-6.6822,-6.6822,-6.6822,-6.6822,-6.6822,-6.6822,-6.6822,-6.6822,-6.6822,-6.6822,-6.6822,-6.6822,-6.6822,-6.6822,-6.6822,-6.6822,-6.6822,-6.6822,-6.6822,-6.6822,-6.6822,-6.6822,-6.6822,-6.6822,-6.6822,-6.6822,-6.6822,-6.6822,-6.6822,-6.6822,-6.6822,-6.6822,-6.6858,-6.704,-6.7402,-6.7945,-6.8235,-6.8561,-6.9171,-6.9388,-6.9533,-6.9533,-6.972,-7.0082,-7.0517,-7.0661,-7.0915,-7.1422,-7.1422,-7.1458,-7.1494,-7.1494,-7.1494,-7.1494,-7.1494,-7.1494,-7.1494,-7.1494,-7.1494,-7.1494,-7.1494,-7.1494,-7.1494,-7.1494,-7.1494,-7.1494,-7.1494,-7.1494,-7.1336,-7.0778,-7.0095,-6.9273,-6.837,-6.7448,-6.6779,-6.6302,-6.6086,-6.5824,-6.5736,-6.5647,-6.547,-6.5425,-6.5425,-6.5425,-6.5425,-6.5425,-6.5425,-6.5425,-6.5425,-6.5808,-6.5808,-6.5808,-6.5808,-6.5844,-6.617,-6.6315,-6.6351,-6.6677,-6.6822,-6.6822,-6.6822,-6.6822,-6.6822,-6.6822,-6.6822,-6.6822,-6.6822,-6.6822,-6.6822,-6.675,-6.675,-6.6786,-6.6822,-6.6822,-6.6822,-6.6822,-6.6822,-6.6822,-6.6822,-6.6822,-6.6822,-6.6822,-6.6822,-6.6822,-6.6822,-6.6822,-6.6822,-6.6822,-6.6822,-6.6822,-6.6822,-6.6822,-6.6822,-6.6822,-6.6822,-6.6822,-6.6822,-6.6822,-6.6822,-6.6822,-6.6822,-6.6822,-6.6822,-6.6822,-6.6822,-6.6822,-6.6822,-6.6895,-6.7112,-6.751,-6.7909,-6.8017,-6.8235,-6.8561,-6.8669,-6.8669,-6.8706,-6.8959,-6.9424,-6.9787,-6.9932,-7.0113,-7.0408,-7.0806,-7.1132,-7.1458,-7.1494,-7.1494,-7.1494,-7.1494,-7.1494,-7.1494,-7.1494,-7.1494,-7.1494,-7.1494,-7.1494,-7.1494,-7.1494,-7.1494,-7.1494,-7.1494,-7.1494,-7.1494,-7.1074,-7.0337,-6.9528,-6.8293,-6.7448,-6.7071,-6.6516,-6.6259,-6.6086,-6.5911,-6.5736,-6.5603,-6.547,-6.5425,-6.5425,-6.5425,-6.5425,-6.5425,-6.5425,-6.5425,-6.4396,-6.4396,-6.4396,-6.4396,-6.4577,-6.5156,-6.5482,-6.5627,-6.6098,-6.6424,-6.6424,-6.6605,-6.6569,-6.6677,-6.6714,-6.6822,-6.6822,-6.6822,-6.6852,-6.6815,-6.6845,-6.6845,-6.6874,-6.6852,-6.6815,-6.6815,-6.6822,-6.6822,-6.6852,-6.6852,-6.6822,-6.6822,-6.6822,-6.6822,-6.6822,-6.6822,-6.6822,-6.6822,-6.6822,-6.6822,-6.6822,-6.6786,-6.6714,-6.6533,-6.6533,-6.6533,-6.6569,-6.6605,-6.6569,-6.6533,-6.6641,-6.6605,-6.6605,-6.6605,-6.646,-6.646,-6.646,-6.6569,-6.675,-6.7221,-6.7764,-6.78,-6.78,-6.7873,-6.7873,-6.7873,-6.7873,-6.7873,-6.8525,-6.8778,-6.9032,-6.9062,-6.9243,-6.9497,-6.9937,-7.0553,-7.1205,-7.1458,-7.1494,-7.1494,-7.1494,-7.1494,-7.1494,-7.1494,-7.1494,-7.1494,-7.1494,-7.1494,-7.1494,-7.1494,-7.1494,-7.1494,-7.1494,-7.1494,-7.1494,-7.1431,-7.0609,-6.9743,-6.8293,-6.7366,-6.7277,-6.6896,-6.6635,-6.6378,-6.6129,-6.5911,-6.5736,-6.5647,-6.547,-6.5425,-6.5425,-6.5425,-6.5425,-6.5425,-6.5425,-6.4396,-6.4396,-6.4396,-6.4396,-6.4432,-6.4577,-6.4649,-6.4685,-6.483,-6.5084,-6.5084,-6.5591,-6.5881,-6.5953,-6.6533,-6.6822,-6.6822,-6.6822,-6.6845,-6.6961,-6.6961,-6.7011,-6.704,-6.6961,-6.6874,-6.6932,-6.6845,-6.6845,-6.6903,-6.6874,-6.6822,-6.6786,-6.6815,-6.6822,-6.6852,-6.6852,-6.6822,-6.6822,-6.6786,-6.6822,-6.6822,-6.6786,-6.6496,-6.6025,-6.5881,-6.5844,-6.5844,-6.5844,-6.5555,-6.5229,-6.5446,-6.5772,-6.5736,-6.5337,-6.512,-6.5301,-6.5663,-6.5881,-6.6025,-6.6677,-6.7076,-6.7148,-6.7184,-6.704,-6.7076,-6.7112,-6.7112,-6.7076,-6.7221,-6.7728,-6.8162,-6.8235,-6.8488,-6.8887,-6.9279,-6.9756,-7.0517,-7.1168,-7.1458,-7.1494,-7.1494,-7.1494,-7.1494,-7.1494,-7.1494,-7.1494,-7.1494,-7.1494,-7.1494,-7.1494,-7.1494,-7.1494,-7.1494,-7.1494,-7.1431,-7.1368,-7.0745,-6.999,-6.8676,-6.7569,-6.7448,-6.7236,-6.6938,-6.6601,-6.6259,-6.6086,-6.5911,-6.5647,-6.547,-6.5425,-6.5425,-6.5425,-6.5425,-6.5425,-6.5425,-6.3273,-6.3273,-6.3273,-6.3273,-6.3345,-6.3671,-6.3816,-6.3889,-6.4251,-6.4613,-6.4975,-6.5446,-6.5808,-6.617,-6.6605,-6.6822,-6.6822,-6.6822,-6.6874,-6.699,-6.6983,-6.7069,-6.7266,-6.7258,-6.7286,-6.7154,-6.7011,-6.7011,-6.704,-6.704,-6.699,-6.6903,-6.6903,-6.7048,-6.7069,-6.6961,-6.6954,-6.7069,-6.6903,-6.6822,-6.6822,-6.6786,-6.6424,-6.5627,-6.5265,-6.5048,-6.5048,-6.5048,-6.483,-6.4504,-6.4432,-6.4685,-6.4939,-6.4649,-6.4577,-6.5011,-6.5301,-6.5844,-6.6207,-6.6533,-6.6822,-6.6822,-6.6822,-6.6822,-6.6822,-6.6822,-6.6822,-6.6822,-6.6858,-6.704,-6.7366,-6.7438,-6.7728,-6.7981,-6.8452,-6.8959,-6.9823,-7.0806,-7.1494,-7.1494,-7.1494,-7.1494,-7.1494,-7.1494,-7.1494,-7.1494,-7.1494,-7.1494,-7.1494,-7.1494,-7.1494,-7.1494,-7.1494,-7.1463,-7.1399,-7.1171,-7.0778,-7.013,-6.9347,-6.837,-6.7856,-6.7569,-6.7277,-6.6821,-6.6388,-6.6215,-6.6042,-6.578,-6.5514,-6.5425,-6.5425,-6.5425,-6.5425,-6.5425,-6.5425,-6.2041,-6.2041,-6.2041,-6.2041,-6.2114,-6.273,-6.3019,-6.3128,-6.3852,-6.4396,-6.5229,-6.5446,-6.5917,-6.646,-6.6714,-6.6786,-6.6822,-6.6822,-6.6874,-6.7011,-6.704,-6.7266,-6.7506,-6.7726,-6.7778,-6.7424,-6.7496,-6.7496,-6.7387,-6.7396,-6.7523,-6.7305,-6.7258,-6.7496,-6.7577,-6.7341,-6.7314,-6.7604,-6.7396,-6.7097,-6.691,-6.6809,-6.6235,-6.5337,-6.4577,-6.4251,-6.4215,-6.4178,-6.4106,-6.3997,-6.3382,-6.3526,-6.3997,-6.4251,-6.4432,-6.5156,-6.5337,-6.5808,-6.6279,-6.6641,-6.6822,-6.6822,-6.6822,-6.6822,-6.6822,-6.6822,-6.6822,-6.6822,-6.6822,-6.6822,-6.6822,-6.6931,-6.6895,-6.704,-6.7583,-6.8307,-6.9213,-7.048,-7.1168,-7.1494,-7.1494,-7.1494,-7.1494,-7.1494,-7.1494,-7.1494,-7.1494,-7.1494,-7.1494,-7.1494,-7.1494,-7.1494,-7.1494,-7.1494,-7.1431,-7.1399,-7.0943,-7.0541,-6.992,-6.92,-6.8409,-6.7896,-6.7529,-6.6946,-6.6558,-6.6388,-6.6129,-6.5867,-6.5647,-6.5514,-6.5425,-6.5425,-6.5425,-6.5425,-6.5425,-6.2041,-6.2041,-6.2041,-6.2041,-6.2014,-6.2159,-6.2259,-6.2367,-6.3164,-6.3454,-6.3852,-6.5011,-6.57,-6.6025,-6.6569,-6.6786,-6.6845,-6.6903,-6.7011,-6.7238,-6.7286,-6.7523,-6.8086,-6.8333,-6.8284,-6.8259,-6.832,-6.8283,-6.8012,-6.821,-6.8161,-6.8246,-6.8185,-6.8247,-6.8247,-6.8148,-6.7973,-6.8124,-6.7973,-6.7752,-6.7303,-6.6555,-6.5779,-6.4682,-6.3872,-6.3454,-6.3382,-6.3345,-6.3092,-6.2476,-6.2268,-6.273,-6.3382,-6.3599,-6.3744,-6.4142,-6.5048,-6.5772,-6.6062,-6.6496,-6.675,-6.6822,-6.6822,-6.6822,-6.6822,-6.6822,-6.6822,-6.6822,-6.6822,-6.6822,-6.6822,-6.6822,-6.6822,-6.7003,-6.7438,-6.8271,-6.9134,-7.0004,-7.0879,-7.1386,-7.1458,-7.1494,-7.1494,-7.1494,-7.1494,-7.1494,-7.1494,-7.1494,-7.1494,-7.1494,-7.1494,-7.1494,-7.1494,-7.1494,-7.1463,-7.1463,-7.1304,-7.1107,-7.0575,-6.992,-6.92,-6.8405,-6.7811,-6.7319,-6.6812,-6.643,-6.6215,-6.5999,-6.578,-6.5559,-6.547,-6.5425,-6.5425,-6.5425,-6.5425,-6.2041,-6.2041,-6.2041,-6.2041,-6.2041,-6.2041,-6.2259,-6.2657,-6.3019,-6.3671,-6.4468,-6.5265,-6.5844,-6.6207,-6.6569,-6.6932,-6.7182,-6.7238,-6.7496,-6.7856,-6.8035,-6.8235,-6.8855,-6.8997,-6.8915,-6.9003,-6.9223,-6.9053,-6.832,-6.8368,-6.8637,-6.8645,-6.8637,-6.8697,-6.8705,-6.845,-6.8535,-6.8581,-6.8464,-6.8,-6.7232,-6.6022,-6.4752,-6.4128,-6.3185,-6.2621,-6.2585,-6.2585,-6.2657,-6.2657,-6.2657,-6.3056,-6.3635,-6.4142,-6.4396,-6.4541,-6.5192,-6.5844,-6.6134,-6.6641,-6.6786,-6.6822,-6.6822,-6.6822,-6.6822,-6.6822,-6.6822,-6.6822,-6.6822,-6.6822,-6.6822,-6.6822,-6.6822,-6.6858,-6.7184,-6.7945,-6.8917,-6.9533,-7.0335,-7.1205,-7.1458,-7.1494,-7.1494,-7.1494,-7.1494,-7.1494,-7.1494,-7.1494,-7.1494,-7.1494,-7.1494,-7.1494,-7.1494,-7.1494,-7.1494,-7.1494,-7.1494,-7.1368,-7.1139,-7.0541,-6.9849,-6.9015,-6.8327,-6.7731,-6.7202,-6.6558,-6.6345,-6.6172,-6.5911,-6.5647,-6.5514,-6.5425,-6.5425,-6.5425,-6.5425,-6.2041,-6.2041,-6.2041,-6.2041,-6.2014,-6.2195,-6.2585,-6.3192,-6.3729,-6.462,-6.5646,-6.6078,-6.6562,-6.6972,-6.7174,-6.7369,-6.7736,-6.7873,-6.8382,-6.8849,-6.9201,-6.9409,-6.9767,-7.0015,-7.0226,-7.0156,-7.0421,-7.0062,-6.9025,-6.8922,-6.901,-6.9143,-6.9058,-6.9096,-6.9265,-6.901,-6.9025,-6.8981,-6.8855,-6.8157,-6.6807,-6.5164,-6.3947,-6.38,-6.2819,-6.2427,-6.2612,-6.2648,-6.2976,-6.3292,-6.349,-6.378,-6.4577,-6.5265,-6.5663,-6.5808,-6.5844,-6.6207,-6.6569,-6.6786,-6.6822,-6.6822,-6.6822,-6.6822,-6.6822,-6.6822,-6.6822,-6.6822,-6.6822,-6.6822,-6.6822,-6.6822,-6.6822,-6.6822,-6.6895,-6.7293,-6.8416,-6.9249,-6.9937,-7.0661,-7.1205,-7.1494,-7.1494,-7.1494,-7.1494,-7.1494,-7.1494,-7.1494,-7.1494,-7.1494,-7.1494,-7.1494,-7.1494,-7.1494,-7.1494,-7.1494,-7.1494,-7.1463,-7.1336,-7.0976,-7.0267,-6.96,-6.8865,-6.8014,-6.7236,-6.6686,-6.6516,-6.6302,-6.5999,-6.5736,-6.5559,-6.5425,-6.5425,-6.5425,-6.5425,-6.2041,-6.2041,-6.2005,-6.2041,-6.2177,-6.2785,-6.3147,-6.352,-6.5221,-6.6066,-6.657,-6.7465,-6.8049,-6.8171,-6.8197,-6.8198,-6.8482,-6.9051,-6.9543,-6.997,-7.0526,-7.1056,-7.1622,-7.1917,-7.1769,-7.1558,-7.1845,-7.1105,-7.0191,-7.0081,-7.0205,-7.0243,-7.0194,-7.0079,-7.0252,-7.0,-6.9758,-6.9833,-6.9737,-6.8782,-6.7037,-6.5434,-6.441,-6.3822,-6.3484,-6.3431,-6.3635,-6.3731,-6.3915,-6.4218,-6.4307,-6.4678,-6.5301,-6.5518,-6.6025,-6.6424,-6.6677,-6.6677,-6.6786,-6.6822,-6.6822,-6.6822,-6.6822,-6.6822,-6.6822,-6.6822,-6.6822,-6.6822,-6.6822,-6.6822,-6.6822,-6.6822,-6.6822,-6.6822,-6.6822,-6.7257,-6.809,-6.8742,-6.943,-7.0335,-7.0951,-7.1313,-7.1494,-7.1494,-7.1494,-7.1494,-7.1494,-7.1494,-7.1494,-7.1494,-7.1494,-7.1494,-7.1494,-7.1494,-7.1494,-7.1494,-7.1494,-7.1494,-7.1431,-7.1236,-7.0676,-6.9955,-6.9017,-6.8176,-6.7407,-6.6812,-6.6558,-6.6345,-6.6052,-6.5824,-6.5647,-6.5514,-6.5425,-6.5425,-6.5425,-6.2041,-6.2005,-6.2281,-6.2694,-6.3184,-6.3796,-6.4584,-6.558,-6.6888,-6.7802,-6.8345,-6.9224,-6.9719,-6.9731,-6.9719,-6.9937,-7.0284,-7.0606,-7.105,-7.1388,-7.1907,-7.2258,-7.2509,-7.2657,-7.2675,-7.2753,-7.2675,-7.2444,-7.1703,-7.1499,-7.1571,-7.1761,-7.1662,-7.1671,-7.1423,-7.1371,-7.1351,-7.1104,-7.0441,-6.9474,-6.8294,-6.6838,-6.5587,-6.525,-6.4957,-6.4893,-6.4988,-6.504,-6.5175,-6.5457,-6.5542,-6.575,-6.6178,-6.6315,-6.6496,-6.6677,-6.6786,-6.6786,-6.6822,-6.6822,-6.6822,-6.6822,-6.6822,-6.6822,-6.6822,-6.6822,-6.6822,-6.6822,-6.6822,-6.6822,-6.6822,-6.6822,-6.6822,-6.6822,-6.6822,-6.7257,-6.7764,-6.8162,-6.885,-6.9792,-7.0698,-7.1096,-7.1458,-7.1494,-7.1494,-7.1494,-7.1494,-7.1494,-7.1494,-7.1494,-7.1494,-7.1494,-7.1494,-7.1494,-7.1494,-7.1494,-7.1494,-7.1494,-7.1494,-7.1304,-7.0976,-7.0233,-6.9311,-6.8447,-6.7616,-6.7112,-6.6728,-6.6388,-6.6052,-6.5834,-6.5692,-6.5559,-6.5425,-6.5425,-6.5425,-6.2427,-6.2529,-6.2874,-6.3456,-6.4255,-6.5217,-6.63,-6.7452,-6.8697,-6.9527,-7.0222,-7.1013,-7.1495,-7.1607,-7.1776,-7.2064,-7.2256,-7.2423,-7.2674,-7.2984,-7.3283,-7.3473,-7.3659,-7.3653,-7.3726,-7.359,-7.3806,-7.367,-7.3563,-7.3301,-7.3169,-7.3038,-7.2574,-7.2581,-7.2584,-7.2396,-7.2224,-7.2071,-7.0669,-6.9891,-6.936,-6.7785,-6.7063,-6.6715,-6.6507,-6.6306,-6.6381,-6.6396,-6.655,-6.6775,-6.6832,-6.7006,-6.7186,-6.7064,-6.6988,-6.7011,-6.6961,-6.6822,-6.6822,-6.6822,-6.6822,-6.6822,-6.6822,-6.6822,-6.6822,-6.6822,-6.6822,-6.6822,-6.6822,-6.6822,-6.6822,-6.6822,-6.6822,-6.6822,-6.6822,-6.7221,-6.7655,-6.8199,-6.8706,-6.9539,-7.0408,-7.1096,-7.135,-7.1458,-7.1494,-7.1494,-7.1494,-7.1494,-7.1494,-7.1494,-7.1494,-7.1494,-7.1494,-7.1494,-7.1494,-7.1494,-7.1494,-7.1494,-7.1494,-7.1431,-7.1139,-7.0507,-6.9672,-6.879,-6.7896,-6.7284,-6.6821,-6.644,-6.6095,-6.5922,-6.578,-6.5514,-6.5425,-6.5425,-6.5425,-6.3514,-6.387,-6.392,-6.4315,-6.4976,-6.7178,-6.8193,-6.8768,-7.0548,-7.1381,-7.1764,-7.2746,-7.3401,-7.3577,-7.4069,-7.4268,-7.38,-7.4581,-7.4429,-7.4371,-7.4617,-7.4824,-7.4895,-7.4931,-7.5136,-7.5136,-7.4945,-7.5021,-7.5195,-7.4816,-7.4111,-7.3229,-7.3316,-7.294,-7.2887,-7.3004,-7.287,-7.247,-7.1124,-7.0233,-6.9702,-6.8584,-6.7581,-6.7467,-6.7392,-6.7447,-6.7718,-6.7771,-6.7778,-6.806,-6.8011,-6.7914,-6.7885,-6.7673,-6.7523,-6.7442,-6.723,-6.7069,-6.6954,-6.6845,-6.6822,-6.6822,-6.6822,-6.6822,-6.6822,-6.6822,-6.6822,-6.6822,-6.6822,-6.6822,-6.6822,-6.6822,-6.6822,-6.6822,-6.6858,-6.7076,-6.7619,-6.8343,-6.8887,-6.943,-7.0118,-7.0879,-7.135,-7.1458,-7.1494,-7.1494,-7.1494,-7.1494,-7.1494,-7.1494,-7.1494,-7.1494,-7.1494,-7.1494,-7.1494,-7.1494,-7.1494,-7.1494,-7.1494,-7.1494,-7.1399,-7.0676,-6.9636,-6.9017,-6.8137,-6.7535,-6.6946,-6.6482,-6.6139,-6.6009,-6.579,-6.5559,-6.5425,-6.5425,-6.5425,-6.448,-6.5008,-6.5971,-6.6807,-6.7604,-6.9428,-7.0479,-7.1065,-7.2343,-7.3233,-7.3662,-7.4661,-7.516,-7.5408,-7.6078,-7.6424,-7.6141,-7.5875,-7.5779,-7.5548,-7.5547,-7.5394,-7.5448,-7.5559,-7.548,-7.5518,-7.5518,-7.5518,-7.5442,-7.5518,-7.5289,-7.4643,-7.4267,-7.4366,-7.4275,-7.3973,-7.3915,-7.3477,-7.2356,-7.1427,-7.1066,-6.9891,-6.8944,-6.8944,-6.8906,-6.9001,-6.9111,-6.9129,-6.9014,-6.8847,-6.881,-6.8651,-6.844,-6.8148,-6.8049,-6.8035,-6.7752,-6.755,-6.7202,-6.7011,-6.6822,-6.6822,-6.6822,-6.6822,-6.6815,-6.6822,-6.6822,-6.6822,-6.6822,-6.6815,-6.6822,-6.6822,-6.6822,-6.6822,-6.6895,-6.704,-6.7583,-6.838,-6.914,-6.9756,-7.0227,-7.0806,-7.1205,-7.1494,-7.1494,-7.1494,-7.1494,-7.1494,-7.1494,-7.1494,-7.1494,-7.1494,-7.1494,-7.1494,-7.1494,-7.1494,-7.1494,-7.1494,-7.1494,-7.1494,-7.1399,-7.0198,-6.9275,-6.8793,-6.837,-6.7576,-6.6988,-6.644,-6.6139,-6.6052,-6.579,-6.547,-6.5425,-6.5425,-6.5425,-6.5636,-6.648,-6.8198,-6.9141,-6.9635,-7.1048,-7.2149,-7.2966,-7.3763,-7.4598,-7.5352,-7.6128,-7.668,-7.7121,-7.7886,-7.8138,-7.7912,-7.7551,-7.7264,-7.6919,-7.6517,-7.6211,-7.6132,-7.6036,-7.5959,-7.5806,-7.5556,-7.5518,-7.5518,-7.5518,-7.5403,-7.5368,-7.5409,-7.5241,-7.5169,-7.5171,-7.5056,-7.4656,-7.3459,-7.2452,-7.2148,-7.0744,-6.9816,-6.9778,-6.9702,-6.974,-6.9702,-6.9683,-6.9585,-6.9423,-6.9298,-6.9134,-6.8855,-6.8651,-6.8558,-6.8511,-6.8368,-6.8148,-6.7752,-6.7174,-6.6932,-6.704,-6.6845,-6.6932,-6.699,-6.6932,-6.6874,-6.6786,-6.6815,-6.6845,-6.6815,-6.6822,-6.6822,-6.6822,-6.6822,-6.7003,-6.7728,-6.8488,-6.9321,-7.0082,-7.0553,-7.106,-7.1168,-7.1494,-7.1494,-7.1494,-7.1494,-7.1494,-7.1494,-7.1494,-7.1494,-7.1494,-7.1494,-7.1494,-7.1494,-7.1494,-7.1494,-7.1494,-7.1494,-7.1494,-7.1107,-7.0095,-6.9565,-6.9493,-6.8868,-6.7736,-6.7037,-6.666,-6.6354,-6.6095,-6.5746,-6.5425,-6.5425,-6.5425,-6.5425,-6.7047,-6.8355,-7.0308,-7.0704,-7.0346,-7.1826,-7.3041,-7.3915,-7.4581,-7.5378,-7.6174,-7.6928,-7.7786,-7.8613,-7.9318,-7.9436,-7.9076,-7.898,-7.8672,-7.8004,-7.7584,-7.7737,-7.7487,-7.7105,-7.657,-7.6456,-7.6074,-7.5709,-7.5518,-7.5518,-7.5518,-7.5518,-7.5445,-7.5409,-7.532,-7.5209,-7.519,-7.4962,-7.3403,-7.27,-7.2149,-7.084,-7.0043,-6.9929,-6.991,-6.9891,-6.9891,-6.9891,-6.9796,-6.9738,-6.9738,-6.9679,-6.9602,-6.9256,-6.9091,-6.9069,-6.8651,-6.8416,-6.821,-6.7332,-6.7238,-6.7341,-6.7069,-6.6983,-6.7286,-6.7202,-6.6932,-6.6845,-6.6874,-6.6903,-6.6845,-6.6822,-6.6822,-6.6858,-6.6858,-6.7329,-6.809,-6.885,-6.9756,-7.048,-7.1024,-7.1494,-7.1458,-7.1494,-7.1494,-7.1494,-7.1494,-7.1494,-7.1494,-7.1494,-7.1494,-7.1494,-7.1494,-7.1494,-7.1494,-7.1494,-7.1494,-7.1494,-7.1494,-7.1494,-7.1399,-7.0842,-7.0474,-7.0233,-6.9237,-6.7935,-6.7373,-6.692,-6.6449,-6.6009,-6.5658,-6.5425,-6.5425,-6.5425,-6.5425,-6.8323,-6.8859,-7.0091,-7.1078,-7.2028,-7.3628,-7.456,-7.4845,-7.5151,-7.5647,-7.6407,-7.7144,-7.8,-7.8919,-7.9758,-8.0085,-7.9953,-7.9323,-7.8996,-7.8863,-7.8404,-7.8022,-7.787,-7.7717,-7.7258,-7.6761,-7.6303,-7.5844,-7.5518,-7.5518,-7.5518,-7.5518,-7.5518,-7.5501,-7.5409,-7.532,-7.5264,-7.4941,-7.3687,-7.2604,-7.2395,-7.1009,-6.9966,-6.9948,-6.9948,-6.991,-6.991,-6.9929,-6.991,-6.991,-6.991,-6.9891,-6.991,-6.962,-6.964,-6.9602,-6.934,-6.9176,-6.881,-6.8173,-6.7726,-6.755,-6.7238,-6.7126,-6.7478,-6.7126,-6.6961,-6.6903,-6.6903,-6.6932,-6.6932,-6.6815,-6.6822,-6.6967,-6.7184,-6.7981,-6.8742,-6.9539,-7.0335,-7.0915,-7.1458,-7.1494,-7.1494,-7.1494,-7.1494,-7.1494,-7.1494,-7.1494,-7.1494,-7.1494,-7.1494,-7.1494,-7.1494,-7.1494,-7.1494,-7.1494,-7.1494,-7.1494,-7.1494,-7.1494,-7.1368,-7.1204,-7.0676,-7.0095,-6.9126,-6.8172,-6.7373,-6.6694,-6.6268,-6.5867,-6.5603,-6.5425,-6.5425,-6.5425,-6.5425,-6.918,-6.9556,-7.0383,-7.1544,-7.2931,-7.4003,-7.4709,-7.5243,-7.5625,-7.616,-7.6941,-7.7682,-7.8539,-7.9399,-7.997,-8.0314,-8.0373,-7.9972,-7.9704,-7.9627,-7.9207,-7.9054,-7.8863,-7.8252,-7.7717,-7.7105,-7.6456,-7.5921,-7.5518,-7.5518,-7.5518,-7.5518,-7.5518,-7.5501,-7.5445,-7.5392,-7.5374,-7.488,-7.3758,-7.2713,-7.222,-7.1215,-7.0096,-7.0039,-7.0041,-7.0004,-6.9985,-6.9967,-6.991,-6.9948,-6.9929,-6.991,-6.991,-6.9929,-6.9929,-6.991,-6.9873,-6.9641,-6.9198,-6.8944,-6.8497,-6.8271,-6.7523,-6.7396,-6.7577,-6.7314,-6.7069,-6.699,-6.6961,-6.6961,-6.699,-6.6874,-6.6858,-6.6967,-6.7547,-6.8307,-6.9062,-6.9859,-7.0589,-7.1205,-7.1494,-7.1494,-7.1494,-7.1494,-7.1494,-7.1494,-7.1494,-7.1494,-7.1494,-7.1494,-7.1494,-7.1494,-7.1494,-7.1494,-7.1494,-7.1494,-7.1494,-7.1494,-7.1494,-7.1494,-7.1431,-7.1268,-7.0609,-6.999,-6.9273,-6.8409,-6.7161,-6.6388,-6.6129,-6.5867,-6.5603,-6.547,-6.5425,-6.5425,-6.5425,-6.9731,-7.0533,-7.1374,-7.2253,-7.2962,-7.3237,-7.4003,-7.5358,-7.6197,-7.6998,-7.7798,-7.8465,-7.9304,-8.022,-8.043,-8.045,-8.0468,-8.043,-8.0391,-8.0391,-8.0086,-8.0162,-7.9627,-7.8825,-7.8061,-7.7373,-7.6647,-7.5921,-7.5556,-7.5518,-7.5518,-7.5518,-7.5518,-7.5518,-7.5501,-7.5501,-7.5445,-7.4989,-7.3809,-7.2973,-7.2442,-7.1152,-7.0355,-7.0185,-7.0149,-7.0132,-7.0114,-7.0096,-7.0021,-7.0022,-6.9967,-6.9929,-6.9948,-6.9966,-6.9929,-6.9929,-7.0004,-6.9778,-6.9584,-6.9405,-6.9365,-6.9031,-6.8296,-6.8124,-6.7933,-6.7657,-6.7322,-6.7126,-6.7069,-6.704,-6.704,-6.6932,-6.6786,-6.7184,-6.7692,-6.8416,-6.9171,-6.9932,-7.0734,-7.1241,-7.1422,-7.1494,-7.1494,-7.1494,-7.1494,-7.1494,-7.1494,-7.1494,-7.1494,-7.1494,-7.1494,-7.1494,-7.1494,-7.1494,-7.1494,-7.1494,-7.1494,-7.1494,-7.1494,-7.1494,-7.1463,-7.1399,-7.0943,-7.0371,-6.9707,-6.8676,-6.7202,-6.643,-6.6129,-6.5867,-6.5692,-6.5514,-6.547,-6.5425,-6.5425,-7.1107,-7.1412,-7.2253,-7.3093,-7.3896,-7.4452,-7.5007,-7.5542,-7.6306,-7.7146,-7.7968,-7.8714,-7.9667,-8.0449,-8.045,-8.0431,-8.0468,-8.0506,-8.0506,-8.0468,-8.0391,-8.0086,-7.9589,-7.8978,-7.8175,-7.7296,-7.6532,-7.5921,-7.5594,-7.5518,-7.5518,-7.5518,-7.5518,-7.5518,-7.5518,-7.5518,-7.5518,-7.5042,-7.3747,-7.3136,-7.2452,-7.1201,-7.0556,-7.0272,-7.0238,-7.022,-7.0203,-7.0167,-7.0149,-7.0132,-7.0114,-7.0096,-7.0114,-7.0132,-7.0114,-7.0114,-7.0132,-7.0058,-7.0003,-6.9947,-6.991,-6.9759,-6.9181,-6.878,-6.8477,-6.8047,-6.7587,-6.7424,-6.721,-6.719,-6.7162,-6.7048,-6.7041,-6.7345,-6.7998,-6.8808,-6.9569,-7.0335,-7.1096,-7.1313,-7.1494,-7.1494,-7.1494,-7.1494,-7.1494,-7.1494,-7.1494,-7.1494,-7.1494,-7.1494,-7.1494,-7.1494,-7.1494,-7.1494,-7.1494,-7.1494,-7.1494,-7.1494,-7.1494,-7.1494,-7.1463,-7.1399,-7.1171,-7.0575,-6.9672,-6.8409,-6.7029,-6.6516,-6.6215,-6.6042,-6.5867,-6.5647,-6.547,-6.5425,-6.5425,-7.1489,-7.1374,-7.252,-7.3437,-7.4354,-7.5462,-7.5959,-7.6112,-7.6876,-7.7678,-7.8557,-7.9342,-7.9953,-8.0411,-8.045,-8.045,-8.0506,-8.0506,-8.0506,-8.043,-8.0238,-7.9742,-7.934,-7.8614,-7.7602,-7.6876,-7.6341,-7.5844,-7.5594,-7.5518,-7.5518,-7.5518,-7.5518,-7.5518,-7.5518,-7.5518,-7.5518,-7.4945,-7.4087,-7.3246,-7.2351,-7.1324,-7.062,-7.0319,-7.0307,-7.0289,-7.0272,-7.0255,-7.0238,-7.022,-7.022,-7.0185,-7.0185,-7.0185,-7.0255,-7.0255,-7.0255,-7.0234,-7.0217,-7.0234,-7.0272,-7.0203,-6.9947,-6.9564,-6.8922,-6.8392,-6.8035,-6.7736,-6.7488,-6.7247,-6.7247,-6.7255,-6.736,-6.7462,-6.8384,-6.934,-7.0077,-7.0842,-7.1205,-7.1422,-7.1494,-7.1494,-7.1494,-7.1494,-7.1494,-7.1494,-7.1494,-7.1494,-7.1494,-7.1494,-7.1494,-7.1494,-7.1494,-7.1494,-7.1494,-7.1494,-7.1494,-7.1494,-7.1494,-7.1494,-7.1494,-7.1399,-7.1171,-7.0404,-6.942,-6.8293,-6.7243,-6.6728,-6.6378,-6.6172,-6.5955,-6.5736,-6.5514,-6.5425,-6.5425,-7.1489,-7.0992,-7.252,-7.3781,-7.4584,-7.6036,-7.6761,-7.6991,-7.7793,-7.8519,-7.9302,-8.0124,-8.043,-8.0506,-8.0487,-8.0487,-8.0506,-8.0506,-8.0506,-8.0468,-8.0009,-7.9513,-7.8672,-7.7678,-7.7144,-7.6532,-7.6036,-7.5671,-7.5556,-7.5518,-7.5518,-7.5518,-7.5518,-7.5518,-7.5518,-7.5518,-7.548,-7.5212,-7.4049,-7.2979,-7.252,-7.1527,-7.0402,-7.0402,-7.0386,-7.0386,-7.0369,-7.0336,-7.0324,-7.0307,-7.0272,-7.022,-7.0238,-7.0238,-7.0286,-7.0319,-7.0319,-7.0336,-7.0353,-7.0369,-7.0336,-7.0319,-7.0286,-7.0019,-6.9468,-6.8728,-6.832,-6.7996,-6.7694,-6.7497,-6.7414,-6.7595,-6.7745,-6.8168,-6.8945,-6.9624,-7.0258,-7.0915,-7.135,-7.1494,-7.1494,-7.1494,-7.1494,-7.1494,-7.1494,-7.1494,-7.1494,-7.1494,-7.1494,-7.1494,-7.1494,-7.1494,-7.1494,-7.1494,-7.1494,-7.1494,-7.1494,-7.1494,-7.1494,-7.1494,-7.1494,-7.1368,-7.1171,-7.0233,-6.9238,-6.86,-6.7776,-6.7112,-6.6507,-6.6259,-6.6042,-6.578,-6.5603,-6.547,-6.5425,-7.3476,-7.3399,-7.4469,-7.5348,-7.6074,-7.6532,-7.7487,-7.8634,-7.8863,-7.9092,-7.9416,-8.0086,-8.0506,-8.0506,-8.0506,-8.0506,-8.0506,-8.0506,-8.0506,-8.0468,-8.0124,-7.9245,-7.8519,-7.7717,-7.6914,-7.6036,-7.5594,-7.5518,-7.5518,-7.5518,-7.5518,-7.5518,-7.5518,-7.5518,-7.5518,-7.5518,-7.5442,-7.5365,-7.3972,-7.3055,-7.275,-7.1527,-7.0402,-7.0402,-7.0402,-7.0402,-7.0402,-7.0386,-7.0369,-7.0369,-7.0369,-7.0353,-7.0353,-7.0353,-7.0369,-7.0402,-7.0386,-7.0386,-7.0402,-7.0402,-7.0386,-7.0386,-7.0369,-7.0298,-6.9907,-6.9143,-6.8581,-6.8259,-6.7982,-6.7784,-6.7689,-6.7926,-6.8231,-6.8837,-6.9477,-6.9975,-7.0439,-7.0915,-7.1458,-7.1494,-7.1494,-7.1494,-7.1494,-7.1494,-7.1494,-7.1494,-7.1494,-7.1494,-7.1494,-7.1494,-7.1494,-7.1494,-7.1494,-7.1494,-7.1494,-7.1494,-7.1494,-7.1494,-7.1494,-7.1494,-7.1494,-7.1399,-7.1204,-7.0095,-6.9091,-6.8638,-6.8014,-6.7154,-6.6643,-6.6345,-6.6129,-6.5867,-6.5647,-6.5514,-6.547,-7.4201,-7.4354,-7.5539,-7.6303,-7.6761,-7.7487,-7.8404,-7.9263,-7.9684,-7.9818,-7.9856,-8.0277,-8.0506,-8.0506,-8.0506,-8.0506,-8.0506,-8.0506,-8.0506,-8.0468,-8.0047,-7.9092,-7.8366,-7.7678,-7.6647,-7.573,-7.5556,-7.5518,-7.5518,-7.5518,-7.5518,-7.5518,-7.5518,-7.5518,-7.5518,-7.5518,-7.5518,-7.5442,-7.3819,-7.3132,-7.2826,-7.1489,-7.0479,-7.0402,-7.0402,-7.0402,-7.0402,-7.0402,-7.0402,-7.0402,-7.0402,-7.0402,-7.0402,-7.0386,-7.0402,-7.0402,-7.0402,-7.0402,-7.0402,-7.0402,-7.0402,-7.0402,-7.0402,-7.0369,-7.0264,-6.9548,-6.9134,-6.878,-6.8321,-6.8058,-6.7994,-6.8174,-6.8685,-6.9303,-6.99,-7.0447,-7.0832,-7.1241,-7.1494,-7.1494,-7.1494,-7.1494,-7.1494,-7.1494,-7.1494,-7.1494,-7.1494,-7.1639,-7.1603,-7.1784,-7.1712,-7.1603,-7.1675,-7.1567,-7.1494,-7.1494,-7.1494,-7.1494,-7.1494,-7.1494,-7.1494,-7.1463,-7.1139,-7.0302,-6.9529,-6.8905,-6.8254,-6.7325,-6.6643,-6.6268,-6.6095,-6.5999,-6.578,-6.5559,-6.547,-7.4393,-7.4584,-7.6036,-7.6685,-7.6914,-7.8404,-7.9149,-7.9416,-8.0009,-8.0353,-8.043,-8.0468,-8.0506,-8.0506,-8.0506,-8.0506,-8.0506,-8.0506,-8.0506,-8.0315,-7.9895,-7.9054,-7.8175,-7.7335,-7.6494,-7.5883,-7.5556,-7.5518,-7.5518,-7.5518,-7.5518,-7.5518,-7.5518,-7.5518,-7.5518,-7.5518,-7.5518,-7.5098,-7.4087,-7.317,-7.2291,-7.1374,-7.067,-7.0402,-7.0402,-7.0402,-7.0402,-7.0402,-7.0402,-7.0402,-7.0402,-7.0402,-7.0402,-7.0402,-7.0402,-7.0402,-7.0402,-7.0402,-7.0402,-7.0402,-7.0402,-7.0402,-7.0402,-7.0386,-7.0281,-6.9999,-6.9584,-6.9219,-6.8734,-6.8493,-6.8481,-6.8736,-6.9293,-6.9718,-7.0324,-7.0847,-7.1195,-7.1494,-7.1494,-7.1494,-7.1494,-7.1494,-7.1531,-7.1531,-7.1603,-7.1603,-7.1675,-7.1748,-7.1893,-7.2255,-7.24,-7.2146,-7.2001,-7.1857,-7.1603,-7.1494,-7.1494,-7.1494,-7.1494,-7.1494,-7.1494,-7.1494,-7.1336,-7.0943,-7.0198,-6.9202,-6.837,-6.7529,-6.687,-6.6268,-6.6139,-6.6009,-6.5834,-6.5647,-6.547,-7.5271,-7.5348,-7.6303,-7.6685,-7.6876,-7.7831,-7.8634,-7.9245,-7.9454,-7.9856,-8.0353,-8.0506,-8.0506,-8.0506,-8.0506,-8.0506,-8.0506,-8.0506,-8.0506,-8.0391,-8.02,-7.9245,-7.8175,-7.7296,-7.6723,-7.6053,-7.5518,-7.5518,-7.5518,-7.5518,-7.5518,-7.5518,-7.5518,-7.5518,-7.5518,-7.5518,-7.5442,-7.4983,-7.4049,-7.2979,-7.2482,-7.1603,-7.0632,-7.0402,-7.0402,-7.0402,-7.0402,-7.0402,-7.0402,-7.0402,-7.0402,-7.0402,-7.0402,-7.0402,-7.0402,-7.0402,-7.0402,-7.0402,-7.0402,-7.0402,-7.0402,-7.0402,-7.0402,-7.0402,-7.0264,-7.0091,-6.9778,-6.972,-6.9357,-6.9109,-6.915,-6.9718,-7.0222,-7.0421,-7.0807,-7.1095,-7.1422,-7.1494,-7.1494,-7.1494,-7.1494,-7.1567,-7.1675,-7.1784,-7.2038,-7.2146,-7.2472,-7.2581,-7.2943,-7.3052,-7.3124,-7.2798,-7.2472,-7.2001,-7.1675,-7.1531,-7.1494,-7.1494,-7.1494,-7.1494,-7.1494,-7.1494,-7.1336,-7.1042,-7.0164,-6.9054,-6.8293,-6.7731,-6.7071,-6.6516,-6.6225,-6.6052,-6.5878,-6.5658,-6.5514]},{"header":{"parameterUnit":"m.s-1","parameterCategory":1,"la1":31.0,"la2":29.5877,"lo1":-88.7671,"lo2":-86.6584,"dx":0.0162,"dy":0.0185,"nx":115,"ny":88,"refTime":"2023-01-07T06:00:00:Z","depth":0,"parameterNumber":3,"parameterNumberName":"V-component_of_WINDS"},"data":[0.0,0.0,0.0,0.0,0.0,0.0,0.0,0.0,0.0,0.0,0.0,0.0,0.0,0.0,0.0,0.0,0.0,0.0,0.0,0.0,0.0,0.0,0.0,0.0,0.0,0.0,0.0,0.0,0.0,0.0,0.0,0.0,0.0,0.0,0.0,0.0,0.0,0.0,0.0,0.0,0.0,0.0,0.0,0.0,0.0,0.0,0.0,0.0,0.0,0.0,0.0,0.0,0.0,0.0,0.0,0.0,0.0,0.0,0.0,0.0,0.0,0.0,0.0,0.0,0.0,0.0,0.0,0.0,0.0,0.0,0.0,0.0,0.0,0.0,0.0,0.0,0.0,0.0,0.0,0.0,0.0,0.0,0.0,0.0,0.0,0.0,0.0,0.0,0.0,0.0,0.0,0.0,0.0,0.0,0.0,0.0,0.0,0.0,0.0,0.0,0.0,0.0,0.0,0.0,0.0,0.0,0.0,0.0,0.0,0.0,0.0,0.0,0.0,0.0,0.0,0.0,0.0,0.0,0.0,0.0,0.0,0.0,0.0,0.0,0.0,0.0,0.0,0.0,0.0,0.0,0.0,0.0,0.0,0.0,0.0,0.0,0.0,0.0,0.0,0.0,0.0,0.0,0.0,0.0,0.0,0.0,0.0,0.0,0.0,0.0,0.0,0.0,0.0,0.0,0.0,0.0,0.0,0.0,0.0,0.0,0.0,0.0,0.0,0.0,0.0,0.0,0.0,0.0,0.0,0.0,0.0,0.0,0.0,0.0,0.0,0.0,0.0,0.0,0.0,0.0,0.0,0.0,0.0,0.0,0.0,0.0,0.0,0.0,0.0,0.0,0.0,0.0,0.0,0.0,0.0,0.0,0.0,0.0,0.0,0.0,0.0,0.0,0.0,0.0,0.0,0.0,0.0,0.0,0.0,0.0,0.0,0.0,0.0,0.0,0.0,0.0,0.0,0.0,0.0,0.0,0.0,0.0,0.0,0.0,0.0,0.0,0.0,0.0,0.0,0.0,0.0,0.0,0.0,0.0,0.0,0.0,0.0,0.0,0.0,0.0,0.0,0.0,0.0,0.0,0.0,0.0,0.0,0.0,0.0,0.0,0.0,0.0,0.0,0.0,0.0,0.0,0.0,0.0,0.0,0.0,0.0,0.0,0.0,0.0,0.0,0.0,0.0,0.0,0.0,0.0,0.0,0.0,0.0,0.0,0.0,0.0,0.0,0.0,0.0,0.0,0.0,0.0,0.0,0.0,0.0,0.0,0.0,0.0,0.0,0.0,0.0,0.0,0.0,0.0,0.0,0.0,0.0,0.0,0.0,0.0,0.0,0.0,0.0,0.0,0.0,0.0,0.0,0.0,0.0,0.0,0.0,0.0,0.0,0.0,0.0,0.0,0.0,0.0,0.0,0.0,0.0,0.0,0.0,0.0,0.0,0.0,0.0,0.0,0.0,0.0,0.0,0.0,0.0,0.0,0.0,0.0,0.0,0.0,0.0,0.0,0.0,0.0,0.0,0.0,0.0,0.0,0.0,0.0,0.0,0.0,0.0,0.0,0.0,0.0,0.0,0.0,0.0,0.0,0.0,0.0,0.0,0.0,0.0,0.0,0.0,0.0,0.0,0.0,0.0,0.0,0.0,0.0,0.0,0.0,0.0,0.0,0.0,0.0,0.0,0.0,0.0,0.0,0.0,0.0,0.0,0.0,0.0,0.0,0.0,0.0,0.0,0.0,0.0,0.0,0.0,0.0,0.0,0.0,0.0,0.0,0.0,0.0,0.0,0.0,0.0,0.0,0.0,0.0,0.0,0.0,0.0,0.0,0.0,0.0,0.0,0.0,0.0,0.0,0.0,0.0,0.0,0.0,0.0,0.0,0.0,0.0,0.0,0.0,0.0,0.0,0.0,0.0,0.0,0.0,0.0,0.0,0.0,0.0,0.0,0.0,0.0,0.0,0.0,0.0,0.0,0.0,0.0,0.0,0.0,0.0,0.0,0.0,0.0,0.0,0.0,0.0,0.0,0.0,0.0,0.0,0.0,0.0,0.0,0.0,0.0,0.0,0.0,0.0,0.0,0.0,0.0,0.0,0.0,0.0,0.0,0.0,0.0,0.0,0.0,0.0,0.0,0.0,0.0,0.0,0.0,0.0,0.0,0.0,0.0,0.0,0.0,0.0,0.0,0.0,0.0,0.0,0.0,0.0,0.0,0.0,0.0,0.0,0.0,0.0,0.0,0.0,0.0,0.0,0.0,0.0,0.0,0.0,0.0,0.0,0.0,0.0,0.0,0.0,0.0,0.0,0.0,0.0,0.0,0.0,0.0,0.0,0.0,0.0,0.0,0.0,0.0,0.0,0.0,0.0,0.0,0.0,0.0,0.0,0.0,0.0,0.0,0.0,0.0,0.0,0.0,0.0,0.0,0.0,0.0,0.0,0.0,0.0,0.0,0.0,0.0,0.0,0.0,0.0,0.0,0.0,0.0,0.0,0.0,0.0,0.0,0.0,0.0,0.0,0.0,0.0,0.0,0.0,0.0,0.0,0.0,0.0,0.0,0.0,0.0,0.0,0.0,0.0,0.0,0.0,0.0,0.0,0.0,0.0,0.0,0.0,0.0,0.0,0.0,0.0,0.0,0.0,0.0,0.0,0.0,0.0,0.0,0.0,0.0,0.0,0.0,0.0,0.0,0.0,0.0,0.0,0.0,0.0,0.0,0.0,0.0,0.0,0.0,0.0,0.0,0.0,0.0,0.0,0.0,0.0,0.0,0.0,0.0,0.0,0.0,0.0,0.0,0.0,0.0,0.0,0.0,0.0,0.0,0.0,0.0,0.0,0.0,0.0,0.0,0.0,0.0,0.0,0.0,0.0,0.0,0.0,0.0,0.0,0.0,0.0,0.0,0.0,0.0,0.0,0.0,0.0,0.0,0.0,0.0,0.0,0.0,0.0,0.0,0.0,0.0,0.0,0.0,0.0,0.0,0.0,0.0,0.0,0.0,0.0,0.0,0.0,0.0,0.0,0.0,0.0,0.0,0.0,0.0,0.0,0.0,0.0,0.0,0.0,0.0,0.0,0.0,0.0,0.0,0.0,0.0,0.0,0.0,0.0,0.0,0.0,0.0,0.0,0.0,0.0,0.0,0.0,0.0,0.0,0.0,0.0,0.0,0.0,0.0,0.0,0.0,0.0,0.0,0.0,0.0,0.0,0.0,0.0,0.0,0.0,0.0,0.0,0.0,0.0,0.0,0.0,0.0,0.0,0.0,0.0,0.0,0.0,0.0,0.0,0.0,0.0,0.0,0.0,0.0,0.0,0.0,0.0,0.0,0.0,0.0,0.0,0.0,0.0,0.0,0.0,0.0,0.0,0.0,0.0,0.0,0.0,0.0,0.0,0.0,0.0,0.0,0.0,0.0,0.0,0.0,0.0,0.0,0.0,0.0,0.0,0.0,0.0,0.0,0.0,0.0,0.0,0.0,0.0,0.0,0.0,0.0,0.0,0.0,0.0,0.0,0.0,0.0,0.0,0.0,0.0,0.0,0.0,0.0,0.0,0.0,0.0,0.0,0.0,0.0,0.0,0.0,0.0,0.0,0.0,0.0,0.0,0.0,0.0,0.0,0.0,0.0,0.0,0.0,0.0,0.0,0.0,0.0,0.0,0.0,0.0,0.0,0.0,0.0,0.0,0.0,0.0,0.0,0.0,0.0,0.0,0.0,0.0,0.0,0.0,0.0,0.0,0.0,0.0,0.0,0.0,0.0,0.0,0.0,0.0,0.0,0.0,0.0,0.0,0.0,0.0,0.0,0.0,0.0,0.0,0.0,0.0,0.0,0.0,0.0,0.0,0.0,0.0,0.0,0.0,0.0,0.0,0.0,0.0,0.0,0.0,0.0,0.0,0.0,0.0,0.0,0.0,0.0,0.0,0.0,0.0,0.0,0.0,0.0,0.0,0.0,0.0,0.0,0.0,0.0,0.0,0.0,0.0,0.0,0.0,0.0,0.0,0.0,0.0,0.0,0.0,0.0,0.0,0.0,0.0,0.0,0.0,0.0,0.0,0.0,0.0,0.0,0.0,0.0,0.0,0.0,0.0,0.0,0.0,0.0,0.0,0.0,0.0,0.0,0.0,0.0,0.0,0.0,0.0,0.0,0.0,0.0,0.0,0.0,0.0,0.0,0.0,0.0,0.0,0.0,0.0,0.0,0.0,0.0,0.0,0.0,0.0,0.0,0.0,0.0,0.0,0.0,0.0,0.0,0.0,1.1195,0.0,0.0,0.0,1.1493,0.0,0.0,0.0,0.0,0.0,0.0,0.0,0.0,0.0,0.0,0.0,0.0,0.0,0.0,0.0,0.0,0.0,0.0,0.0,0.0,0.0,0.0,0.0,0.0,0.0,0.0,0.0,0.0,0.0,0.0,0.0,0.0,0.0,0.0,0.0,0.0,0.0,0.0,0.0,0.0,0.0,0.0,0.0,0.0,0.0,0.0,0.0,0.0,0.0,0.0,0.0,0.0,0.0,0.0,0.0,0.0,0.0,0.0,0.0,0.0,0.0,0.0,0.0,0.0,0.0,0.0,0.0,0.0,0.0,0.0,0.0,0.0,0.0,0.0,0.0,0.0,0.0,0.0,0.0,0.0,0.0,0.0,0.0,0.0,0.0,0.0,0.0,0.0,0.0,0.0,0.0,0.0,0.0,0.0,0.0,0.0,0.0,0.0,0.0,0.0,0.0,0.0,0.0,0.0,0.0,0.0,0.0,0.0,0.0,0.0,1.1195,1.1384,1.1424,1.1421,1.1515,0.0,0.0,0.0,0.0,0.0,0.0,0.0,0.0,0.0,0.0,0.0,0.0,0.0,0.0,0.0,0.0,0.0,0.0,0.0,0.0,0.0,0.0,0.0,0.0,0.0,0.0,0.0,0.0,0.0,0.0,0.0,0.0,0.0,0.0,0.0,0.0,0.0,0.0,0.0,0.0,0.0,0.0,0.0,0.0,0.0,0.0,0.0,0.0,0.0,0.0,0.0,0.0,0.0,0.0,0.0,0.0,0.0,0.0,0.0,0.0,0.0,0.0,0.0,0.0,0.0,0.0,0.0,0.0,0.0,0.0,0.0,0.0,0.0,0.0,0.0,0.0,0.0,0.0,0.0,0.0,0.0,0.0,0.0,0.0,0.0,0.0,0.0,0.0,0.0,0.0,0.0,0.0,0.0,0.0,0.0,0.0,0.0,0.0,0.0,0.0,0.0,0.0,0.0,0.0,0.0,0.0,0.0,0.0,0.0,0.0,0.0,0.0,1.1491,1.1592,1.1667,0.0,0.0,0.0,0.0,0.0,0.0,0.0,0.0,0.0,0.0,0.0,0.0,0.0,0.0,0.0,0.0,0.0,0.0,0.0,0.0,0.0,0.0,0.0,0.0,0.0,0.0,0.0,0.0,0.0,0.0,0.0,0.0,0.0,0.0,0.0,0.0,0.0,0.0,0.0,0.0,0.0,0.0,0.0,0.0,0.0,0.0,0.0,0.0,0.0,0.0,0.0,0.0,0.0,0.0,0.0,0.0,0.0,0.0,0.0,0.0,0.0,0.0,0.0,0.0,0.0,0.0,0.0,0.0,0.0,0.0,0.0,0.0,0.0,0.0,0.0,0.0,0.0,0.0,0.0,0.0,0.0,0.0,0.0,0.0,0.0,0.0,0.0,0.0,0.0,0.0,0.0,0.0,0.0,0.0,0.0,0.0,0.0,0.0,0.0,0.0,0.0,0.0,0.0,0.0,0.0,0.0,0.0,0.0,0.0,0.0,1.1139,1.1214,1.1754,0.0,1.2103,0.0,0.0,0.0,0.0,0.0,0.0,0.0,0.0,0.0,0.0,0.0,0.0,0.0,0.0,0.0,0.0,0.0,0.0,0.0,0.0,0.0,0.0,0.0,0.0,0.0,0.0,0.0,0.0,0.0,0.0,0.0,0.0,0.0,0.0,0.0,0.0,0.0,0.0,0.0,0.0,0.0,0.0,0.0,0.0,0.0,0.0,0.0,0.0,0.0,0.0,0.0,0.0,0.0,0.0,0.0,0.0,0.0,0.0,0.0,0.0,0.0,0.0,0.0,0.0,0.0,0.0,0.0,0.0,0.0,0.0,0.0,0.0,0.0,0.0,0.0,0.0,0.0,0.0,0.0,0.0,0.0,0.0,0.0,0.0,0.0,0.0,0.0,0.0,0.0,0.0,0.0,0.0,0.0,0.0,0.0,0.0,0.0,0.0,0.0,0.0,0.0,0.0,0.0,0.0,0.0,0.0,0.0,0.0,0.0,0.0,1.1706,1.2143,1.2397,1.2415,0.0,0.0,0.0,0.0,0.0,0.0,0.0,0.0,0.0,0.0,0.0,0.0,0.0,0.0,0.0,0.0,0.0,0.0,0.0,0.0,0.0,0.0,0.0,0.0,0.0,0.0,0.0,0.0,0.0,0.0,0.0,0.0,0.0,0.0,0.0,0.0,0.0,0.0,0.0,0.0,0.0,0.0,0.0,0.0,0.0,0.0,0.0,0.0,0.0,0.0,0.0,0.0,0.0,0.0,0.0,0.0,0.0,0.0,0.0,0.0,0.0,0.0,0.0,0.0,0.0,0.0,0.0,0.0,0.0,0.0,0.0,0.0,0.0,0.0,0.0,0.0,0.0,0.0,0.0,0.0,0.0,0.0,0.0,0.0,0.0,0.0,0.0,0.0,0.0,0.0,0.0,0.0,0.0,0.0,0.0,0.0,0.0,0.0,0.0,0.0,0.0,0.0,0.0,0.0,0.0,0.0,0.0,0.0,0.0,0.0,1.2066,1.2552,1.3195,1.2957,1.274,1.2625,0.0,0.0,0.0,0.0,0.0,0.0,0.0,0.0,0.0,0.0,0.0,0.0,0.0,0.0,0.0,0.0,0.0,0.0,0.0,0.0,0.0,0.0,0.0,0.0,0.0,0.0,0.0,0.0,0.0,0.0,0.0,0.0,0.0,0.0,0.0,0.0,0.0,0.0,0.0,0.0,0.0,0.0,0.0,0.0,0.0,0.0,0.0,0.0,0.0,0.0,0.0,0.0,0.0,0.0,0.0,0.0,0.0,0.0,0.0,0.0,0.0,0.0,0.0,0.0,0.0,0.0,0.0,0.0,0.0,0.0,0.0,0.0,0.0,0.0,0.0,0.0,0.0,0.0,0.0,0.0,0.0,0.0,0.0,0.0,0.0,0.0,0.0,0.0,0.0,0.0,0.0,0.0,0.0,0.0,0.0,0.0,0.0,0.0,0.0,0.0,0.0,0.0,0.0,0.0,0.0,0.0,0.0,0.0,1.1836,1.2764,1.358,1.4286,1.3325,1.3086,0.0,0.0,0.0,0.0,0.0,0.0,0.0,0.0,0.0,0.0,0.0,0.0,0.0,0.0,0.0,0.0,0.0,0.0,0.0,0.0,0.0,0.0,0.0,0.0,0.0,0.0,0.0,0.0,0.0,0.0,0.0,0.0,0.0,0.0,0.0,0.0,0.0,0.0,0.0,0.0,0.0,0.0,0.0,0.0,0.0,0.0,0.0,0.0,0.0,0.0,0.0,0.0,0.0,0.0,0.0,0.0,0.0,0.0,0.0,0.0,0.0,0.0,0.0,0.0,0.0,0.0,0.0,0.0,0.0,0.0,0.0,0.0,0.0,0.0,0.0,0.0,0.0,0.0,0.0,0.0,0.0,0.0,0.0,0.0,0.0,0.0,0.0,0.0,0.0,0.0,0.0,0.0,0.0,0.0,0.0,0.0,0.0,0.0,0.0,0.0,0.0,0.0,0.0,0.0,0.0,0.0,0.0,0.0,0.0,1.3055,1.4193,1.4941,1.5266,1.4842,1.445,0.0,0.0,0.0,0.0,0.0,0.0,0.0,0.0,0.0,0.0,0.0,0.0,0.0,0.0,0.0,0.0,0.0,0.0,0.0,0.0,0.0,0.0,0.0,0.0,0.0,0.0,0.0,0.0,0.0,0.0,0.0,0.0,0.0,0.0,0.0,0.0,0.0,0.0,0.0,0.0,0.0,0.0,0.0,0.0,0.0,0.0,0.0,0.0,0.0,0.0,0.0,0.0,0.0,0.0,0.0,0.0,0.0,0.0,0.0,0.0,0.0,0.0,0.0,0.0,0.0,0.0,0.0,0.0,0.0,0.0,0.0,0.0,0.0,0.0,0.0,0.0,0.0,0.0,0.0,0.0,0.0,0.0,0.0,0.0,0.0,0.0,0.0,0.0,0.0,0.0,0.0,0.0,0.0,0.0,0.0,0.0,0.0,0.0,0.0,0.0,0.0,0.0,0.0,0.0,0.0,0.0,0.0,0.0,0.0,1.444,1.5199,1.5722,1.5981,1.5799,1.5408,0.0,0.0,0.0,0.0,0.0,0.0,0.0,0.0,0.0,0.0,0.0,0.0,0.0,0.0,0.0,0.0,0.0,0.0,0.0,0.0,0.0,0.0,0.0,0.0,0.0,0.0,0.0,0.0,0.0,0.0,0.0,0.0,0.0,0.0,0.0,0.0,0.0,0.0,0.0,0.0,0.0,0.0,0.0,0.0,0.0,0.0,0.0,0.0,0.0,0.0,0.0,0.0,0.0,0.0,0.0,0.0,0.0,0.0,0.0,0.0,0.0,0.0,0.0,0.0,0.0,0.0,0.0,0.0,0.0,0.0,0.0,0.0,0.0,0.0,0.0,0.0,0.0,0.0,0.0,0.0,0.0,0.0,0.0,0.0,0.0,0.0,0.0,0.0,0.0,0.0,0.0,0.0,0.0,0.0,0.0,0.0,0.0,0.0,0.0,0.0,0.0,0.0,0.0,0.0,0.0,0.0,0.0,0.0,1.4048,1.5783,1.5732,1.6007,1.6487,1.6116,1.5854,0.0,0.0,0.0,0.0,0.0,0.0,0.0,0.0,0.0,0.0,0.0,0.0,0.0,0.0,0.0,0.0,0.0,0.0,0.0,0.0,0.0,0.0,0.0,0.0,0.0,0.0,0.0,0.0,0.0,0.0,0.0,0.0,0.0,0.0,0.0,0.0,0.0,0.0,0.0,0.0,0.0,0.0,0.0,0.0,0.0,0.0,0.0,0.0,0.0,0.0,0.0,0.0,0.0,0.0,0.0,0.0,0.0,0.0,0.0,0.0,0.0,0.0,0.0,0.0,0.0,0.0,0.0,0.0,0.0,0.0,0.0,0.0,0.0,0.0,0.0,0.0,0.0,0.0,0.0,0.0,0.0,0.0,0.0,0.0,0.0,0.0,0.0,0.0,0.0,0.0,0.0,0.0,0.0,0.0,0.0,0.0,0.0,0.0,0.0,0.0,0.0,0.0,0.0,0.0,0.0,0.0,0.0,0.0,0.0,1.635,1.7034,1.7607,1.7999,1.7562,1.7113,0.0,0.0,0.0,0.0,0.0,0.0,0.0,0.0,0.0,0.0,0.0,0.0,0.0,0.0,0.0,0.0,0.0,0.0,0.0,0.0,0.0,0.0,0.0,0.0,0.0,0.0,0.0,0.0,0.0,0.0,0.0,0.0,0.0,0.0,0.0,0.0,0.0,0.0,0.0,0.0,0.0,0.0,0.0,0.0,0.0,0.0,0.0,0.0,0.0,0.0,0.0,0.0,0.0,0.0,0.0,0.0,0.0,0.0,0.0,0.0,0.0,0.0,0.0,0.0,0.0,0.0,0.0,0.0,0.0,0.0,0.0,0.0,0.0,0.0,0.0,0.0,0.0,0.0,0.0,0.0,0.0,0.0,0.0,0.0,0.0,0.0,0.0,0.0,0.0,0.0,0.0,0.0,0.0,0.0,0.0,0.0,0.0,0.0,0.0,0.0,0.0,0.0,0.0,0.0,0.0,0.0,0.0,0.0,0.0,1.779,1.8322,1.8839,1.9358,1.8924,1.83,1.755,0.0,0.0,0.0,0.0,0.0,0.0,0.0,0.0,0.0,0.0,0.0,0.0,0.0,0.0,0.0,0.0,0.0,0.0,0.0,0.0,0.0,0.0,0.0,0.0,0.0,0.0,0.0,0.0,0.0,0.0,0.0,0.0,0.0,0.0,0.0,0.0,0.0,0.0,0.0,0.0,0.0,0.0,0.0,0.0,0.0,0.0,0.0,0.0,0.0,0.0,0.0,0.0,0.0,0.0,0.0,0.0,0.0,0.0,0.0,0.0,0.0,0.0,0.0,0.0,0.0,0.0,0.0,0.0,0.0,0.0,0.0,0.0,0.0,0.0,0.0,0.0,0.0,0.0,0.0,0.0,0.0,0.0,0.0,0.0,0.0,0.0,0.0,0.0,0.0,0.0,0.0,0.0,0.0,0.0,0.0,0.0,0.0,0.0,0.0,0.0,0.0,0.0,0.0,0.0,0.0,0.0,0.0,0.0,1.9872,1.9614,1.9885,2.0586,2.0114,1.9426,0.0,0.0,0.0,0.0,0.0,0.0,0.0,0.0,0.0,0.0,0.0,0.0,0.0,0.0,0.0,0.0,0.0,0.0,0.0,0.0,0.0,0.0,0.0,0.0,0.0,0.0,0.0,0.0,0.0,0.0,0.0,0.0,0.0,0.0,0.0,0.0,0.0,0.0,0.0,0.0,0.0,0.0,0.0,0.0,0.0,0.0,0.0,0.0,0.0,0.0,0.0,0.0,0.0,0.0,0.0,0.0,0.0,0.0,0.0,0.0,0.0,0.0,0.0,0.0,0.0,0.0,0.0,0.0,0.0,0.0,0.0,0.0,0.0,0.0,0.0,0.0,0.0,0.0,0.0,0.0,0.0,0.0,0.0,0.0,0.0,0.0,0.0,0.0,0.0,0.0,0.0,0.0,0.0,0.0,0.0,0.0,0.0,0.0,0.0,0.0,0.0,0.0,0.0,0.0,0.0,0.0,0.0,0.0,0.0,2.0974,2.1449,2.1823,2.2084,2.0847,1.9916,0.0,0.0,0.0,0.0,0.0,0.0,0.0,0.0,0.0,0.0,0.0,0.0,0.0,0.0,0.0,0.0,0.0,0.0,0.0,0.0,0.0,0.0,0.0,0.0,0.0,0.0,0.0,0.0,0.0,0.0,0.0,0.0,0.0,0.0,0.0,0.0,0.0,0.0,0.0,0.0,0.0,0.0,0.0,0.0,0.0,0.0,0.0,0.0,0.0,0.0,0.0,0.0,0.0,0.0,0.0,0.0,0.0,0.0,0.0,0.0,0.0,0.0,0.0,0.0,0.0,0.0,0.0,0.0,0.0,0.0,0.0,0.0,0.0,0.0,0.0,0.0,0.0,0.0,0.0,0.0,0.0,0.0,0.0,0.0,0.0,0.0,0.0,0.0,0.0,0.0,0.0,0.0,0.0,0.0,0.0,0.0,0.0,0.0,0.0,0.0,0.0,0.0,0.0,0.0,0.0,0.0,0.0,0.0,2.0155,2.1586,2.2381,2.2882,2.3037,2.1564,2.049,0.0,0.0,0.0,0.0,0.0,0.0,0.0,0.0,0.0,0.0,0.0,0.0,0.0,0.0,0.0,0.0,0.0,0.0,0.0,0.0,0.0,0.0,0.0,0.0,0.0,0.0,0.0,0.0,0.0,0.0,0.0,0.0,0.0,0.0,0.0,0.0,0.0,0.0,0.0,0.0,0.0,0.0,0.0,0.0,0.0,0.0,0.0,0.0,0.0,0.0,0.0,0.0,0.0,0.0,0.0,0.0,0.0,0.0,0.0,0.0,0.0,0.0,0.0,0.0,0.0,0.0,0.0,0.0,0.0,0.0,0.0,0.0,0.0,0.0,0.0,0.0,0.0,0.0,0.0,0.0,0.0,0.0,0.0,0.0,0.0,0.0,0.0,0.0,0.0,0.0,0.0,0.0,0.0,0.0,0.0,0.0,0.0,0.0,0.0,0.0,0.0,0.0,0.0,0.0,0.0,0.0,0.0,0.0,2.0781,2.1859,2.2687,2.3223,2.3425,2.2147,2.1051,0.0,0.0,0.0,0.0,0.0,0.0,0.0,0.0,0.0,0.0,0.0,0.0,0.0,0.0,0.0,0.0,0.0,0.0,0.0,0.0,0.0,0.0,0.0,0.0,0.0,0.0,0.0,0.0,0.0,0.0,0.0,0.0,0.0,0.0,0.0,0.0,0.0,0.0,0.0,0.0,0.0,0.0,0.0,0.0,0.0,0.0,0.0,0.0,0.0,0.0,0.0,0.0,0.0,0.0,0.0,0.0,0.0,0.0,0.0,0.0,0.0,0.0,0.0,0.0,0.0,0.0,0.0,0.0,0.0,0.0,0.0,0.0,0.0,0.0,0.0,0.0,0.0,0.0,0.0,0.0,0.0,0.0,0.0,0.0,0.0,0.0,0.0,0.0,0.0,0.0,0.0,0.0,0.0,0.0,0.0,0.0,0.0,0.0,0.0,0.0,0.0,0.0,0.0,0.0,0.0,0.0,0.0,0.0,2.0978,2.2315,2.2542,2.2851,2.3244,2.2268,2.1386,0.0,0.0,0.0,0.0,0.0,0.0,0.0,0.0,0.0,0.0,0.0,0.0,0.0,0.0,0.0,0.0,0.0,0.0,0.0,0.0,0.0,0.0,0.0,0.0,0.0,0.0,0.0,0.0,0.0,0.0,0.0,0.0,0.0,0.0,0.0,0.0,0.0,0.0,0.0,0.0,0.0,0.0,0.0,0.0,0.0,0.0,0.0,0.0,2.6952,0.0,0.0,0.0,0.0,0.0,0.0,0.0,0.0,0.0,0.0,0.0,0.0,0.0,0.0,0.0,0.0,0.0,0.0,0.0,0.0,0.0,0.0,0.0,0.0,0.0,0.0,0.0,0.0,0.0,0.0,0.0,0.0,0.0,0.0,0.0,0.0,0.0,0.0,0.0,0.0,0.0,0.0,0.0,0.0,0.0,0.0,0.0,0.0,0.0,0.0,0.0,0.0,0.0,0.0,0.0,0.0,0.0,0.0,0.0,2.1312,2.2749,2.2604,2.2708,2.3143,2.2501,2.1628,0.0,0.0,0.0,0.0,0.0,0.0,0.0,0.0,0.0,0.0,0.0,0.0,0.0,0.0,0.0,0.0,0.0,0.0,0.0,0.0,0.0,0.0,0.0,0.0,0.0,0.0,0.0,0.0,0.0,0.0,0.0,0.0,0.0,0.0,0.0,0.0,0.0,0.0,0.0,0.0,0.0,0.0,0.0,0.0,0.0,0.0,0.0,0.0,0.0,0.0,0.0,0.0,0.0,0.0,0.0,0.0,0.0,0.0,0.0,0.0,0.0,0.0,0.0,0.0,0.0,0.0,0.0,0.0,0.0,0.0,0.0,0.0,0.0,0.0,0.0,0.0,0.0,0.0,0.0,0.0,0.0,0.0,0.0,0.0,0.0,0.0,0.0,0.0,0.0,0.0,0.0,0.0,0.0,0.0,0.0,0.0,0.0,0.0,0.0,0.0,0.0,0.0,0.0,0.0,0.0,0.0,0.0,2.039,2.1773,2.3308,2.3018,2.2956,2.3267,2.277,2.188,2.0576,0.0,0.0,0.0,0.0,0.0,0.0,0.0,0.0,0.0,0.0,0.0,0.0,0.0,0.0,0.0,0.0,0.0,0.0,0.0,0.0,0.0,0.0,0.0,0.0,0.0,0.0,0.0,0.0,0.0,0.0,0.0,0.0,0.0,0.0,0.0,0.0,0.0,0.0,2.2658,2.3283,0.0,0.0,0.0,0.0,0.0,0.0,0.0,0.0,2.7923,0.0,0.0,0.0,0.0,0.0,0.0,0.0,0.0,0.0,0.0,0.0,0.0,0.0,0.0,0.0,0.0,0.0,0.0,0.0,0.0,0.0,0.0,0.0,0.0,0.0,0.0,0.0,0.0,0.0,0.0,0.0,0.0,0.0,0.0,0.0,0.0,0.0,0.0,0.0,0.0,0.0,0.0,0.0,0.0,0.0,0.0,0.0,0.0,0.0,0.0,0.0,0.0,0.0,0.0,0.0,0.0,2.0135,2.1359,2.2735,2.4239,2.4218,2.4053,2.3764,2.2936,2.2025,2.1031,0.0,0.0,0.0,0.0,0.0,0.0,0.0,0.0,0.0,0.0,0.0,0.0,0.0,0.0,0.0,0.0,0.0,0.0,0.0,0.0,0.0,0.0,0.0,0.0,0.0,0.0,0.0,0.0,0.0,0.0,0.0,0.0,0.0,0.0,0.0,0.0,0.0,0.0,0.0,2.5398,2.5887,0.0,0.0,0.0,0.0,0.0,0.0,0.0,0.0,2.7994,0.0,0.0,0.0,0.0,0.0,0.0,0.0,0.0,0.0,0.0,0.0,0.0,0.0,0.0,0.0,0.0,0.0,0.0,0.0,0.0,0.0,0.0,0.0,0.0,0.0,0.0,0.0,0.0,0.0,0.0,0.0,0.0,0.0,0.0,0.0,0.0,0.0,0.0,0.0,0.0,0.0,0.0,0.0,0.0,0.0,0.0,0.0,0.0,0.0,0.0,0.0,0.0,0.0,0.0,0.0,2.0501,2.2109,2.3514,2.4797,2.4611,2.4383,2.4219,2.3329,2.2315,0.0,0.0,0.0,0.0,0.0,0.0,0.0,0.0,0.0,0.0,0.0,0.0,0.0,0.0,0.0,0.0,0.0,0.0,0.0,0.0,0.0,0.0,0.0,0.0,0.0,0.0,0.0,0.0,0.0,0.0,0.0,0.0,0.0,0.0,0.0,0.0,0.0,0.0,0.0,0.0,2.6256,2.6827,2.8438,0.0,0.0,0.0,0.0,0.0,0.0,2.9442,2.875,0.0,0.0,0.0,0.0,0.0,0.0,0.0,0.0,0.0,0.0,0.0,0.0,0.0,0.0,0.0,0.0,0.0,0.0,0.0,0.0,0.0,0.0,0.0,0.0,0.0,0.0,0.0,0.0,0.0,0.0,0.0,0.0,0.0,0.0,0.0,0.0,0.0,0.0,0.0,0.0,0.0,0.0,0.0,0.0,0.0,0.0,0.0,0.0,0.0,0.0,0.0,0.0,0.0,0.0,0.0,2.0879,2.2795,2.4315,2.5251,2.4962,2.4735,2.4631,2.3722,2.2584,0.0,0.0,0.0,0.0,0.0,0.0,0.0,0.0,0.0,0.0,0.0,0.0,0.0,0.0,0.0,0.0,0.0,0.0,0.0,0.0,0.0,0.0,0.0,0.0,0.0,0.0,0.0,0.0,0.0,0.0,0.0,0.0,0.0,0.0,0.0,0.0,0.0,0.0,0.0,0.0,0.0,2.7458,2.945,2.8893,0.0,0.0,0.0,0.0,3.0624,3.0251,0.0,0.0,0.0,0.0,0.0,0.0,0.0,0.0,0.0,0.0,0.0,0.0,0.0,0.0,0.0,0.0,0.0,0.0,0.0,0.0,0.0,0.0,0.0,0.0,0.0,0.0,0.0,0.0,0.0,0.0,0.0,0.0,0.0,0.0,0.0,0.0,0.0,0.0,0.0,0.0,0.0,0.0,0.0,0.0,0.0,0.0,0.0,0.0,0.0,0.0,0.0,0.0,0.0,0.0,0.0,0.0,2.1537,2.366,2.5074,2.5771,2.5751,2.5544,2.515,2.3888,2.2729,0.0,0.0,0.0,0.0,0.0,0.0,0.0,0.0,0.0,0.0,0.0,0.0,0.0,0.0,0.0,0.0,0.0,0.0,0.0,0.0,0.0,0.0,0.0,0.0,0.0,0.0,0.0,0.0,0.0,0.0,0.0,0.0,0.0,0.0,0.0,0.0,0.0,0.0,0.0,0.0,0.0,2.7984,3.0254,3.0292,3.0241,0.0,0.0,3.1648,3.1268,3.1575,0.0,0.0,0.0,0.0,0.0,0.0,0.0,0.0,0.0,0.0,0.0,0.0,0.0,0.0,0.0,0.0,0.0,0.0,0.0,0.0,0.0,0.0,0.0,0.0,0.0,0.0,0.0,0.0,0.0,0.0,0.0,0.0,0.0,0.0,0.0,0.0,0.0,0.0,0.0,0.0,0.0,0.0,0.0,0.0,0.0,0.0,0.0,0.0,0.0,0.0,0.0,0.0,0.0,0.0,0.0,1.9675,2.1731,2.4699,2.616,2.5962,2.6438,2.633,2.5606,2.4529,2.3515,0.0,0.0,0.0,0.0,0.0,0.0,0.0,0.0,0.0,0.0,0.0,0.0,0.0,0.0,0.0,0.0,0.0,0.0,0.0,0.0,0.0,0.0,0.0,0.0,0.0,0.0,0.0,0.0,0.0,0.0,0.0,0.0,0.0,0.0,0.0,0.0,0.0,0.0,0.0,0.0,0.0,0.0,3.092,3.12,0.0,0.0,0.0,3.2246,3.2327,0.0,0.0,0.0,0.0,0.0,0.0,0.0,0.0,0.0,0.0,0.0,0.0,0.0,0.0,0.0,0.0,0.0,0.0,0.0,0.0,0.0,0.0,0.0,0.0,0.0,0.0,0.0,0.0,0.0,0.0,0.0,0.0,0.0,0.0,0.0,0.0,0.0,0.0,0.0,0.0,0.0,0.0,0.0,0.0,0.0,0.0,0.0,0.0,0.0,0.0,0.0,0.0,0.0,0.0,0.0,0.0,0.0,2.1958,2.5356,2.6791,2.6148,2.6646,2.6625,2.5941,2.513,0.0,0.0,0.0,0.0,0.0,0.0,0.0,0.0,0.0,0.0,0.0,0.0,0.0,0.0,0.0,0.0,0.0,0.0,0.0,0.0,0.0,0.0,0.0,0.0,0.0,0.0,0.0,1.6053,0.0,0.0,0.0,0.0,0.0,0.0,0.0,0.0,0.0,0.0,0.0,0.0,0.0,0.0,2.9974,3.1325,3.2022,3.2557,0.0,0.0,3.2847,3.3279,3.3603,3.3333,0.0,0.0,0.0,0.0,0.0,0.0,0.0,0.0,0.0,0.0,0.0,0.0,0.0,0.0,0.0,0.0,0.0,0.0,0.0,0.0,0.0,0.0,0.0,0.0,0.0,0.0,0.0,0.0,0.0,0.0,0.0,0.0,0.0,0.0,0.0,0.0,0.0,0.0,0.0,0.0,0.0,0.0,0.0,0.0,0.0,0.0,0.0,0.0,0.0,0.0,0.0,0.0,0.0,0.0,2.0934,2.2635,2.5265,2.6646,2.6563,2.621,2.5937,2.5875,2.542,2.4571,0.0,0.0,0.0,0.0,0.0,0.0,0.0,0.0,0.0,0.0,0.0,0.0,0.0,0.0,0.0,0.0,0.0,0.0,0.0,0.0,0.0,0.0,0.0,0.0,0.0,0.0,0.0,0.0,0.0,0.0,0.0,0.0,0.0,0.0,0.0,0.0,0.0,0.0,0.0,0.0,0.0,3.0229,3.137,3.2975,3.3967,0.0,0.0,3.4086,3.4113,3.5006,3.5221,3.3668,0.0,0.0,0.0,0.0,0.0,0.0,0.0,0.0,0.0,0.0,0.0,0.0,0.0,0.0,0.0,0.0,0.0,0.0,0.0,0.0,0.0,0.0,0.0,0.0,0.0,0.0,0.0,0.0,0.0,0.0,0.0,0.0,0.0,0.0,0.0,0.0,0.0,0.0,0.0,0.0,0.0,0.0,0.0,0.0,0.0,0.0,0.0,0.0,0.0,0.0,0.0,0.0,0.0,2.1358,2.2599,2.6047,2.7427,2.662,2.6931,2.7013,2.677,2.6335,2.5544,0.0,0.0,0.0,0.0,0.0,0.0,0.0,0.0,0.0,0.0,0.0,0.0,0.0,0.0,0.0,0.0,0.0,0.0,0.0,0.0,0.0,0.0,0.0,0.0,0.0,0.0,0.0,0.0,2.1931,2.2842,2.2694,0.0,0.0,0.0,0.0,0.0,0.0,0.0,0.0,0.0,0.0,3.137,3.3528,3.4196,0.0,0.0,3.5107,3.5257,3.5257,3.5603,3.5592,3.4633,3.3859,0.0,0.0,0.0,0.0,0.0,0.0,0.0,0.0,0.0,0.0,0.0,0.0,0.0,0.0,0.0,0.0,0.0,0.0,0.0,0.0,0.0,0.0,0.0,0.0,0.0,0.0,0.0,0.0,0.0,0.0,0.0,0.0,0.0,0.0,0.0,0.0,0.0,0.0,0.0,0.0,0.0,0.0,0.0,0.0,0.0,0.0,0.0,0.0,0.0,0.0,0.0,0.0,2.1849,2.2745,2.6613,2.809,2.704,2.7738,2.7966,2.7655,2.722,2.6558,0.0,0.0,0.0,0.0,0.0,0.0,0.0,0.0,0.0,0.0,0.0,0.0,0.0,0.0,0.0,0.0,0.0,0.0,0.0,0.0,0.0,0.0,0.0,0.0,0.0,0.0,0.0,0.0,2.2755,2.3634,2.3059,0.0,0.0,0.0,0.0,0.0,0.0,0.0,0.0,0.0,0.0,3.2072,3.4211,3.4693,3.496,3.5366,3.5607,3.5805,3.5848,3.6023,3.596,3.5546,0.0,0.0,0.0,0.0,0.0,0.0,0.0,0.0,0.0,0.0,0.0,0.0,0.0,0.0,0.0,0.0,0.0,0.0,0.0,0.0,0.0,0.0,0.0,0.0,0.0,0.0,0.0,0.0,0.0,0.0,1.0024,0.0,0.0,0.0,0.0,0.0,0.0,0.0,0.0,0.0,0.0,0.0,0.0,0.0,0.0,0.0,0.0,0.0,0.0,0.0,0.0,0.0,0.0,2.2504,2.3248,2.6774,2.838,2.7924,2.8359,2.8587,2.8545,2.8131,2.7469,2.6604,0.0,0.0,0.0,0.0,0.0,0.0,0.0,0.0,0.0,0.0,0.0,0.0,0.0,0.0,0.0,0.0,0.0,0.0,0.0,0.0,0.0,0.0,0.0,0.0,0.0,0.0,2.0197,2.2004,2.3186,0.0,0.0,0.0,0.0,0.0,0.0,0.0,0.0,0.0,0.0,3.0678,3.2098,3.2738,3.4114,3.5065,3.5046,3.5239,3.5531,3.5804,3.6237,3.6571,0.0,0.0,0.0,0.0,0.0,0.0,0.0,0.0,0.0,0.0,0.0,0.0,0.0,0.0,0.0,0.0,0.0,0.0,0.0,0.0,0.0,0.0,0.0,0.0,0.0,0.0,0.0,1.2102,1.216,0.0,0.0,0.0,0.0,0.0,0.0,0.0,0.0,0.0,0.0,0.0,1.5248,1.5043,0.0,0.0,0.0,0.0,0.0,0.0,0.0,0.0,0.0,0.0,0.0,0.0,2.3064,2.4679,2.7071,2.8375,2.838,2.8524,2.8607,2.8607,2.8462,2.7966,2.7102,0.0,0.0,0.0,0.0,0.0,0.0,0.0,0.0,0.0,0.0,0.0,0.0,0.0,0.0,0.0,0.0,0.0,0.0,0.0,0.0,0.0,0.0,0.0,0.0,0.0,2.1345,0.0,0.0,0.0,0.0,0.0,0.0,0.0,0.0,0.0,0.0,0.0,2.8518,3.0537,3.1343,3.2343,3.412,3.4501,3.4813,0.0,0.0,0.0,0.0,0.0,0.0,0.0,0.0,0.0,0.0,0.0,0.0,0.0,0.0,3.5436,3.3792,3.3973,3.4395,3.441,0.0,0.0,0.0,0.0,0.0,0.0,0.0,0.0,0.0,0.0,0.0,0.0,0.0,0.0,1.3916,0.0,1.3799,0.0,0.0,0.0,0.0,0.0,0.0,0.0,0.0,1.5687,1.6067,1.652,1.636,1.6257,0.0,1.6097,1.5657,0.0,0.0,0.0,0.0,0.0,0.0,0.0,0.0,2.3738,2.5284,2.7551,2.8788,2.8799,2.9188,2.9405,2.9384,2.9198,2.8669,2.7759,2.6724,2.5606,0.0,0.0,0.0,0.0,0.0,0.0,0.0,0.0,0.0,0.0,0.0,0.0,0.0,0.0,0.0,0.0,0.0,0.0,0.0,0.0,0.0,0.0,0.0,2.2768,0.0,0.0,0.0,0.0,0.0,0.0,0.0,0.0,0.0,2.6431,2.7981,2.9742,3.1446,3.176,3.245,3.4022,0.0,0.0,0.0,0.0,0.0,0.0,0.0,3.6764,3.732,3.7686,3.7976,3.8141,3.8344,3.8501,3.8501,0.0,0.0,3.5822,3.5717,3.5991,3.6133,3.6481,3.7167,3.8585,3.9242,3.9931,0.0,0.0,0.0,0.0,0.0,0.0,0.0,0.0,1.5413,1.563,0.0,1.5921,0.0,0.0,0.0,0.0,0.0,1.5496,0.0,0.0,1.7677,1.8145,1.7867,1.7838,1.7852,1.7838,1.753,1.7352,1.7308,1.6491,0.0,0.0,0.0,0.0,0.0,0.0,2.4627,2.5222,2.8199,2.9574,2.9212,3.0248,3.086,3.084,3.029,2.9601,2.8711,2.8185,2.7552,2.6667,2.4923,0.0,0.0,0.0,0.0,0.0,0.0,0.0,0.0,0.0,0.0,0.0,0.0,0.0,0.0,0.0,0.0,0.0,0.0,0.0,0.0,2.2459,0.0,0.0,0.0,0.0,0.0,0.0,0.0,0.0,0.0,0.0,2.8314,2.923,3.0277,3.1462,0.0,0.0,0.0,0.0,3.364,3.3957,3.4235,3.4844,3.6161,3.675,3.741,3.8503,0.0,0.0,4.0435,4.0017,3.9651,3.9677,4.0069,3.9913,3.8292,3.7742,3.7553,3.775,3.8104,3.8532,3.8922,3.9892,4.0787,1.6868,0.0,0.0,0.0,0.0,1.5892,1.6272,1.6708,1.6987,1.7133,1.7267,1.7033,0.0,0.0,0.0,0.0,0.0,0.0,1.7049,1.775,1.813,1.8496,1.8847,1.8862,1.8862,1.8847,1.876,1.8964,1.9307,1.8906,1.8538,1.8236,0.0,0.0,0.0,0.0,2.5088,2.7292,2.843,2.9359,3.0003,3.0374,3.066,3.0901,3.0404,3.0154,3.0098,2.9435,2.8562,2.7593,2.6557,0.0,0.0,0.0,0.0,0.0,0.0,0.0,0.0,0.0,0.0,0.0,0.0,0.0,0.0,0.0,0.0,0.0,0.0,0.0,2.3391,2.4488,2.5006,0.0,0.0,0.0,0.0,0.0,0.0,0.0,0.0,0.0,2.991,3.0312,3.076,0.0,0.0,3.2311,3.3055,3.3135,3.3312,3.3777,3.3907,0.0,3.4916,3.5362,3.589,3.6517,3.8116,3.9622,4.0835,4.0932,4.0827,4.0827,4.0958,4.0906,4.0461,4.0249,4.014,4.0215,4.036,4.0718,4.1497,4.1887,4.2205,1.8716,1.8116,1.7296,1.7091,1.7387,1.7592,1.793,1.8306,1.8496,1.8584,1.8584,1.8461,1.8233,1.7842,1.7519,0.0,0.0,0.0,1.8253,1.8891,1.9008,1.9272,1.9638,1.9588,1.9661,1.9842,1.9711,1.9989,2.0562,2.0538,2.0321,1.9994,0.0,0.0,2.3967,2.434,2.5795,2.8226,2.8484,2.9131,3.031,3.0601,3.0846,3.0944,3.0681,3.0587,3.0567,2.9957,2.9294,2.8615,2.7508,2.6094,0.0,0.0,0.0,0.0,0.0,0.0,0.0,0.0,0.0,0.0,0.0,1.9287,1.9073,0.0,0.0,0.0,2.3474,2.4592,2.5726,2.6206,0.0,0.0,0.0,0.0,0.0,0.0,0.0,2.8097,2.9125,3.0056,3.0615,3.1028,3.1506,3.2057,3.2222,3.2545,3.3171,0.0,3.3084,3.3529,3.3584,3.3898,3.4758,3.5278,3.5818,3.6697,3.8251,3.9692,4.0823,4.1441,4.1825,4.1953,4.2004,4.2004,4.1977,4.2004,4.1821,4.1402,4.1115,4.1209,4.2035,4.2373,4.2722,2.0197,2.0095,1.8621,1.8364,1.8862,1.8833,1.9169,1.9764,1.9764,1.9793,1.9837,2.0077,1.9886,1.933,1.9067,0.0,1.895,1.9257,1.9588,1.9896,2.0135,2.0227,2.0212,2.0003,2.0208,2.0779,2.0472,2.0591,2.1262,2.1476,2.182,2.2162,2.2654,2.3749,2.5334,2.5541,2.6518,2.8289,2.8406,2.9047,3.0254,3.0953,3.1242,3.1127,3.1107,3.0906,3.0444,3.0103,2.9842,2.9681,2.8215,2.7082,2.6512,0.0,0.0,0.0,0.0,0.0,0.0,0.0,0.0,0.0,0.0,0.0,0.0,0.0,0.0,0.0,2.5978,0.0,2.8007,2.7717,0.0,0.0,0.0,2.8276,2.8731,2.9187,2.9477,2.9477,0.0,0.0,3.0801,3.1547,3.2327,3.309,3.3036,3.2984,3.3019,3.3125,3.3181,3.351,3.3446,3.3948,3.5168,3.5779,3.6555,3.7794,3.9244,3.994,4.0429,4.1471,4.2368,4.2553,4.284,4.2892,4.2945,4.2892,4.2631,4.169,4.1089,4.0853,4.1452,4.2,4.2594,2.0329,2.0518,2.0194,1.9842,1.952,1.9257,1.9294,1.9441,1.9389,1.9588,1.9823,1.9896,1.993,2.0018,2.0179,2.0267,2.0267,2.034,2.0413,2.0501,2.0574,2.0618,2.0618,2.0779,2.1072,2.1423,2.113,2.132,2.192,2.1759,2.227,2.3403,2.361,2.3959,2.4597,2.5552,2.631,2.6923,2.8743,3.0064,3.0723,3.0898,3.1053,3.1244,3.1224,3.112,3.0926,3.0957,3.0561,2.9802,2.9445,2.88,2.7739,2.6346,0.0,0.0,0.0,0.0,0.0,0.0,0.0,0.0,0.0,2.213,2.211,0.0,2.5583,0.0,2.7558,2.8876,2.9456,2.9415,0.0,0.0,2.9497,2.9684,3.0139,3.0594,3.0864,3.0884,3.1381,3.1712,3.1712,3.2153,3.2851,3.3734,3.3675,3.369,3.3904,3.4381,3.4686,3.4724,3.4526,3.4652,3.5176,3.5275,3.5743,3.6939,3.736,3.7847,3.8777,3.9959,4.0877,4.0985,4.1707,4.2341,4.2735,4.2683,4.2736,4.2631,4.25,4.2448,4.2605,4.2735,4.2866,2.0779,2.0925,2.0794,2.0516,2.0179,2.015,2.0135,2.0135,2.0135,2.0237,2.0398,2.0413,2.0501,2.0676,2.0867,2.094,2.094,2.094,2.094,2.094,2.094,2.094,2.094,2.0969,2.1233,2.1686,2.1364,2.154,2.2154,2.214,2.2543,2.3306,2.3459,2.3609,2.3782,2.486,2.5821,2.6679,2.859,2.9773,3.0001,3.0587,3.0548,2.9852,3.0335,3.0486,3.0224,3.0094,2.9934,2.9679,2.9411,2.9041,2.8489,2.7444,2.6536,0.0,0.0,0.0,0.0,0.0,0.0,0.0,0.0,0.0,0.0,0.0,2.7073,2.7479,2.8676,2.9574,2.9819,2.986,2.9995,3.036,3.0619,3.0908,3.1547,3.1816,3.1905,3.1981,3.2375,3.2623,3.2644,3.3223,3.372,3.4111,3.4482,3.4807,3.4802,3.5118,3.5352,3.556,3.5479,3.55,3.5852,3.583,3.6009,3.6635,3.7238,3.7851,3.8598,3.9767,4.0827,4.1565,4.2264,4.2982,4.3749,4.3913,4.3997,4.4214,4.4349,4.4012,4.3206,4.3362,4.3807,2.1203,2.1189,2.0911,2.0794,2.0808,2.1086,2.1159,2.1086,2.1086,2.1115,2.1145,2.1189,2.1203,2.1218,2.1262,2.1276,2.1276,2.1276,2.1262,2.1276,2.1233,2.1203,2.1203,2.0911,2.1101,2.1672,2.1364,2.1554,2.2242,2.2462,2.2608,2.2696,2.2974,2.3106,2.3153,2.3856,2.5133,2.6944,2.7966,2.8564,2.8742,2.9903,2.9751,2.8133,2.9027,2.9413,2.9049,2.8703,2.8793,2.9397,2.8715,2.852,2.8945,2.8203,2.7637,0.0,2.6484,0.0,0.0,0.0,0.0,0.0,0.0,0.0,0.0,2.7523,2.8456,2.926,2.9621,2.9842,2.9962,2.9942,3.0192,3.105,3.1493,3.2035,3.2773,3.2892,3.2892,3.2892,3.3244,3.353,3.3472,3.4217,3.465,3.4445,3.5355,3.5956,3.5769,3.5728,3.5894,3.6246,3.6287,3.639,3.6618,3.6784,3.6869,3.7039,3.7806,3.8695,3.8859,3.9983,4.1298,4.2604,4.3176,4.3934,4.52,4.5464,4.5719,4.6036,4.599,4.543,4.4118,4.433,4.4931,2.1203,2.1203,2.1145,2.1115,2.1115,2.1189,2.0911,2.0358,2.0413,2.0574,2.0837,2.1086,2.1203,2.1233,2.1496,2.1598,2.1613,2.1613,2.1598,2.1598,2.1335,2.1203,2.1203,2.1145,2.132,2.1657,2.1364,2.1672,2.2535,2.2359,2.252,2.3003,2.3076,2.3106,2.3106,0.0,0.0,0.0,2.6476,2.6702,2.7727,2.8265,2.8486,2.8354,2.8282,0.0,2.8819,2.854,2.8426,2.8696,2.8523,0.0,0.0,0.0,0.0,0.0,0.0,0.0,0.0,0.0,0.0,0.0,2.7212,2.729,2.7911,2.8971,2.9904,3.0625,3.0444,3.0565,3.1325,3.1083,3.1297,3.2353,3.2595,3.2957,3.3741,3.3803,3.3824,3.3824,3.3945,3.3948,3.4049,3.4484,3.4879,3.519,3.6039,3.6742,3.7053,3.7053,3.7115,3.7218,3.7239,3.7115,3.6846,3.7177,3.7446,3.747,3.7826,3.8343,3.8561,3.9433,4.0252,4.0934,4.2513,4.4085,4.4755,4.571,4.651,4.6923,4.6623,4.618,4.5891,4.6003,4.6159,2.135,0.0,2.1203,2.1203,0.0,2.1203,2.1013,2.072,2.072,2.0808,2.0969,2.113,2.1203,2.1218,2.1379,2.1452,2.1452,2.1452,2.1452,2.1452,2.1291,2.1203,2.1203,2.1203,2.1379,2.1686,2.1525,2.1789,2.2374,2.2403,2.2564,2.2871,2.3193,2.3354,2.3354,2.3501,2.4421,2.605,2.574,2.5883,2.6499,2.745,2.7589,2.6806,2.7639,0.0,0.0,0.0,0.0,0.0,0.0,0.0,0.0,0.0,0.0,2.9587,2.9019,2.8691,2.8887,2.8093,2.7822,2.8293,2.852,2.8464,2.8011,2.8899,2.9642,3.0007,3.0546,3.1166,3.1582,3.1642,3.1683,3.1759,3.2316,3.2734,3.2694,3.3538,3.408,3.3976,3.4405,3.4734,3.4734,3.5128,3.5583,3.6059,3.6701,3.7322,3.7736,3.7839,3.7902,3.8129,3.8378,3.844,3.8233,3.8316,3.8502,3.8543,3.8709,3.8833,3.8854,3.9374,4.0024,4.0736,4.203,4.3239,4.4918,4.5795,4.6563,4.7481,4.7545,4.7445,4.7586,4.7056,4.6596,2.1628,2.1379,2.1379,2.1379,2.1379,2.1379,2.1379,2.1379,0.0,0.0,0.0,2.1203,2.1203,2.1203,2.1203,2.1203,2.1203,2.1203,2.1203,2.1218,2.1276,2.1291,2.1306,2.1408,2.1598,2.1862,2.192,2.2111,2.2432,2.2681,2.2828,2.293,2.3413,2.3691,2.3706,2.3954,2.4385,2.4937,2.5235,2.536,2.5376,2.6785,2.6722,2.5076,2.6745,2.7134,2.5901,2.7531,2.812,2.7413,2.8388,2.8974,2.9088,2.9087,2.9087,2.9145,2.9164,2.9298,2.9565,2.8658,2.8256,2.8636,2.8853,2.8697,2.794,2.8895,2.9342,2.903,3.0376,3.1123,3.0942,3.1188,3.121,3.042,3.1385,3.1831,3.1612,3.2727,3.3629,3.378,3.4222,3.4896,3.5167,3.5515,3.6177,3.6885,3.7384,3.7839,3.8274,3.846,3.8564,3.8827,3.9096,3.9385,3.9447,3.9488,3.9571,3.953,3.9682,3.9765,3.9785,3.9765,4.0249,4.1169,4.1624,4.2817,4.4804,4.5715,4.6512,4.7933,4.8383,4.8607,4.8804,4.7793,4.6993,2.2081,2.2037,2.2052,2.2052,2.2052,2.2052,2.2052,2.1993,2.1452,2.1203,2.1203,2.1203,2.1203,2.1203,2.1203,2.1203,2.1203,2.1203,2.1203,2.1218,2.1496,2.1628,2.1657,2.2169,2.2447,2.2506,2.2769,2.3076,2.3369,2.3427,2.3588,2.3852,2.3969,2.4013,2.4013,2.4057,2.4157,2.4262,2.4565,2.4724,2.4724,2.5221,2.5543,2.5496,2.5471,2.5641,2.5905,2.5917,2.6067,2.6395,2.6364,2.6584,2.714,2.7075,2.6981,2.7295,2.733,2.7407,2.7442,2.7279,2.7332,2.7634,2.6952,2.7265,2.9161,3.0819,3.1073,2.9567,2.988,2.9792,2.8674,2.8699,2.9077,2.962,2.9901,3.0797,3.2572,3.2195,3.228,3.3597,3.2918,3.3058,3.4362,3.4701,3.558,3.736,3.7796,3.8352,3.8877,3.9351,3.9371,3.9364,3.9426,3.9468,3.9592,3.984,4.0096,4.0137,4.0427,4.0572,4.0572,4.0572,4.0713,4.0917,4.1887,4.2882,4.364,4.5587,4.6759,4.7523,4.812,4.8786,4.924,4.8447,4.7774,2.233,2.2184,2.2184,2.2184,2.2184,2.2184,2.2184,2.2154,2.1876,2.1745,2.1745,2.1745,2.173,2.1745,2.1745,2.1745,2.1745,2.173,2.1745,2.1759,2.2052,2.2198,2.2242,2.2667,2.2974,2.3149,2.3296,2.3545,2.3837,2.3866,2.394,2.4086,2.4262,2.4437,2.4665,2.4679,2.4613,2.4679,2.4635,2.4612,2.4612,2.4907,2.5143,2.5342,2.5581,2.5605,2.5218,2.626,2.6549,2.6129,2.6649,2.7125,2.7463,2.7371,2.7354,2.7542,2.7559,2.7542,2.7525,2.6877,2.6256,2.5723,2.5881,2.6423,2.7503,2.8345,2.8487,2.7724,2.8754,2.9311,2.8687,2.8963,2.9074,2.8808,2.9429,3.0101,3.0563,3.1145,3.157,3.2083,3.2007,3.2291,3.3255,3.3428,3.4289,3.6534,3.7322,3.7908,3.8457,3.8788,3.9222,3.9762,4.0096,4.0241,4.0261,4.0427,4.0572,4.0593,4.0737,4.0862,4.0882,4.0882,4.0882,4.0954,4.1502,4.2187,4.2818,4.4045,4.5526,4.7269,4.7676,4.837,4.9092,4.8937,4.8422,2.2608,2.2389,2.2389,2.2389,2.2389,2.2389,2.2389,2.2389,2.2403,2.2389,2.2374,2.2257,2.2184,2.2198,2.2242,2.2242,2.2198,2.233,2.2359,2.233,2.2667,2.2842,2.2886,2.3252,2.3574,2.3808,2.3881,2.4057,2.4276,2.4305,2.4305,2.4335,2.4554,2.4803,2.5052,2.5066,2.5066,2.5105,2.4885,2.4686,2.4686,2.5002,2.5052,2.5172,2.5804,2.5718,2.4856,2.6421,2.6858,2.589,2.6713,2.7239,2.7222,2.7156,2.7107,2.7107,2.7107,2.7107,2.706,2.6248,2.531,2.4422,2.5267,2.5931,2.5993,2.6009,2.6062,2.6389,2.79,2.876,2.8427,2.8755,2.8822,2.7965,2.8643,2.909,2.8665,2.9708,3.0645,3.0599,3.0976,3.1335,3.1964,3.2138,3.3109,3.5185,3.6372,3.6979,3.7162,3.7793,3.8774,3.9515,4.035,4.08,4.0882,4.0862,4.0841,4.0882,4.0862,4.0882,4.0882,4.0882,4.0882,4.0882,4.0882,4.136,4.2327,4.2958,4.4045,4.5797,4.6756,4.7929,4.9282,4.9289,4.8913,2.3047,2.3018,2.3003,2.3018,2.3003,2.3003,2.3003,2.3003,2.3018,2.3018,2.2959,2.2432,2.2213,2.2228,2.2491,2.2491,2.2301,2.2769,2.2871,2.2696,2.3223,2.3501,2.3559,2.413,2.4452,2.4496,2.4797,2.4929,2.4905,2.4935,2.5031,2.5031,2.4993,2.509,2.5052,2.5066,2.5066,2.5066,2.5105,2.5075,2.5075,2.5105,2.5066,2.5052,2.5158,2.521,2.5061,2.5248,2.5286,2.5204,2.5056,2.4973,2.4943,2.4704,2.4461,2.454,2.454,2.4461,2.4505,2.4612,2.4871,2.5017,2.5349,2.5751,2.5948,2.6007,2.6253,2.6822,2.7641,2.7645,2.6459,2.6564,2.6798,2.6911,2.7042,2.7402,2.8607,2.8328,2.8438,3.0211,2.9529,2.9415,3.0917,3.139,3.2216,3.3769,3.4859,3.5389,3.5389,3.6663,3.784,3.8365,3.9602,4.0719,4.0882,4.0882,4.0882,4.0882,4.0882,4.0882,4.0882,4.0882,4.0882,4.0882,4.0882,4.1075,4.136,4.2046,4.3097,4.4114,4.5797,4.7821,4.9112,4.9515,4.9366,2.3106,2.3106,2.3106,2.3106,2.3106,2.3106,2.3106,2.3106,2.3106,2.3223,2.3354,2.312,2.3018,2.3047,2.334,2.3413,2.3325,2.3574,2.3618,2.353,2.3969,2.4174,2.4218,2.4627,2.4929,2.4929,2.5061,2.5066,2.5066,2.5066,2.5066,2.5066,2.5066,2.5066,2.5066,2.5066,2.5066,2.5066,2.5066,2.5066,2.5066,2.5066,2.5066,2.5066,2.5066,2.5066,2.5066,2.5066,2.5066,2.5119,2.5002,2.4914,2.4929,2.4797,2.4657,2.4671,2.4832,2.5022,2.5213,2.5344,2.5491,2.5622,2.574,2.5886,2.6018,2.6193,2.6461,2.6688,2.6979,2.6863,2.6396,2.6471,2.6647,2.6793,2.6954,2.7422,2.8039,2.7926,2.8118,2.879,2.8447,2.8476,2.9547,3.0624,3.1237,3.1685,3.2532,3.3339,3.3507,3.5011,3.6423,3.7528,3.9241,4.0525,4.0811,4.0882,4.0882,4.0882,4.0882,4.0882,4.0882,4.0882,4.0882,4.0882,4.0882,4.0882,4.0954,4.1289,4.1975,4.3075,4.5255,4.7623,4.824,4.8983,4.9375,2.3106,2.3106,2.3106,2.3106,2.312,2.3208,2.3237,2.3267,2.334,2.3515,2.372,2.3823,2.3866,2.3896,2.4115,2.4174,2.4115,2.4262,2.4305,2.4262,2.4554,2.4767,2.473,2.5002,2.5066,2.5066,2.5052,2.5066,2.5066,2.5066,2.5066,2.5066,2.5066,2.5066,2.5066,2.5066,2.5163,2.5183,2.5183,2.5227,2.5315,2.5315,2.5242,2.5149,2.5066,2.5096,2.5183,2.5183,2.5227,2.5315,2.533,2.5315,2.5315,2.5315,2.5315,2.533,2.5535,2.5769,2.6003,2.6018,2.6061,2.6135,2.6149,2.6193,2.631,2.65,2.6676,2.6836,2.6764,2.6851,2.6793,2.6983,2.7144,2.7247,2.7481,2.7613,2.7687,2.7891,2.8081,2.8005,2.8259,2.8286,2.8674,2.9715,3.03,2.9804,3.05,3.1255,3.1699,3.2902,3.4486,3.5664,3.7381,3.9096,4.0361,4.0882,4.0882,4.0882,4.0882,4.0882,4.0882,4.0882,4.0882,4.0882,4.0882,4.0882,4.0882,4.1004,4.136,4.2958,4.4801,4.6603,4.7467,4.8371,4.9047,2.3106,2.312,2.312,2.3179,2.3149,2.3471,2.3603,2.3662,2.391,2.4057,2.4115,2.4364,2.4525,2.4576,2.4525,2.4379,2.4268,2.4701,2.487,2.4665,2.4943,2.5105,2.5105,2.5119,2.5066,2.5066,2.5066,2.5066,2.5066,2.5066,2.5066,2.5134,2.5081,2.5081,2.5178,2.5125,2.5227,2.5476,2.5437,2.5637,2.59,2.5944,2.5652,2.5237,2.5081,2.5242,2.5476,2.5505,2.5637,2.5944,2.593,2.5944,2.5959,2.5944,2.5944,2.5959,2.5988,2.6003,2.6047,2.6076,2.6179,2.6427,2.6486,2.6603,2.6822,2.6925,2.7071,2.7378,2.7378,2.7393,2.7437,2.7437,2.7569,2.7728,2.7815,2.7934,2.7859,2.8136,2.8388,2.8447,2.8608,2.8754,2.8842,2.8949,2.9119,2.9042,2.9368,2.9679,2.9726,3.0947,3.2141,3.2733,3.4076,3.5942,3.9333,4.0074,4.0433,4.074,4.0668,4.0882,4.0882,4.0882,4.0882,4.0882,4.0882,4.0882,4.0882,4.1147,4.1573,4.2468,4.3097,4.4504,4.5999,4.7003,4.7887,2.3852,2.4042,2.4042,2.4159,2.4364,2.4481,2.4525,2.4591,2.4423,2.451,2.4723,2.4613,2.4686,2.4958,2.4943,2.4885,2.4744,2.4964,2.5061,2.4973,2.5075,2.5066,2.5066,2.5066,2.5066,2.5066,2.5066,2.5066,2.5066,2.5066,2.5169,2.533,2.5359,2.5461,2.5637,2.5666,2.574,2.5827,2.5842,2.59,2.6018,2.6018,2.5886,2.5696,2.5666,2.5725,2.5842,2.5842,2.59,2.6018,2.6018,2.6018,2.6018,2.6018,2.612,2.6296,2.6325,2.6413,2.6603,2.6632,2.6691,2.6793,2.6808,2.6866,2.6998,2.7174,2.7349,2.7495,2.7686,2.7847,2.8008,2.7905,2.7832,2.7874,2.8063,2.818,2.8315,2.8534,2.8725,2.8739,2.8827,2.8886,2.8886,2.8886,2.8886,2.89,2.9056,2.9056,2.9197,3.0423,3.1485,3.1775,3.3112,3.4751,3.5886,3.7747,3.8787,3.9766,4.0238,4.0453,4.0525,4.074,4.0811,4.0882,4.0882,4.0882,4.0882,4.0954,4.1431,4.1573,4.2187,4.3167,4.4389,4.5458,4.6603,2.4591,2.4715,2.473,2.4914,2.5134,2.5169,2.5213,2.5198,2.5096,2.5169,2.5301,2.5125,2.5169,2.5344,2.5359,2.5374,2.533,2.5169,2.5066,2.5066,2.5066,2.5066,2.5149,2.5154,2.5198,2.5242,2.533,2.5374,2.5374,2.5374,2.5476,2.5681,2.5696,2.5798,2.5988,2.6018,2.6047,2.6149,2.6179,2.6222,2.631,2.6325,2.6339,2.6339,2.6325,2.6281,2.6179,2.6179,2.6237,2.631,2.6339,2.6325,2.6325,2.6325,2.6427,2.6632,2.6661,2.6749,2.6954,2.6998,2.6983,2.6998,2.7086,2.7144,2.7174,2.7437,2.7656,2.7803,2.7964,2.8242,2.8461,2.8388,2.8256,2.8271,2.8447,2.8578,2.8593,2.8754,2.8871,2.8871,2.8886,2.8886,2.8886,2.8886,2.8886,2.8886,2.8886,2.8886,2.9119,2.9726,3.05,3.0639,3.1453,3.2429,3.3641,3.5142,3.6995,3.8205,3.9878,4.0094,4.031,4.0596,4.0811,4.0882,4.0882,4.0882,4.0882,4.0882,4.0954,4.0954,4.1431,4.2327,4.3214,4.3907,4.5323,2.5149,2.5178,2.5134,2.5237,2.5339,2.552,2.5564,2.5652,2.5857,2.5944,2.5959,2.5944,2.5871,2.5959,2.59,2.5959,2.5827,2.5388,2.5169,2.5154,2.5207,2.5207,2.5169,2.5418,2.5535,2.5549,2.5842,2.5974,2.593,2.5915,2.5944,2.6003,2.6018,2.6061,2.6047,2.612,2.6222,2.6442,2.6515,2.6647,2.6939,2.691,2.6896,2.6925,2.6925,2.6778,2.6515,2.6515,2.6632,2.6896,2.6925,2.6983,2.691,2.691,2.6954,2.6939,2.6969,2.6983,2.6983,2.6998,2.6998,2.7071,2.7291,2.7437,2.751,2.7773,2.799,2.8271,2.8403,2.8564,2.8798,2.8812,2.8798,2.8871,2.8827,2.8842,2.8856,2.8886,2.8886,2.8886,2.8886,2.8886,2.8886,2.8886,2.8886,2.8886,2.8886,2.8886,2.8886,2.9197,2.9042,2.9042,2.9649,3.0562,3.1545,3.2766,3.4769,3.6793,3.8681,3.9806,4.0094,4.0382,4.0668,4.074,4.0882,4.0882,4.0882,4.0882,4.0882,4.1025,4.1289,4.1502,4.2187,4.3075,4.4298,2.5842,2.6047,2.6047,2.6193,2.6383,2.65,2.653,2.6515,2.6427,2.6354,2.631,2.612,2.6018,2.6018,2.6018,2.6018,2.5988,2.5798,2.5725,2.571,2.571,2.5696,2.5725,2.5813,2.5871,2.5871,2.5959,2.6018,2.6032,2.6032,2.612,2.631,2.6354,2.6471,2.6647,2.6691,2.6749,2.6822,2.6837,2.6896,2.6983,2.6998,2.6998,2.6998,2.6998,2.6939,2.6852,2.6837,2.6881,2.6998,2.6998,2.6998,2.6998,2.6998,2.6998,2.6998,2.6998,2.6998,2.6998,2.7013,2.71,2.7276,2.7422,2.7583,2.7803,2.8005,2.8238,2.8461,2.8622,2.8812,2.8871,2.8886,2.8886,2.8886,2.8886,2.8886,2.8886,2.8886,2.8886,2.8886,2.8886,2.8886,2.8886,2.8886,2.8886,2.8886,2.8886,2.8886,2.8886,2.8886,2.8886,2.8886,2.8964,2.9042,3.0191,3.1699,3.3734,3.583,3.7712,3.9373,3.9806,4.0022,4.0382,4.0668,4.0811,4.0882,4.0882,4.0882,4.0882,4.0882,4.1096,4.1289,4.1502,4.2257,4.3353,2.65,2.6676,2.6676,2.6793,2.6983,2.6998,2.6998,2.6969,2.6778,2.6676,2.6632,2.6471,2.6383,2.6383,2.6383,2.6383,2.6383,2.6383,2.6383,2.6325,2.6091,2.6018,2.6047,2.6149,2.6281,2.6369,2.6383,2.6383,2.6383,2.6383,2.6486,2.6647,2.6676,2.6778,2.6983,2.6998,2.6998,2.6998,2.6983,2.6998,2.6998,2.6998,2.6998,2.6998,2.6998,2.6998,2.6998,2.6998,2.6998,2.6998,2.6998,2.6998,2.6998,2.6998,2.6998,2.6998,2.6998,2.6998,2.6998,2.7115,2.7247,2.7452,2.7583,2.773,2.7888,2.818,2.8432,2.8476,2.8695,2.8886,2.8886,2.8886,2.8886,2.8886,2.8886,2.8886,2.8886,2.8886,2.8886,2.8886,2.8886,2.8886,2.8886,2.8886,2.8886,2.8886,2.8886,2.8886,2.8886,2.8886,2.8886,2.8886,2.8886,2.9042,2.9119,3.0716,3.275,3.4786,3.683,3.8409,3.9445,3.961,3.9899,4.0453,4.0668,4.0882,4.0882,4.0882,4.0882,4.0882,4.0882,4.1004,4.1218,4.1147,4.2046,2.6983,2.6998,2.6983,2.6969,2.6998,2.6998,2.6998,2.6983,2.6969,2.6954,2.6954,2.691,2.6925,2.6954,2.6881,2.6881,2.6969,2.691,2.6881,2.6749,2.6427,2.6164,2.6208,2.6427,2.6647,2.6866,2.691,2.6939,2.6881,2.6881,2.6998,2.6954,2.6939,2.6983,2.6998,2.6998,2.6998,2.6998,2.6998,2.6998,2.6998,2.6998,2.6998,2.6998,2.6998,2.6998,2.6998,2.6998,2.6998,2.6998,2.6998,2.6998,2.6998,2.6998,2.6998,2.6998,2.6998,2.6998,2.7056,2.7188,2.7393,2.7481,2.7686,2.7874,2.7903,2.8183,2.8344,2.8359,2.8593,2.8798,2.8812,2.8827,2.8842,2.8886,2.8886,2.8886,2.8886,2.8886,2.8886,2.8886,2.8886,2.8886,2.8886,2.8886,2.8886,2.8886,2.8886,2.8886,2.8886,2.8886,2.8886,2.8886,2.8886,2.8964,2.9042,3.0346,3.2386,3.4111,3.6164,3.7751,3.9083,3.9393,3.9682,4.0166,4.0596,4.074,4.0882,4.0882,4.0882,4.0882,4.0882,4.0882,4.0882,4.0882,4.1075,2.6998,2.6998,2.6998,2.6998,2.6998,2.6998,2.6983,2.6998,2.6983,2.6998,2.6998,2.6998,2.6998,2.6998,2.6998,2.6998,2.6998,2.6998,2.6998,2.6969,2.6852,2.6735,2.6735,2.6808,2.6896,2.6983,2.6998,2.6998,2.6998,2.6998,2.6998,2.6998,2.6998,2.6998,2.6998,2.6998,2.6998,2.6998,2.6998,2.6998,2.6998,2.6998,2.6998,2.6998,2.6998,2.6998,2.6998,2.6998,2.6998,2.6998,2.6998,2.6998,2.6998,2.6998,2.6998,2.6998,2.6998,2.6998,2.7013,2.7086,2.7232,2.7452,2.7569,2.77,2.7859,2.7947,2.8005,2.8005,2.8169,2.8315,2.8491,2.8549,2.8651,2.8856,2.8856,2.8871,2.8886,2.8886,2.8886,2.8886,2.8886,2.8886,2.8886,2.8886,2.8886,2.8886,2.8886,2.8886,2.8886,2.8886,2.8886,2.8886,2.8886,2.8886,2.9275,3.05,3.1944,3.36,3.5402,3.7291,3.8555,3.9445,3.9806,4.0238,4.0382,4.0525,4.0811,4.0882,4.0882,4.0882,4.0882,4.0882,4.0882,4.0882,4.0882,2.6588,2.6588,2.6588,2.6588,2.6603,2.6735,2.6793,2.6808,2.6939,2.6998,2.6998,2.6998,2.6998,2.6998,2.6998,2.6998,2.6998,2.6998,2.6998,2.6998,2.6969,2.6969,2.6983,2.6998,2.6998,2.6998,2.6998,2.6998,2.6998,2.6998,2.6998,2.6998,2.6998,2.6998,2.6998,2.6998,2.6998,2.6998,2.6998,2.6998,2.6998,2.6998,2.6998,2.6998,2.6998,2.6998,2.6998,2.6998,2.6998,2.6998,2.6998,2.6998,2.6998,2.6998,2.6998,2.6998,2.6998,2.6998,2.7027,2.7115,2.7276,2.7437,2.7481,2.7569,2.77,2.7744,2.7744,2.7759,2.7861,2.7961,2.8107,2.8165,2.8238,2.8447,2.8608,2.8739,2.8871,2.8886,2.8886,2.8886,2.8886,2.8886,2.8886,2.8886,2.8886,2.8886,2.8886,2.8886,2.8886,2.8886,2.8886,2.8886,2.8886,2.8886,2.8886,2.9804,3.1408,3.307,3.5551,3.7291,3.8044,3.9083,3.9518,3.9806,4.0094,4.0382,4.0596,4.0811,4.0882,4.0882,4.0882,4.0882,4.0882,4.0882,4.0882,2.6018,2.6018,2.6018,2.6018,2.6091,2.6325,2.6457,2.6515,2.6705,2.6837,2.6837,2.691,2.6896,2.6939,2.6954,2.6998,2.6998,2.6998,2.6925,2.691,2.6838,2.6838,2.6765,2.6925,2.691,2.691,2.6998,2.6998,2.6925,2.6925,2.6998,2.6998,2.6998,2.6998,2.6998,2.6998,2.6998,2.6998,2.6998,2.6998,2.6998,2.6983,2.6954,2.6881,2.6881,2.6881,2.6896,2.691,2.6896,2.6881,2.6925,2.691,2.691,2.691,2.6852,2.6852,2.6852,2.6896,2.6969,2.7159,2.7378,2.7393,2.7393,2.7422,2.7422,2.7422,2.7422,2.7422,2.7686,2.7788,2.7891,2.7815,2.7888,2.799,2.8256,2.8505,2.8769,2.8871,2.8886,2.8886,2.8886,2.8886,2.8886,2.8886,2.8886,2.8886,2.8886,2.8886,2.8886,2.8886,2.8886,2.8886,2.8886,2.8886,2.8886,2.9042,3.0793,3.2614,3.5551,3.7438,3.7677,3.8428,3.8958,3.9393,3.9734,4.0094,4.0382,4.0525,4.0811,4.0882,4.0882,4.0882,4.0882,4.0882,4.0882,2.6018,2.6018,2.6018,2.6018,2.6032,2.6091,2.612,2.6135,2.6193,2.6296,2.6296,2.65,2.6617,2.6647,2.6881,2.6998,2.6998,2.6998,2.6838,2.6546,2.6546,2.6312,2.6239,2.6546,2.6765,2.6619,2.6838,2.6838,2.6692,2.6765,2.6998,2.6983,2.691,2.6998,2.6925,2.6925,2.6998,2.6998,2.6983,2.6998,2.6998,2.6983,2.6866,2.6676,2.6617,2.6603,2.6603,2.6603,2.6486,2.6354,2.6442,2.6574,2.6559,2.6398,2.631,2.6383,2.653,2.6617,2.6676,2.6939,2.71,2.713,2.7144,2.7086,2.71,2.7115,2.7115,2.71,2.7159,2.7364,2.7539,2.7569,2.7671,2.7832,2.7903,2.8183,2.8491,2.8754,2.8871,2.8886,2.8886,2.8886,2.8886,2.8886,2.8886,2.8886,2.8886,2.8886,2.8886,2.8886,2.8886,2.8886,2.8886,2.8886,2.9042,2.9197,3.0577,3.2081,3.4804,3.707,3.7291,3.7751,3.8355,3.8938,3.9518,3.9806,4.0094,4.0525,4.0811,4.0882,4.0882,4.0882,4.0882,4.0882,4.0882,2.5564,2.5564,2.5564,2.5564,2.5593,2.5725,2.5783,2.5813,2.5959,2.6105,2.6252,2.6442,2.6588,2.6735,2.691,2.6998,2.6998,2.6998,2.6765,2.6473,2.6385,2.6166,2.5653,2.5566,2.5492,2.5946,2.6312,2.6312,2.6239,2.6239,2.6473,2.6692,2.6692,2.6326,2.6166,2.6546,2.6458,2.6166,2.6692,2.6998,2.6998,2.6983,2.6837,2.6515,2.6369,2.6281,2.6281,2.6281,2.6193,2.6061,2.6032,2.6135,2.6237,2.612,2.6091,2.6266,2.6383,2.6603,2.6749,2.6881,2.6998,2.6998,2.6998,2.6998,2.6998,2.6998,2.6998,2.6998,2.7013,2.7086,2.7217,2.7247,2.7364,2.7466,2.7656,2.7861,2.8122,2.8608,2.8886,2.8886,2.8886,2.8886,2.8886,2.8886,2.8886,2.8886,2.8886,2.8886,2.8886,2.8886,2.8886,2.8886,2.8886,2.8964,2.9119,2.9571,3.05,3.1868,3.3449,3.5402,3.646,3.707,3.7677,3.8482,3.9301,3.959,3.9878,4.031,4.074,4.0882,4.0882,4.0882,4.0882,4.0882,4.0882,2.5066,2.5066,2.5066,2.5066,2.5096,2.5344,2.5461,2.5505,2.5798,2.6018,2.6354,2.6442,2.6632,2.6852,2.6954,2.6983,2.6998,2.6998,2.6765,2.6312,2.6239,2.5653,2.4904,2.4066,2.3918,2.5125,2.4817,2.4817,2.5111,2.5198,2.4743,2.5332,2.5566,2.4817,2.4596,2.5345,2.5419,2.4522,2.5198,2.6093,2.6357,2.6401,2.6258,2.6398,2.6091,2.5959,2.5944,2.593,2.59,2.5857,2.5608,2.5666,2.5857,2.5959,2.6032,2.6325,2.6398,2.6588,2.6778,2.6925,2.6998,2.6998,2.6998,2.6998,2.6998,2.6998,2.6998,2.6998,2.6998,2.6998,2.6998,2.7042,2.7027,2.7086,2.7305,2.7598,2.7964,2.8476,2.8754,2.8886,2.8886,2.8886,2.8886,2.8886,2.8886,2.8886,2.8886,2.8886,2.8886,2.8886,2.8886,2.8886,2.8886,2.8886,2.9042,2.9119,3.0114,3.0947,3.2233,3.3751,3.5327,3.6386,3.7144,3.8263,3.9011,3.9301,3.9734,4.0166,4.0525,4.074,4.0882,4.0882,4.0882,4.0882,4.0882,2.5066,2.5066,2.5066,2.5066,2.5134,2.5193,2.5154,2.5198,2.552,2.5637,2.5798,2.6266,2.6544,2.6676,2.6896,2.6983,2.6838,2.6692,2.6312,2.5726,2.5492,2.4743,2.3029,2.2285,2.2434,2.2509,2.2198,2.2186,2.3004,2.241,2.2558,2.2174,2.2484,2.2422,2.2422,2.2719,2.3239,2.2794,2.3239,2.3992,2.4663,2.4884,2.5168,2.5724,2.5644,2.5637,2.5608,2.5593,2.5491,2.5242,2.5237,2.5344,2.5608,2.5696,2.5754,2.5915,2.6281,2.6574,2.6691,2.6866,2.6969,2.6998,2.6998,2.6998,2.6998,2.6998,2.6998,2.6998,2.6998,2.6998,2.6998,2.6998,2.6998,2.7071,2.7247,2.7583,2.7844,2.8195,2.8637,2.8842,2.8871,2.8886,2.8886,2.8886,2.8886,2.8886,2.8886,2.8886,2.8886,2.8886,2.8886,2.8886,2.8886,2.8886,2.8964,2.8964,2.9353,2.9726,3.087,3.2233,3.3751,3.542,3.6627,3.7604,3.8574,3.9228,3.959,3.995,4.031,4.0668,4.0811,4.0882,4.0882,4.0882,4.0882,2.5066,2.5066,2.5066,2.5066,2.5066,2.5066,2.5154,2.5315,2.5461,2.5725,2.6047,2.6369,2.6603,2.6749,2.6896,2.6619,2.5873,2.5726,2.4817,2.3696,2.3178,2.2583,2.0887,2.0274,2.0414,2.0113,1.9197,1.9801,2.2198,2.2049,2.1066,2.0905,2.1066,2.1003,2.0841,2.1664,2.1527,2.1377,2.1751,2.2423,2.3232,2.3379,2.4129,2.4456,2.5048,2.5301,2.5286,2.5286,2.5315,2.5315,2.5315,2.5476,2.571,2.5915,2.6018,2.6076,2.6339,2.6603,2.672,2.6925,2.6983,2.6998,2.6998,2.6998,2.6998,2.6998,2.6998,2.6998,2.6998,2.6998,2.6998,2.6998,2.6998,2.7013,2.7144,2.7452,2.7757,2.8005,2.8417,2.8769,2.8871,2.8886,2.8886,2.8886,2.8886,2.8886,2.8886,2.8886,2.8886,2.8886,2.8886,2.8886,2.8886,2.8886,2.8886,2.8886,2.8886,2.9197,2.9649,3.0947,3.2386,3.4128,3.5569,3.6775,3.7731,3.9011,3.9373,3.9662,4.0094,4.0525,4.074,4.0882,4.0882,4.0882,4.0882,2.5066,2.5066,2.5066,2.5066,2.5134,2.5207,2.5286,2.5451,2.5264,2.5455,2.5941,2.5696,2.5634,2.5876,2.5786,2.5272,2.4153,2.4119,2.3129,2.1956,2.1488,2.0807,1.943,1.8515,1.8325,1.9045,1.7721,1.755,2.0037,2.0252,1.9951,1.9338,1.9639,1.965,1.9046,1.9951,2.0037,2.0188,2.0478,2.1163,2.1546,2.2279,2.2802,2.2749,2.3722,2.4198,2.4585,2.4599,2.5045,2.5411,2.5652,2.5769,2.6091,2.6369,2.653,2.6588,2.6603,2.6749,2.6896,2.6983,2.6998,2.6998,2.6998,2.6998,2.6998,2.6998,2.6998,2.6998,2.6998,2.6998,2.6998,2.6998,2.6998,2.6998,2.7027,2.7188,2.7642,2.7978,2.8256,2.8549,2.8769,2.8886,2.8886,2.8886,2.8886,2.8886,2.8886,2.8886,2.8886,2.8886,2.8886,2.8886,2.8886,2.8886,2.8886,2.8886,2.8886,2.8964,2.9275,3.0036,3.1469,3.2918,3.4429,3.6164,3.7751,3.8793,3.9083,3.9445,3.995,4.0382,4.0668,4.0882,4.0882,4.0882,4.0882,2.5066,2.5066,2.5052,2.5066,2.5042,2.5208,2.5353,2.5262,2.4547,2.4291,2.4394,2.3395,2.3017,2.3141,2.3067,2.2819,2.2582,2.2603,2.2094,2.0975,2.0891,2.004,1.8856,1.8181,1.7645,1.8007,1.7497,1.7564,1.8153,1.7149,1.6289,1.6298,1.7014,1.6824,1.7272,1.8266,1.7797,1.7816,1.8035,1.8591,1.946,2.071,2.1084,2.1123,2.1395,2.2151,2.3319,2.3512,2.4136,2.5621,2.5819,2.6049,2.6383,2.6471,2.6676,2.6837,2.6939,2.6939,2.6983,2.6998,2.6998,2.6998,2.6998,2.6998,2.6998,2.6998,2.6998,2.6998,2.6998,2.6998,2.6998,2.6998,2.6998,2.6998,2.6998,2.7174,2.751,2.7773,2.8052,2.8417,2.8666,2.8812,2.8886,2.8886,2.8886,2.8886,2.8886,2.8886,2.8886,2.8886,2.8886,2.8886,2.8886,2.8886,2.8886,2.8886,2.8886,2.8886,2.9042,2.9416,3.0639,3.2157,3.4035,3.5774,3.7364,3.8574,3.9011,3.9373,3.9786,4.0238,4.0525,4.074,4.0882,4.0882,4.0882,2.5066,2.5052,2.4142,2.3831,2.386,2.322,2.3108,2.3223,2.3031,2.3016,2.3117,2.2827,2.2569,2.2405,2.2569,2.1884,2.1153,2.1166,2.0206,1.9128,1.8848,1.8267,1.7074,1.6607,1.6528,1.6713,1.6528,1.6309,1.6225,1.6589,1.6277,1.5417,1.6051,1.6711,1.6571,1.7299,1.7707,1.7728,1.7644,1.7644,1.8299,1.9165,1.9817,1.9716,2.0403,2.1242,2.1824,2.2157,2.308,2.4473,2.4913,2.5569,2.6402,2.6793,2.6866,2.6939,2.6983,2.6983,2.6998,2.6998,2.6998,2.6998,2.6998,2.6998,2.6998,2.6998,2.6998,2.6998,2.6998,2.6998,2.6998,2.6998,2.6998,2.6998,2.6998,2.7174,2.7378,2.7539,2.7817,2.8198,2.8564,2.8725,2.8871,2.8886,2.8886,2.8886,2.8886,2.8886,2.8886,2.8886,2.8886,2.8886,2.8886,2.8886,2.8886,2.8886,2.8886,2.8886,2.8886,2.9353,3.0036,3.1545,3.3432,3.5253,3.6904,3.797,3.872,3.9301,3.9786,4.0146,4.0453,4.0668,4.0882,4.0882,4.0882,2.4198,2.4474,2.3351,2.2783,2.2517,2.1505,2.1462,2.1835,2.166,2.1755,2.1889,2.1711,2.1603,2.1637,2.1346,2.0494,1.9361,1.949,1.8373,1.7101,1.6498,1.6541,1.6246,1.5908,1.5755,1.5642,1.5941,1.5827,1.614,1.6418,1.6472,1.5608,1.6089,1.659,1.6924,1.7381,1.7757,1.7886,1.7538,1.7426,1.7615,1.8084,1.8362,1.8737,1.9464,2.0272,2.0691,2.0775,2.1704,2.3237,2.3666,2.4223,2.5203,2.5744,2.605,2.6312,2.6546,2.6998,2.6998,2.6998,2.6998,2.6998,2.6998,2.6998,2.6998,2.6998,2.6998,2.6998,2.6998,2.6998,2.6998,2.6998,2.6998,2.6998,2.6998,2.7159,2.7335,2.7554,2.7759,2.8095,2.8447,2.8725,2.8827,2.8871,2.8886,2.8886,2.8886,2.8886,2.8886,2.8886,2.8886,2.8886,2.8886,2.8886,2.8886,2.8886,2.8886,2.8886,2.8886,2.9042,2.9649,3.1024,3.2766,3.4579,3.6386,3.7585,3.8482,3.9136,3.9714,4.0002,4.031,4.074,4.0882,4.0882,4.0882,2.1792,2.3247,2.3107,2.2224,2.1112,2.1666,2.1829,2.1435,2.0814,2.0468,2.0409,1.9492,1.9154,1.8943,1.9069,1.8603,1.7888,1.7647,1.7269,1.6999,1.6798,1.6588,1.6261,1.6098,1.5885,1.5885,1.5845,1.5861,1.5983,1.6073,1.6007,1.5649,1.617,1.6421,1.6827,1.7358,1.7747,1.7901,1.7651,1.7511,1.7379,1.7339,1.7163,1.7135,1.7272,1.7836,1.9498,1.9593,2.0399,2.2114,2.2262,2.2559,2.3375,2.4214,2.4743,2.4964,2.5639,2.6166,2.6458,2.6838,2.6998,2.6998,2.6998,2.6998,2.6998,2.6998,2.6998,2.6998,2.6998,2.6998,2.6998,2.6998,2.6998,2.6998,2.7013,2.71,2.732,2.7613,2.7832,2.8052,2.833,2.8637,2.8827,2.8871,2.8886,2.8886,2.8886,2.8886,2.8886,2.8886,2.8886,2.8886,2.8886,2.8886,2.8886,2.8886,2.8886,2.8886,2.8886,2.8886,2.9119,3.0639,3.2842,3.4035,3.5849,3.7051,3.8263,3.9063,3.9642,3.9858,4.0218,4.0668,4.0882,4.0882,4.0882,2.0485,2.0108,2.0563,2.0505,2.0025,1.9336,1.905,1.9125,1.8878,1.9025,1.9393,1.8961,1.8739,1.8714,1.844,1.8171,1.7841,1.7604,1.7147,1.6749,1.6575,1.6542,1.6295,1.6147,1.5958,1.5966,1.5966,1.5966,1.595,1.5966,1.5917,1.5951,1.621,1.6487,1.6892,1.7333,1.7745,1.7895,1.7873,1.7726,1.7719,1.7426,1.719,1.719,1.718,1.7444,1.8115,1.82,1.922,2.023,2.0628,2.1153,2.1826,2.2719,2.3017,2.3178,2.3992,2.467,2.5712,2.6312,2.6998,2.6998,2.6998,2.6998,2.691,2.6998,2.6998,2.6998,2.6998,2.691,2.6998,2.6998,2.6998,2.6998,2.7027,2.7086,2.7305,2.7627,2.7934,2.8183,2.8373,2.8608,2.8769,2.8886,2.8886,2.8886,2.8886,2.8886,2.8886,2.8886,2.8886,2.8886,2.8886,2.8886,2.8886,2.8886,2.8886,2.8886,2.8886,2.8886,2.9119,3.1622,3.3507,3.4486,3.5402,3.6977,3.819,3.9136,3.9642,3.9786,4.0218,4.0811,4.0882,4.0882,4.0882,1.8821,1.8124,1.8353,1.8607,1.8577,1.7632,1.7238,1.7349,1.7709,1.8082,1.8613,1.8893,1.8941,1.8782,1.8609,1.8219,1.7809,1.7459,1.6952,1.6701,1.6526,1.646,1.6269,1.6162,1.6146,1.6113,1.5974,1.5966,1.5966,1.5966,1.5942,1.6106,1.6287,1.6508,1.6837,1.7355,1.7846,1.7837,1.7805,1.7813,1.7738,1.7557,1.7407,1.7398,1.7379,1.7388,1.754,1.7616,1.7996,1.8764,1.9218,1.9661,2.0478,2.1153,2.1452,2.1601,2.2049,2.2719,2.3992,2.5786,2.6619,2.6239,2.6838,2.6619,2.6473,2.6619,2.6765,2.6983,2.691,2.6838,2.691,2.6998,2.6998,2.6998,2.6998,2.7071,2.7364,2.7671,2.8008,2.8315,2.8505,2.871,2.8754,2.8886,2.8886,2.8886,2.8886,2.8886,2.8886,2.8886,2.8886,2.8886,2.8886,2.8886,2.8886,2.8886,2.8886,2.8886,2.8886,2.8886,2.9726,3.1852,3.2902,3.3053,3.4336,3.6682,3.8024,3.8681,3.9281,3.9714,4.0289,4.0882,4.0882,4.0882,4.0882,1.6561,1.7917,1.7042,1.673,1.7051,1.7244,1.7199,1.7065,1.7647,1.801,1.8376,1.8913,1.8854,1.842,1.8494,1.8157,1.7621,1.7148,1.6722,1.6669,1.6579,1.6612,1.647,1.6389,1.6276,1.6251,1.617,1.6006,1.5966,1.5966,1.5966,1.5966,1.6122,1.6287,1.6698,1.7191,1.7445,1.7392,1.7369,1.7454,1.7405,1.7334,1.7301,1.7273,1.735,1.7426,1.7426,1.7426,1.7645,1.7873,1.7873,1.8101,1.8243,1.9369,1.9811,1.9887,2.1153,2.19,2.241,2.5258,2.5726,2.5345,2.6166,2.6385,2.5492,2.5712,2.6619,2.6838,2.6765,2.6692,2.6838,2.6998,2.6998,2.7013,2.7013,2.7203,2.751,2.7817,2.8183,2.8476,2.8695,2.8886,2.8871,2.8886,2.8886,2.8886,2.8886,2.8886,2.8886,2.8886,2.8886,2.8886,2.8886,2.8886,2.8886,2.8886,2.8886,2.8886,2.8886,2.8886,2.9119,3.0253,3.1101,3.1545,3.3676,3.6312,3.7345,3.8151,3.9044,3.9858,4.0433,4.0882,4.0882,4.0882,4.0882,1.5931,1.6214,1.6262,1.6328,1.6381,1.6745,1.6871,1.685,1.7091,1.7378,1.7903,1.8521,1.8636,1.8311,1.8322,1.8121,1.7634,1.7042,1.6701,1.6763,1.6665,1.6584,1.6552,1.6519,1.6422,1.6316,1.6219,1.6121,1.5966,1.5966,1.5966,1.5966,1.5966,1.6048,1.6287,1.6698,1.6944,1.6957,1.7012,1.7012,1.7047,1.6966,1.6959,1.7035,1.7197,1.735,1.735,1.7273,1.735,1.735,1.735,1.7426,1.735,1.8329,1.8253,1.8243,1.9067,1.951,2.0628,2.2645,2.4066,2.467,2.5726,2.6019,2.4978,2.6019,2.6546,2.6692,2.6692,2.6619,2.6619,2.691,2.6998,2.7056,2.7144,2.7466,2.7773,2.8095,2.8417,2.8651,2.8871,2.8886,2.8886,2.8886,2.8886,2.8886,2.8886,2.8886,2.8886,2.8886,2.8886,2.8886,2.8886,2.8886,2.8886,2.8886,2.8886,2.8886,2.8886,2.8886,2.9197,2.9493,3.0639,3.1852,3.3902,3.5867,3.7345,3.87,3.9425,4.0166,4.0596,4.0882,4.0882,4.0882,4.0882,1.5337,1.5261,1.5684,1.5861,1.5918,1.6321,1.6563,1.6681,1.6766,1.7059,1.7498,1.8113,1.8222,1.7966,1.8095,1.7989,1.7543,1.7181,1.6942,1.6925,1.6836,1.6803,1.6763,1.6633,1.6519,1.6389,1.6251,1.6137,1.5966,1.5966,1.5966,1.5966,1.5966,1.6048,1.6122,1.6369,1.6451,1.6515,1.6521,1.6537,1.659,1.6605,1.6586,1.6653,1.6815,1.6968,1.7044,1.7121,1.7188,1.7197,1.7273,1.735,1.735,1.7273,1.7273,1.735,1.734,1.8092,1.9434,2.0177,2.1515,2.2347,2.4743,2.5198,2.4596,2.5419,2.6166,2.6473,2.6546,2.6546,2.6473,2.6765,2.7013,2.7056,2.7291,2.7598,2.7815,2.8136,2.852,2.8769,2.8886,2.8886,2.8886,2.8886,2.8886,2.8886,2.8886,2.8886,2.8886,2.8886,2.8886,2.8886,2.8886,2.8886,2.8886,2.8886,2.8886,2.8886,2.8886,2.8886,2.9042,2.9338,3.0793,3.2081,3.36,3.5327,3.7805,3.9301,3.9734,4.0166,4.0596,4.0811,4.0882,4.0882,4.0882,1.4822,1.4992,1.5171,1.5358,1.5592,1.5985,1.6321,1.6706,1.6892,1.707,1.7247,1.7845,1.7854,1.7326,1.7647,1.7559,1.7288,1.7096,1.7088,1.7088,1.7023,1.7039,1.6925,1.6755,1.6592,1.6446,1.6292,1.6137,1.5974,1.5966,1.5966,1.5966,1.5966,1.5966,1.6048,1.6048,1.6122,1.6196,1.611,1.6094,1.6143,1.6182,1.6162,1.6203,1.6357,1.6433,1.651,1.6586,1.673,1.6892,1.7121,1.7273,1.7197,1.6959,1.7111,1.7111,1.6968,1.7559,1.8158,1.8678,1.883,1.9876,2.2273,2.2794,2.3474,2.4375,2.5506,2.6019,2.6166,2.6239,2.6239,2.6619,2.6983,2.7144,2.7349,2.7642,2.7859,2.8165,2.8578,2.8783,2.8856,2.8886,2.8886,2.8886,2.8886,2.8886,2.8886,2.8886,2.8886,2.8886,2.8886,2.8886,2.8886,2.8886,2.8886,2.8886,2.8886,2.8886,2.8886,2.8886,2.8964,2.9119,3.0114,3.1331,3.269,3.4804,3.7731,3.9228,3.9734,4.0166,4.0453,4.074,4.0811,4.0882,4.0882,1.5114,1.5179,1.5358,1.5536,1.5707,1.591,1.6114,1.6229,1.6393,1.6574,1.6839,1.745,1.748,1.7192,1.7559,1.7463,1.7288,1.7112,1.7112,1.7104,1.7088,1.7023,1.6917,1.6787,1.6617,1.643,1.6267,1.6137,1.5982,1.5966,1.5966,1.5966,1.5966,1.5966,1.5966,1.5966,1.5966,1.5951,1.5844,1.5712,1.5731,1.5785,1.5804,1.582,1.5974,1.605,1.6127,1.628,1.6357,1.6433,1.651,1.6586,1.651,1.6433,1.651,1.651,1.6433,1.6577,1.6806,1.6873,1.7026,1.7474,1.9348,2.0864,2.1837,2.3264,2.4683,2.5125,2.58,2.596,2.6034,2.6326,2.6662,2.6953,2.7215,2.7713,2.802,2.8417,2.8725,2.8812,2.8886,2.8886,2.8886,2.8886,2.8886,2.8886,2.8886,2.8886,2.8886,2.8886,2.8886,2.8886,2.8886,2.8886,2.8886,2.8886,2.8886,2.8886,2.8886,2.8886,2.8964,2.9119,2.9571,3.087,3.2766,3.5327,3.8117,3.9083,3.959,3.9878,4.0166,4.0525,4.0811,4.0882,4.0882,1.5195,1.5171,1.5415,1.561,1.5804,1.604,1.6146,1.6178,1.6341,1.6511,1.6698,1.7136,1.7268,1.7184,1.7375,1.7375,1.7112,1.7112,1.7112,1.7096,1.7055,1.695,1.6774,1.662,1.6495,1.6341,1.6227,1.6121,1.5982,1.5966,1.5966,1.5966,1.5966,1.5966,1.5966,1.5966,1.5966,1.5845,1.5748,1.5569,1.5461,1.5405,1.5333,1.5429,1.5667,1.5744,1.582,1.5897,1.5974,1.605,1.605,1.6203,1.6203,1.6203,1.5897,1.5897,1.5897,1.5812,1.5888,1.5812,1.582,1.6127,1.6873,1.8234,2.0252,2.1975,2.3178,2.4153,2.5065,2.5814,2.5814,2.5901,2.6279,2.6659,2.7196,2.7752,2.8224,2.8622,2.8769,2.8856,2.8886,2.8886,2.8886,2.8886,2.8886,2.8886,2.8886,2.8886,2.8886,2.8886,2.8886,2.8886,2.8886,2.8886,2.8886,2.8886,2.8886,2.8886,2.8886,2.8886,2.8886,2.9119,2.9571,3.1162,3.3205,3.5551,3.7658,3.872,3.9393,3.9662,4.0022,4.0382,4.074,4.0882,4.0882,1.5195,1.509,1.5415,1.5683,1.5853,1.6162,1.6316,1.6365,1.6535,1.669,1.6766,1.7031,1.7096,1.7112,1.72,1.72,1.7112,1.7112,1.7112,1.7104,1.7006,1.6901,1.6722,1.6511,1.6397,1.6267,1.6162,1.5998,1.5974,1.5966,1.5966,1.5966,1.5966,1.5966,1.5966,1.5966,1.5958,1.5901,1.574,1.5512,1.5415,1.5204,1.5045,1.5045,1.5122,1.5122,1.5198,1.5352,1.559,1.5667,1.582,1.605,1.5974,1.5974,1.5582,1.5429,1.5429,1.5352,1.5275,1.5198,1.5352,1.5429,1.5582,1.6568,1.829,2.0767,2.2198,2.3413,2.4388,2.5152,2.5373,2.5778,2.6259,2.668,2.7158,2.7777,2.8297,2.8651,2.8827,2.8886,2.8886,2.8886,2.8886,2.8886,2.8886,2.8886,2.8886,2.8886,2.8886,2.8886,2.8886,2.8886,2.8886,2.8886,2.8886,2.8886,2.8886,2.8886,2.8886,2.8886,2.8886,2.9197,2.9571,3.1545,3.3583,3.4954,3.6608,3.797,3.9176,3.9518,3.9878,4.031,4.0596,4.0811,4.0882,1.5618,1.5601,1.5829,1.6016,1.617,1.6267,1.647,1.6714,1.6763,1.6812,1.679,1.7023,1.7112,1.7112,1.7112,1.7112,1.7112,1.7112,1.7112,1.7104,1.7031,1.6844,1.669,1.6519,1.6349,1.6162,1.5982,1.5966,1.5966,1.5966,1.5966,1.5966,1.5966,1.5966,1.5966,1.5966,1.595,1.5933,1.5723,1.5528,1.5463,1.5204,1.5045,1.5045,1.5045,1.5045,1.5045,1.5122,1.5198,1.5198,1.5198,1.5275,1.5275,1.5275,1.5198,1.5045,1.5122,1.5122,1.5045,1.5045,1.5122,1.5122,1.5198,1.5344,1.6703,1.9338,2.1377,2.2509,2.3574,2.4253,2.4972,2.5566,2.6192,2.6683,2.7193,2.774,2.837,2.8651,2.8871,2.8886,2.8886,2.8886,2.8886,2.8886,2.8886,2.8886,2.8886,2.8886,2.8886,2.8886,2.8886,2.8886,2.8886,2.8886,2.8886,2.8886,2.8886,2.8886,2.8886,2.8886,2.8886,2.9119,2.9493,3.1852,3.3885,3.4879,3.6164,3.7897,3.8865,3.9373,3.9734,4.0166,4.0525,4.074,4.0811,1.5772,1.5804,1.6056,1.6219,1.6316,1.647,1.6665,1.6758,1.6846,1.6966,1.6974,1.7063,1.7112,1.7112,1.7112,1.7112,1.7112,1.7112,1.7112,1.7104,1.7015,1.6812,1.6657,1.6511,1.6292,1.6097,1.5974,1.5966,1.5966,1.5966,1.5966,1.5966,1.5966,1.5966,1.5966,1.5966,1.5966,1.595,1.5691,1.5545,1.548,1.5195,1.5061,1.5045,1.5045,1.5045,1.5045,1.5045,1.5045,1.5045,1.5045,1.5045,1.5045,1.5122,1.5045,1.5045,1.5045,1.5045,1.5045,1.5045,1.5045,1.5045,1.5045,1.5198,1.5497,1.7986,1.9661,2.0864,2.2446,2.3351,2.4245,2.4898,2.5766,2.6343,2.7183,2.7928,2.8438,2.8783,2.8886,2.8886,2.8886,2.8886,2.8886,2.8886,2.8886,2.8886,2.8886,2.8944,2.893,2.9003,2.8973,2.893,2.8959,2.8915,2.8886,2.8886,2.8886,2.8886,2.8886,2.8886,2.8886,2.8964,2.9649,3.1392,3.2977,3.4261,3.5625,3.7511,3.8865,3.9425,3.9714,3.995,4.031,4.0668,4.0811,1.5813,1.5853,1.6162,1.63,1.6349,1.6665,1.6733,1.679,1.7006,1.708,1.7096,1.7104,1.7112,1.7112,1.7112,1.7112,1.7112,1.7112,1.7112,1.7071,1.6982,1.6803,1.6617,1.6438,1.6259,1.6129,1.5974,1.5966,1.5966,1.5966,1.5966,1.5966,1.5966,1.5966,1.5966,1.5966,1.5966,1.5877,1.5748,1.5553,1.5366,1.5171,1.5102,1.5045,1.5045,1.5045,1.5045,1.5045,1.5045,1.5045,1.5045,1.5045,1.5045,1.5045,1.5045,1.5045,1.5045,1.5045,1.5045,1.5045,1.5045,1.5045,1.5045,1.5122,1.542,1.6483,1.8158,1.9359,2.1014,2.2172,2.308,2.4256,2.5135,2.624,2.7171,2.8086,2.8584,2.8886,2.8886,2.8886,2.8886,2.8886,2.89,2.89,2.893,2.893,2.8959,2.8988,2.9047,2.9193,2.9251,2.9149,2.909,2.9032,2.893,2.8886,2.8886,2.8886,2.8886,2.8886,2.8886,2.8886,2.9275,3.0114,3.1622,3.3658,3.5402,3.7144,3.8316,3.9425,3.9642,3.9858,4.0146,4.0525,4.0811,1.5999,1.6016,1.6219,1.63,1.6341,1.6544,1.6714,1.6844,1.6798,1.6974,1.708,1.7112,1.7112,1.7112,1.7112,1.7112,1.7112,1.7112,1.7112,1.7088,1.7047,1.6844,1.6617,1.643,1.6308,1.6079,1.5966,1.5966,1.5966,1.5966,1.5966,1.5966,1.5966,1.5966,1.5966,1.5966,1.595,1.5853,1.574,1.5512,1.5407,1.522,1.5094,1.5045,1.5045,1.5045,1.5045,1.5045,1.5045,1.5045,1.5045,1.5045,1.5045,1.5045,1.5045,1.5045,1.5045,1.5045,1.5045,1.5045,1.5045,1.5045,1.5045,1.5045,1.5497,1.6262,1.7398,1.7788,1.9153,2.0307,2.1389,2.3074,2.4265,2.5805,2.7003,2.8095,2.8856,2.8886,2.8886,2.8886,2.8886,2.8915,2.8959,2.9003,2.9105,2.9149,2.9281,2.9325,2.9471,2.9515,2.9544,2.9412,2.9281,2.909,2.8959,2.89,2.8886,2.8886,2.8886,2.8886,2.8886,2.8886,2.9275,2.9881,3.1699,3.396,3.5551,3.6775,3.8044,3.9083,3.9498,3.9786,4.0074,4.0433,4.074]}]]